Wetterdaten: aktuell Samstag, 01.04.2023 11:46
Datum Zeit Temp. 2m Temp. 5cm Temp. 0cm Temp. -10cm Feuchte A. Feucht 0cm Feucht -10cm Luftdruck Regen Wind Richtung Richtung Sonnenschein ET UV Solar Taupunkt Windchill Windben Empfang
01.04.2023 11:46 8,6 C 10,6 C 8,3 C 6,1 C 73 % 8 cb 5 cb 1004,9 hPa 0,0 l/m 8,0 km/h (2 Bft) NW 315 1 min 0,000 mm 1,9 UV-I 258 W/m 4,0 C 7,4 C 22,5 km/h (4 Bft) 78,26 %
01.04.2023 11:45 8,5 C 10,6 C 8,3 C 6,1 C 71 % 8 cb 5 cb 1004,9 hPa 0,0 l/m 6,4 km/h (2 Bft) O-NO 67 1 min 0,000 mm 2,3 UV-I 276 W/m 3,5 C 7,6 C 11,3 km/h (2 Bft) 86,96 %
01.04.2023 11:44 8,6 C 10,6 C 8,3 C 6,1 C 70 % 8 cb 5 cb 1005,0 hPa 0,0 l/m 9,7 km/h (2 Bft) N-NO 22 1 min 0,000 mm 2,0 UV-I 276 W/m 3,4 C 7,0 C 16,1 km/h (3 Bft) 82,61 %
01.04.2023 11:43 8,6 C 10,6 C 8,3 C 6,1 C 75 % 8 cb 5 cb 1005,0 hPa 0,0 l/m 9,7 km/h (2 Bft) W-SW 247 1 min 0,000 mm 1,9 UV-I 265 W/m 4,4 C 7,0 C 16,1 km/h (3 Bft) 82,61 %
01.04.2023 11:42 8,6 C 10,0 C 7,8 C 6,1 C 76 % 8 cb 5 cb 1005,0 hPa 0,0 l/m 8,0 km/h (2 Bft) NO 45 1 min 0,000 mm 1,9 UV-I 283 W/m 4,6 C 7,4 C 12,9 km/h (3 Bft) 78,26 %
01.04.2023 11:41 8,4 C 10,0 C 7,8 C 6,1 C 76 % 8 cb 5 cb 1005,1 hPa 0,0 l/m 8,0 km/h (2 Bft) NO 45 1 min 0,000 mm 2,0 UV-I 283 W/m 4,4 C 7,1 C 14,5 km/h (3 Bft) 91,30 %
01.04.2023 11:40 8,3 C 10,0 C 7,8 C 6,1 C 73 % 8 cb 5 cb 1004,9 hPa 0,0 l/m 11,3 km/h (2 Bft) N-NO 22 1 min 0,000 mm 1,9 UV-I 260 W/m 3,8 C 6,4 C 14,5 km/h (3 Bft) 86,96 %
01.04.2023 11:39 8,2 C 9,4 C 7,8 C 6,1 C 73 % 8 cb 5 cb 1004,9 hPa 0,0 l/m 3,2 km/h (1 Bft) O-NO 67 1 min 0,000 mm 1,9 UV-I 262 W/m 3,7 C 8,2 C 6,4 km/h (2 Bft) 91,30 %
01.04.2023 11:38 8,2 C 9,4 C 7,8 C 6,1 C 73 % 8 cb 5 cb 1005,0 hPa 0,0 l/m 4,8 km/h (1 Bft) O 90 1 min 0,000 mm 1,8 UV-I 243 W/m 3,7 C 7,8 C 9,7 km/h (2 Bft) 82,61 %
01.04.2023 11:37 8,2 C 9,4 C 7,8 C 6,1 C 73 % 8 cb 5 cb 1005,1 hPa 0,0 l/m 9,7 km/h (2 Bft) NW 315 1 min 0,000 mm 1,7 UV-I 267 W/m 3,7 C 6,5 C 14,5 km/h (3 Bft) 86,96 %
01.04.2023 11:36 8,2 C 9,4 C 7,8 C 6,1 C 71 % 8 cb 5 cb 1005,1 hPa 0,0 l/m 8,0 km/h (2 Bft) N-NW 337 1 min 0,000 mm 1,7 UV-I 237 W/m 3,3 C 6,9 C 12,9 km/h (3 Bft) 86,96 %
01.04.2023 11:35 8,2 C 9,4 C 7,8 C 6,1 C 73 % 8 cb 5 cb 1005,1 hPa 0,0 l/m 14,5 km/h (3 Bft) NO 45 1 min 0,000 mm 1,7 UV-I 227 W/m 3,7 C 5,8 C 27,4 km/h (4 Bft) 86,96 %
01.04.2023 11:34 8,3 C 9,4 C 8,3 C 6,1 C 74 % 8 cb 5 cb 1005,1 hPa 0,0 l/m 19,3 km/h (3 Bft) NW 315 1 min 0,000 mm 1,7 UV-I 399 W/m 3,9 C 5,3 C 29,0 km/h (5 Bft) 86,96 %
01.04.2023 11:33 8,2 C 10,0 C 8,3 C 6,1 C 73 % 8 cb 5 cb 1004,9 hPa 0,0 l/m 9,7 km/h (2 Bft) W 270 1 min 0,000 mm 2,0 UV-I 399 W/m 3,7 C 6,5 C 20,9 km/h (4 Bft) 91,30 %
01.04.2023 11:32 8,2 C 10,0 C 8,3 C 6,1 C 74 % 8 cb 5 cb 1005,0 hPa 0,0 l/m 11,3 km/h (2 Bft) NW 315 1 min 0,000 mm 2,0 UV-I 318 W/m 3,8 C 6,2 C 20,9 km/h (4 Bft) 82,61 %
01.04.2023 11:31 8,3 C 10,0 C 7,8 C 6,1 C 72 % 8 cb 5 cb 1004,9 hPa 0,0 l/m 6,4 km/h (2 Bft) N-NO 22 1 min 0,000 mm 2,1 UV-I 322 W/m 3,6 C 7,4 C 11,3 km/h (2 Bft) 86,96 %
01.04.2023 11:30 8,2 C 10,0 C 7,8 C 6,1 C 75 % 8 cb 5 cb 1004,9 hPa 0,0 l/m 11,3 km/h (2 Bft) N 360 1 min 0,000 mm 2,0 UV-I 322 W/m 4,0 C 6,2 C 17,7 km/h (3 Bft) 86,96 %
01.04.2023 11:29 8,2 C 10,0 C 7,8 C 6,1 C 74 % 8 cb 5 cb 1005,0 hPa 0,0 l/m 16,1 km/h (3 Bft) N 360 1 min 0,000 mm 1,8 UV-I 264 W/m 3,8 C 5,6 C 20,9 km/h (4 Bft) 86,96 %
01.04.2023 11:28 8,1 C 9,4 C 7,8 C 6,1 C 73 % 8 cb 5 cb 1004,9 hPa 0,0 l/m 4,8 km/h (1 Bft) N 360 1 min 0,000 mm 2,1 UV-I 285 W/m 3,6 C 7,7 C 6,4 km/h (2 Bft) 91,30 %
01.04.2023 11:27 8,1 C 9,4 C 7,8 C 6,1 C 75 % 8 cb 5 cb 1004,9 hPa 0,0 l/m 3,2 km/h (1 Bft) NW 315 1 min 0,000 mm 2,3 UV-I 295 W/m 3,9 C 8,1 C 8,0 km/h (2 Bft) 86,96 %
01.04.2023 11:26 8,0 C 8,9 C 7,8 C 6,1 C 73 % 9 cb 5 cb 1004,9 hPa 0,0 l/m 11,3 km/h (2 Bft) W-SW 247 1 min 0,000 mm 2,1 UV-I 295 W/m 3,5 C 6,0 C 17,7 km/h (3 Bft) 86,96 %
01.04.2023 11:25 7,9 C 8,9 C 7,8 C 6,1 C 72 % 9 cb 5 cb 1005,0 hPa 0,0 l/m 17,7 km/h (3 Bft) W-SW 247 1 min 0,000 mm 2,2 UV-I 371 W/m 3,2 C 5,0 C 25,7 km/h (4 Bft) 82,61 %
01.04.2023 11:24 7,9 C 8,9 C 7,2 C 6,1 C 75 % 9 cb 5 cb 1005,0 hPa 0,0 l/m 11,3 km/h (2 Bft) W 270 1 min 0,000 mm 2,1 UV-I 294 W/m 3,7 C 5,9 C 24,1 km/h (4 Bft) 91,30 %
01.04.2023 11:23 7,9 C 8,9 C 7,2 C 6,1 C 72 % 9 cb 5 cb 1004,9 hPa 0,0 l/m 4,8 km/h (1 Bft) SO 135 1 min 0,000 mm 1,9 UV-I 255 W/m 3,2 C 7,4 C 8,0 km/h (2 Bft) 86,96 %
01.04.2023 11:22 7,9 C 8,9 C 7,2 C 6,1 C 73 % 9 cb 5 cb 1004,9 hPa 0,0 l/m 8,0 km/h (2 Bft) NW 315 1 min 0,000 mm 1,8 UV-I 255 W/m 3,4 C 6,5 C 12,9 km/h (3 Bft) 91,30 %
01.04.2023 11:21 7,9 C 8,3 C 7,2 C 6,1 C 74 % 9 cb 5 cb 1004,9 hPa 0,0 l/m 8,0 km/h (2 Bft) N-NO 22 1 min 0,000 mm 1,7 UV-I 267 W/m 3,6 C 6,5 C 12,9 km/h (3 Bft) 86,96 %
01.04.2023 11:20 7,8 C 8,3 C 7,2 C 6,1 C 75 % 9 cb 5 cb 1004,8 hPa 0,0 l/m 16,1 km/h (3 Bft) N-NO 22 1 min 0,000 mm 1,5 UV-I 258 W/m 3,7 C 5,1 C 17,7 km/h (3 Bft) 86,96 %
01.04.2023 11:19 7,8 C 8,3 C 7,2 C 6,1 C 74 % 9 cb 5 cb 1004,9 hPa 0,0 l/m 9,7 km/h (2 Bft) O-NO 67 1 min 0,000 mm 1,4 UV-I 225 W/m 3,5 C 6,1 C 20,9 km/h (4 Bft) 78,26 %
01.04.2023 11:18 7,8 C 8,3 C 7,2 C 6,1 C 73 % 9 cb 5 cb 1005,1 hPa 0,0 l/m 11,3 km/h (2 Bft) NO 45 1 min 0,000 mm 1,3 UV-I 179 W/m 3,3 C 5,8 C 19,3 km/h (3 Bft) 82,61 %
01.04.2023 11:17 7,9 C 8,3 C 7,2 C 6,1 C 74 % 9 cb 5 cb 1004,9 hPa 0,0 l/m 16,1 km/h (3 Bft) W-NW 292 1 min 0,000 mm 1,2 UV-I 169 W/m 3,6 C 5,2 C 25,7 km/h (4 Bft) 82,61 %
01.04.2023 11:16 7,9 C 8,9 C 7,2 C 6,1 C 74 % 8 cb 5 cb 1005,0 hPa 0,0 l/m 8,0 km/h (2 Bft) SW 225 1 min 0,000 mm 1,3 UV-I 192 W/m 3,6 C 6,5 C 11,3 km/h (2 Bft) 86,96 %
01.04.2023 11:15 8,1 C 8,9 C 7,2 C 6,1 C 73 % 8 cb 5 cb 1005,0 hPa 0,0 l/m 9,7 km/h (2 Bft) N 360 1 min 0,000 mm 1,3 UV-I 192 W/m 3,6 C 6,4 C 17,7 km/h (3 Bft) 82,61 %
01.04.2023 11:14 8,2 C 9,4 C 7,8 C 6,1 C 75 % 8 cb 5 cb 1005,0 hPa 0,0 l/m 11,3 km/h (2 Bft) N-NO 22 1 min 0,000 mm 1,3 UV-I 192 W/m 4,0 C 6,2 C 24,1 km/h (4 Bft) 91,30 %
01.04.2023 11:13 8,2 C 9,4 C 7,8 C 6,1 C 74 % 8 cb 5 cb 1004,9 hPa 0,0 l/m 19,3 km/h (3 Bft) NO 45 1 min 0,000 mm 1,4 UV-I 192 W/m 3,8 C 5,2 C 30,6 km/h (5 Bft) 82,61 %
01.04.2023 11:12 8,2 C 10,0 C 7,8 C 6,1 C 72 % 8 cb 5 cb 1004,9 hPa 0,0 l/m 11,3 km/h (2 Bft) NO 45 1 min 0,000 mm 1,7 UV-I 216 W/m 3,5 C 6,2 C 25,7 km/h (4 Bft) 95,65 %
01.04.2023 11:11 8,2 C 10,0 C 7,8 C 6,1 C 78 % 8 cb 5 cb 1004,9 hPa 0,0 l/m 11,3 km/h (2 Bft) NO 45 1 min 0,000 mm 1,9 UV-I 359 W/m 4,6 C 6,2 C 17,7 km/h (3 Bft) 91,30 %
01.04.2023 11:10 8,1 C 10,0 C 7,2 C 6,1 C 76 % 8 cb 5 cb 1004,8 hPa 0,0 l/m 3,2 km/h (1 Bft) S-SW 202 1 min 0,000 mm 2,4 UV-I 359 W/m 4,1 C 8,1 C 8,0 km/h (2 Bft) 91,30 %
01.04.2023 11:09 7,9 C 9,4 C 7,2 C 6,1 C 76 % 8 cb 5 cb 1004,9 hPa 0,0 l/m 4,8 km/h (1 Bft) S-SW 202 1 min 0,000 mm 2,1 UV-I 299 W/m 3,9 C 7,4 C 9,7 km/h (2 Bft) 86,96 %
01.04.2023 11:08 7,8 C 9,4 C 7,2 C 6,1 C 74 % 9 cb 5 cb 1004,7 hPa 0,0 l/m 8,0 km/h (2 Bft) W-NW 292 1 min 0,000 mm 2,1 UV-I 299 W/m 3,5 C 6,4 C 12,9 km/h (3 Bft) 91,30 %
01.04.2023 11:07 7,9 C 8,9 C 7,2 C 6,1 C 73 % 9 cb 5 cb 1004,8 hPa 0,0 l/m 9,7 km/h (2 Bft) W-SW 247 1 min 0,000 mm 2,1 UV-I 299 W/m 3,4 C 6,2 C 16,1 km/h (3 Bft) 91,30 %
01.04.2023 11:06 7,9 C 8,9 C 7,2 C 6,1 C 73 % 9 cb 5 cb 1004,9 hPa 0,0 l/m 9,7 km/h (2 Bft) W-SW 247 1 min 0,000 mm 2,0 UV-I 267 W/m 3,4 C 6,2 C 14,5 km/h (3 Bft) 95,65 %
01.04.2023 11:05 8,0 C 8,9 C 7,2 C 6,1 C 75 % 9 cb 5 cb 1004,9 hPa 0,0 l/m 11,3 km/h (2 Bft) NW 315 1 min 0,000 mm 2,0 UV-I 288 W/m 3,8 C 6,0 C 14,5 km/h (3 Bft) 86,96 %
01.04.2023 11:04 8,0 C 8,3 C 7,2 C 6,1 C 76 % 9 cb 5 cb 1004,8 hPa 0,0 l/m 4,8 km/h (1 Bft) W-SW 247 1 min 0,000 mm 1,8 UV-I 243 W/m 4,0 C 7,6 C 9,7 km/h (2 Bft) 91,30 %
01.04.2023 11:03 7,9 C 8,3 C 7,2 C 6,1 C 75 % 9 cb 5 cb 1004,7 hPa 0,0 l/m 6,4 km/h (2 Bft) W 270 1 min 0,000 mm 1,5 UV-I 193 W/m 3,7 C 6,9 C 9,7 km/h (2 Bft) 86,96 %
01.04.2023 11:02 7,9 C 8,3 C 6,7 C 6,1 C 76 % 9 cb 5 cb 1004,7 hPa 0,0 l/m 6,4 km/h (2 Bft) W-NW 292 1 min 0,000 mm 1,4 UV-I 202 W/m 3,9 C 6,9 C 12,9 km/h (3 Bft) 95,65 %
01.04.2023 11:01 7,9 C 7,8 C 6,7 C 6,1 C 75 % 9 cb 5 cb 1004,6 hPa 0,0 l/m 4,8 km/h (1 Bft) SO 135 1 min 0,000 mm 1,4 UV-I 162 W/m 3,7 C 7,4 C 8,0 km/h (2 Bft) 91,30 %
01.04.2023 11:00 7,8 C 7,8 C 6,7 C 6,1 C 76 % 9 cb 5 cb 1004,6 hPa 0,0 l/m 4,8 km/h (1 Bft) O 90 1 min 0,076 mm 1,3 UV-I 162 W/m 3,8 C 7,3 C 8,0 km/h (2 Bft) 95,65 %
01.04.2023 10:59 7,8 C 7,8 C 6,7 C 6,1 C 73 % 9 cb 5 cb 1004,5 hPa 0,0 l/m 4,8 km/h (1 Bft) SW 225 1 min 0,000 mm 1,3 UV-I 162 W/m 3,3 C 7,3 C 8,0 km/h (2 Bft) 91,30 %
01.04.2023 10:58 7,7 C 7,8 C 6,7 C 6,1 C 73 % 9 cb 5 cb 1004,5 hPa 0,0 l/m 4,8 km/h (1 Bft) W-SW 247 1 min 0,000 mm 1,3 UV-I 174 W/m 3,2 C 7,2 C 8,0 km/h (2 Bft) 86,96 %
01.04.2023 10:57 7,7 C 7,8 C 6,7 C 6,1 C 75 % 9 cb 5 cb 1004,6 hPa 0,0 l/m 6,4 km/h (2 Bft) W 270 1 min 0,000 mm 1,4 UV-I 257 W/m 3,6 C 6,7 C 8,0 km/h (2 Bft) 82,61 %
01.04.2023 10:56 7,7 C 7,2 C 6,7 C 6,1 C 75 % 9 cb 5 cb 1004,6 hPa 0,0 l/m 4,8 km/h (1 Bft) NW 315 1 min 0,000 mm 1,3 UV-I 169 W/m 3,6 C 7,2 C 8,0 km/h (2 Bft) 91,30 %
01.04.2023 10:55 7,7 C 7,2 C 6,7 C 6,1 C 74 % 9 cb 5 cb 1004,6 hPa 0,0 l/m 6,4 km/h (2 Bft) NW 315 0 min 0,000 mm 1,0 UV-I 125 W/m 3,4 C 6,7 C 11,3 km/h (2 Bft) 91,30 %
01.04.2023 10:54 7,7 C 7,2 C 6,7 C 6,1 C 74 % 9 cb 5 cb 1004,7 hPa 0,0 l/m 6,4 km/h (2 Bft) N 360 0 min 0,000 mm 0,8 UV-I 105 W/m 3,4 C 6,7 C 11,3 km/h (2 Bft) 86,96 %
01.04.2023 10:53 7,6 C 7,2 C 6,7 C 6,1 C 74 % 9 cb 5 cb 1004,6 hPa 0,0 l/m 6,4 km/h (2 Bft) N-NO 22 0 min 0,000 mm 0,8 UV-I 120 W/m 3,3 C 6,6 C 9,7 km/h (2 Bft) 78,26 %
01.04.2023 10:52 7,6 C 7,2 C 6,7 C 6,1 C 74 % 9 cb 5 cb 1004,6 hPa 0,0 l/m 16,1 km/h (3 Bft) NO 45 0 min 0,000 mm 0,8 UV-I 118 W/m 3,3 C 4,8 C 19,3 km/h (3 Bft) 91,30 %
01.04.2023 10:51 7,6 C 7,2 C 6,7 C 6,1 C 73 % 9 cb 5 cb 1004,7 hPa 0,0 l/m 6,4 km/h (2 Bft) N-NW 337 0 min 0,000 mm 0,8 UV-I 111 W/m 3,1 C 6,6 C 12,9 km/h (3 Bft) 86,96 %
01.04.2023 10:50 7,6 C 7,2 C 6,7 C 6,1 C 74 % 9 cb 5 cb 1004,6 hPa 0,0 l/m 3,2 km/h (1 Bft) S 180 0 min 0,000 mm 0,8 UV-I 104 W/m 3,3 C 7,6 C 6,4 km/h (2 Bft) 91,30 %
01.04.2023 10:49 7,6 C 7,2 C 6,7 C 6,1 C 76 % 9 cb 5 cb 1004,6 hPa 0,0 l/m 4,8 km/h (1 Bft) S-SW 202 0 min 0,000 mm 0,7 UV-I 98 W/m 3,6 C 7,1 C 8,0 km/h (2 Bft) 86,96 %
01.04.2023 10:48 7,6 C 6,7 C 6,7 C 6,1 C 76 % 9 cb 5 cb 1004,6 hPa 0,0 l/m 3,2 km/h (1 Bft) O 90 0 min 0,000 mm 0,8 UV-I 109 W/m 3,6 C 7,6 C 6,4 km/h (2 Bft) 91,30 %
01.04.2023 10:47 7,5 C 6,7 C 6,7 C 6,1 C 75 % 9 cb 5 cb 1004,7 hPa 0,0 l/m 6,4 km/h (2 Bft) W-NW 292 0 min 0,000 mm 0,8 UV-I 109 W/m 3,4 C 6,5 C 16,1 km/h (3 Bft) 86,96 %
01.04.2023 10:46 7,6 C 6,7 C 6,7 C 6,1 C 75 % 9 cb 5 cb 1004,6 hPa 0,0 l/m 11,3 km/h (2 Bft) W 270 0 min 0,000 mm 0,8 UV-I 102 W/m 3,5 C 5,5 C 19,3 km/h (3 Bft) 95,65 %
01.04.2023 10:45 7,6 C 6,7 C 6,7 C 6,1 C 75 % 9 cb 5 cb 1004,5 hPa 0,0 l/m 6,4 km/h (2 Bft) W-NW 292 0 min 0,000 mm 0,6 UV-I 91 W/m 3,5 C 6,6 C 11,3 km/h (2 Bft) 86,96 %
01.04.2023 10:44 7,5 C 6,7 C 6,7 C 6,1 C 75 % 9 cb 5 cb 1004,6 hPa 0,0 l/m 9,7 km/h (2 Bft) W 270 0 min 0,000 mm 0,6 UV-I 86 W/m 3,4 C 5,7 C 17,7 km/h (3 Bft) 95,65 %
01.04.2023 10:43 7,6 C 6,7 C 6,7 C 6,1 C 75 % 9 cb 5 cb 1004,5 hPa 0,0 l/m 4,8 km/h (1 Bft) W 270 0 min 0,000 mm 0,6 UV-I 84 W/m 3,5 C 7,1 C 9,7 km/h (2 Bft) 86,96 %
01.04.2023 10:42 7,5 C 6,7 C 6,7 C 6,1 C 76 % 9 cb 5 cb 1004,6 hPa 0,0 l/m 3,2 km/h (1 Bft) S-SW 202 0 min 0,000 mm 0,6 UV-I 83 W/m 3,5 C 7,5 C 3,2 km/h (1 Bft) 91,30 %
01.04.2023 10:41 7,5 C 6,7 C 6,7 C 6,1 C 75 % 9 cb 5 cb 1004,6 hPa 0,0 l/m 3,2 km/h (1 Bft) W 270 0 min 0,000 mm 0,6 UV-I 79 W/m 3,4 C 7,5 C 4,8 km/h (1 Bft) 86,96 %
01.04.2023 10:40 7,5 C 6,7 C 6,7 C 6,1 C 75 % 9 cb 5 cb 1004,5 hPa 0,0 l/m 4,8 km/h (1 Bft) O-SO 112 0 min 0,000 mm 0,6 UV-I 72 W/m 3,4 C 7,0 C 6,4 km/h (2 Bft) 95,65 %
01.04.2023 10:39 7,5 C 6,7 C 6,1 C 6,1 C 75 % 9 cb 5 cb 1004,6 hPa 0,0 l/m 4,8 km/h (1 Bft) O 90 0 min 0,000 mm 0,5 UV-I 72 W/m 3,4 C 7,0 C 8,0 km/h (2 Bft) 91,30 %
01.04.2023 10:38 7,4 C 6,7 C 6,7 C 6,1 C 75 % 9 cb 5 cb 1004,6 hPa 0,0 l/m 8,0 km/h (2 Bft) O 90 0 min 0,000 mm 0,6 UV-I 77 W/m 3,3 C 6,0 C 12,9 km/h (3 Bft) 95,65 %
01.04.2023 10:37 7,5 C 6,7 C 6,7 C 6,1 C 76 % 9 cb 5 cb 1004,6 hPa 0,0 l/m 9,7 km/h (2 Bft) NO 45 0 min 0,000 mm 0,5 UV-I 77 W/m 3,5 C 5,7 C 12,9 km/h (3 Bft) 91,30 %
01.04.2023 10:36 7,5 C 6,7 C 6,7 C 6,1 C 76 % 9 cb 5 cb 1004,3 hPa 0,0 l/m 8,0 km/h (2 Bft) W-NW 292 0 min 0,000 mm 0,5 UV-I 77 W/m 3,5 C 6,1 C 9,7 km/h (2 Bft) 91,30 %
01.04.2023 10:35 7,5 C 6,7 C 6,7 C 6,1 C 76 % 9 cb 5 cb 1004,5 hPa 0,0 l/m 9,7 km/h (2 Bft) NO 45 0 min 0,000 mm 0,6 UV-I 88 W/m 3,5 C 5,7 C 16,1 km/h (3 Bft) 91,30 %
01.04.2023 10:34 7,6 C 6,7 C 6,7 C 6,1 C 75 % 9 cb 5 cb 1004,5 hPa 0,0 l/m 14,5 km/h (3 Bft) N-NO 22 0 min 0,000 mm 0,7 UV-I 95 W/m 3,5 C 5,0 C 19,3 km/h (3 Bft) 86,96 %
01.04.2023 10:33 7,5 C 6,7 C 6,7 C 6,1 C 76 % 9 cb 5 cb 1004,5 hPa 0,0 l/m 20,9 km/h (4 Bft) NO 45 0 min 0,000 mm 0,7 UV-I 102 W/m 3,5 C 4,1 C 27,4 km/h (4 Bft) 86,96 %
01.04.2023 10:32 7,5 C 6,7 C 6,7 C 6,1 C 76 % 9 cb 5 cb 1004,6 hPa 0,0 l/m 20,9 km/h (4 Bft) N-NO 22 0 min 0,000 mm 0,8 UV-I 107 W/m 3,5 C 4,1 C 25,7 km/h (4 Bft) 91,30 %
01.04.2023 10:31 7,5 C 6,7 C 6,7 C 6,1 C 75 % 9 cb 5 cb 1004,4 hPa 0,0 l/m 12,9 km/h (3 Bft) NW 315 0 min 0,000 mm 0,7 UV-I 100 W/m 3,4 C 5,1 C 17,7 km/h (3 Bft) 78,26 %
01.04.2023 10:30 7,5 C 6,7 C 6,7 C 6,1 C 76 % 9 cb 5 cb 1004,6 hPa 0,0 l/m 11,3 km/h (2 Bft) N 360 0 min 0,000 mm 0,7 UV-I 98 W/m 3,5 C 5,4 C 16,1 km/h (3 Bft) 95,65 %
01.04.2023 10:29 7,5 C 6,7 C 6,7 C 6,1 C 75 % 9 cb 5 cb 1004,5 hPa 0,0 l/m 9,7 km/h (2 Bft) N 360 0 min 0,000 mm 0,8 UV-I 104 W/m 3,4 C 5,7 C 12,9 km/h (3 Bft) 86,96 %
01.04.2023 10:28 7,5 C 6,7 C 6,7 C 6,1 C 76 % 9 cb 5 cb 1004,6 hPa 0,0 l/m 12,9 km/h (3 Bft) N 360 0 min 0,000 mm 0,8 UV-I 105 W/m 3,5 C 5,1 C 22,5 km/h (4 Bft) 91,30 %
01.04.2023 10:27 7,5 C 6,7 C 6,7 C 6,1 C 76 % 9 cb 5 cb 1004,5 hPa 0,0 l/m 8,0 km/h (2 Bft) NW 315 0 min 0,000 mm 0,7 UV-I 107 W/m 3,5 C 6,1 C 12,9 km/h (3 Bft) 86,96 %
01.04.2023 10:26 7,5 C 6,7 C 6,7 C 6,1 C 75 % 9 cb 5 cb 1004,4 hPa 0,0 l/m 6,4 km/h (2 Bft) NW 315 0 min 0,000 mm 0,7 UV-I 95 W/m 3,4 C 6,5 C 9,7 km/h (2 Bft) 95,65 %
01.04.2023 10:25 7,5 C 6,7 C 6,7 C 6,1 C 75 % 9 cb 5 cb 1004,5 hPa 0,0 l/m 8,0 km/h (2 Bft) W-NW 292 0 min 0,000 mm 0,7 UV-I 95 W/m 3,4 C 6,1 C 12,9 km/h (3 Bft) 82,61 %
01.04.2023 10:24 7,5 C 6,7 C 6,7 C 6,1 C 75 % 9 cb 5 cb 1004,5 hPa 0,0 l/m 9,7 km/h (2 Bft) NW 315 0 min 0,000 mm 0,7 UV-I 109 W/m 3,4 C 5,7 C 14,5 km/h (3 Bft) 95,65 %
01.04.2023 10:23 7,6 C 6,7 C 6,7 C 6,1 C 76 % 9 cb 5 cb 1004,5 hPa 0,0 l/m 11,3 km/h (2 Bft) NW 315 0 min 0,000 mm 0,8 UV-I 109 W/m 3,6 C 5,5 C 16,1 km/h (3 Bft) 82,61 %
01.04.2023 10:22 7,6 C 7,2 C 6,7 C 6,1 C 76 % 9 cb 5 cb 1004,5 hPa 0,0 l/m 16,1 km/h (3 Bft) NW 315 0 min 0,000 mm 0,7 UV-I 88 W/m 3,6 C 4,8 C 19,3 km/h (3 Bft) 91,30 %
01.04.2023 10:21 7,6 C 7,2 C 6,7 C 6,1 C 76 % 9 cb 5 cb 1004,5 hPa 0,0 l/m 9,7 km/h (2 Bft) N-NW 337 0 min 0,000 mm 0,6 UV-I 81 W/m 3,6 C 5,8 C 14,5 km/h (3 Bft) 86,96 %
01.04.2023 10:20 7,7 C 7,2 C 6,7 C 6,1 C 75 % 9 cb 5 cb 1004,3 hPa 0,0 l/m 8,0 km/h (2 Bft) W-NW 292 0 min 0,000 mm 0,7 UV-I 95 W/m 3,6 C 6,3 C 11,3 km/h (2 Bft) 82,61 %
01.04.2023 10:19 7,7 C 7,2 C 6,7 C 6,1 C 75 % 9 cb 5 cb 1004,5 hPa 0,0 l/m 8,0 km/h (2 Bft) SW 225 0 min 0,000 mm 0,7 UV-I 102 W/m 3,6 C 6,3 C 11,3 km/h (2 Bft) 86,96 %
01.04.2023 10:18 7,7 C 7,8 C 6,7 C 6,1 C 74 % 9 cb 5 cb 1004,4 hPa 0,0 l/m 8,0 km/h (2 Bft) NW 315 0 min 0,000 mm 0,7 UV-I 105 W/m 3,4 C 6,3 C 11,3 km/h (2 Bft) 86,96 %
01.04.2023 10:17 7,7 C 7,8 C 6,7 C 6,1 C 76 % 9 cb 5 cb 1004,3 hPa 0,0 l/m 6,4 km/h (2 Bft) N-NO 22 0 min 0,000 mm 0,8 UV-I 113 W/m 3,7 C 6,7 C 9,7 km/h (2 Bft) 95,65 %
01.04.2023 10:16 7,7 C 7,8 C 6,7 C 6,1 C 76 % 9 cb 5 cb 1004,3 hPa 0,0 l/m 6,4 km/h (2 Bft) N-NO 22 0 min 0,000 mm 0,8 UV-I 113 W/m 3,7 C 6,7 C 14,5 km/h (3 Bft) 86,96 %
01.04.2023 10:15 7,7 C 7,8 C 6,7 C 6,1 C 75 % 9 cb 5 cb 1004,4 hPa 0,0 l/m 9,7 km/h (2 Bft) N-NO 22 0 min 0,000 mm 0,8 UV-I 127 W/m 3,6 C 5,9 C 16,1 km/h (3 Bft) 91,30 %
01.04.2023 10:14 7,7 C 7,8 C 6,7 C 6,1 C 75 % 9 cb 5 cb 1004,5 hPa 0,0 l/m 6,4 km/h (2 Bft) N-NW 337 0 min 0,000 mm 0,9 UV-I 142 W/m 3,6 C 6,7 C 9,7 km/h (2 Bft) 82,61 %
01.04.2023 10:13 7,8 C 7,8 C 6,7 C 6,1 C 74 % 9 cb 5 cb 1004,5 hPa 0,0 l/m 14,5 km/h (3 Bft) NW 315 0 min 0,000 mm 1,0 UV-I 135 W/m 3,5 C 5,3 C 17,7 km/h (3 Bft) 95,65 %
01.04.2023 10:12 7,8 C 7,8 C 6,7 C 6,1 C 76 % 9 cb 5 cb 1004,3 hPa 0,0 l/m 9,7 km/h (2 Bft) W-NW 292 0 min 0,000 mm 1,0 UV-I 141 W/m 3,8 C 6,1 C 12,9 km/h (3 Bft) 82,61 %
01.04.2023 10:11 7,8 C 7,8 C 6,7 C 6,1 C 76 % 9 cb 5 cb 1004,3 hPa 0,0 l/m 6,4 km/h (2 Bft) W 270 1 min 0,000 mm 1,1 UV-I 160 W/m 3,8 C 6,8 C 8,0 km/h (2 Bft) 95,65 %
01.04.2023 10:10 7,8 C 7,8 C 6,7 C 6,1 C 75 % 9 cb 5 cb 1004,4 hPa 0,0 l/m 11,3 km/h (2 Bft) NW 315 0 min 0,000 mm 1,0 UV-I 151 W/m 3,7 C 5,8 C 14,5 km/h (3 Bft) 82,61 %
01.04.2023 10:09 7,8 C 7,8 C 6,7 C 6,1 C 74 % 9 cb 5 cb 1004,5 hPa 0,0 l/m 14,5 km/h (3 Bft) N-NW 337 0 min 0,000 mm 0,9 UV-I 146 W/m 3,5 C 5,3 C 17,7 km/h (3 Bft) 91,30 %
01.04.2023 10:08 7,8 C 7,8 C 6,7 C 6,1 C 75 % 9 cb 5 cb 1004,5 hPa 0,0 l/m 16,1 km/h (3 Bft) N-NW 337 0 min 0,000 mm 1,0 UV-I 146 W/m 3,7 C 5,1 C 24,1 km/h (4 Bft) 86,96 %
01.04.2023 10:07 7,8 C 8,3 C 7,2 C 6,1 C 73 % 9 cb 5 cb 1004,5 hPa 0,0 l/m 12,9 km/h (3 Bft) W-NW 292 0 min 0,000 mm 0,9 UV-I 135 W/m 3,3 C 5,5 C 19,3 km/h (3 Bft) 86,96 %
01.04.2023 10:06 7,9 C 8,3 C 7,2 C 6,1 C 74 % 9 cb 5 cb 1004,4 hPa 0,0 l/m 11,3 km/h (2 Bft) NW 315 0 min 0,000 mm 0,9 UV-I 141 W/m 3,6 C 5,9 C 24,1 km/h (4 Bft) 86,96 %
01.04.2023 10:05 7,9 C 8,3 C 7,2 C 6,1 C 75 % 9 cb 5 cb 1004,5 hPa 0,0 l/m 4,8 km/h (1 Bft) N 360 1 min 0,000 mm 0,9 UV-I 158 W/m 3,7 C 7,4 C 11,3 km/h (2 Bft) 95,65 %
01.04.2023 10:04 7,9 C 8,9 C 7,2 C 6,1 C 74 % 9 cb 5 cb 1004,5 hPa 0,0 l/m 9,7 km/h (2 Bft) N-NW 337 1 min 0,000 mm 1,0 UV-I 183 W/m 3,6 C 6,2 C 17,7 km/h (3 Bft) 86,96 %
01.04.2023 10:03 7,9 C 8,9 C 7,2 C 6,1 C 76 % 9 cb 5 cb 1004,6 hPa 0,0 l/m 14,5 km/h (3 Bft) NW 315 1 min 0,000 mm 1,2 UV-I 197 W/m 3,9 C 5,4 C 20,9 km/h (4 Bft) 86,96 %
01.04.2023 10:02 7,9 C 9,4 C 7,2 C 6,1 C 76 % 9 cb 5 cb 1004,4 hPa 0,0 l/m 17,7 km/h (3 Bft) NW 315 1 min 0,000 mm 1,5 UV-I 381 W/m 3,9 C 5,0 C 25,7 km/h (4 Bft) 91,30 %
01.04.2023 10:01 7,9 C 8,9 C 7,2 C 6,1 C 78 % 9 cb 5 cb 1004,4 hPa 0,0 l/m 4,8 km/h (1 Bft) NW 315 1 min 0,000 mm 1,6 UV-I 381 W/m 4,3 C 7,4 C 12,9 km/h (3 Bft) 91,30 %
01.04.2023 10:00 7,8 C 8,3 C 6,7 C 6,1 C 76 % 9 cb 5 cb 1004,5 hPa 0,0 l/m 8,0 km/h (2 Bft) N-NO 22 1 min 0,076 mm 1,5 UV-I 281 W/m 3,8 C 6,4 C 14,5 km/h (3 Bft) 86,96 %
01.04.2023 09:59 7,8 C 8,3 C 6,7 C 6,1 C 77 % 9 cb 5 cb 1004,5 hPa 0,0 l/m 11,3 km/h (2 Bft) N 360 1 min 0,000 mm 1,5 UV-I 250 W/m 4,0 C 5,8 C 14,5 km/h (3 Bft) 95,65 %
01.04.2023 09:58 7,8 C 8,3 C 6,7 C 6,1 C 76 % 9 cb 5 cb 1004,7 hPa 0,0 l/m 8,0 km/h (2 Bft) NW 315 1 min 0,000 mm 1,3 UV-I 221 W/m 3,8 C 6,4 C 19,3 km/h (3 Bft) 82,61 %
01.04.2023 09:57 7,8 C 8,3 C 6,7 C 6,1 C 79 % 9 cb 5 cb 1004,5 hPa 0,0 l/m 19,3 km/h (3 Bft) NW 315 1 min 0,000 mm 1,4 UV-I 251 W/m 4,4 C 4,7 C 24,1 km/h (4 Bft) 95,65 %
01.04.2023 09:56 7,7 C 8,3 C 6,7 C 6,1 C 78 % 9 cb 5 cb 1004,5 hPa 0,0 l/m 14,5 km/h (3 Bft) N-NO 22 1 min 0,000 mm 1,3 UV-I 243 W/m 4,1 C 5,1 C 20,9 km/h (4 Bft) 86,96 %
01.04.2023 09:55 7,6 C 8,3 C 6,7 C 5,6 C 77 % 9 cb 5 cb 1004,5 hPa 0,0 l/m 6,4 km/h (2 Bft) NO 45 1 min 0,000 mm 1,2 UV-I 221 W/m 3,8 C 6,6 C 11,3 km/h (2 Bft) 95,65 %
01.04.2023 09:54 7,6 C 7,8 C 6,7 C 5,6 C 78 % 9 cb 5 cb 1004,4 hPa 0,0 l/m 6,4 km/h (2 Bft) N-NO 22 1 min 0,000 mm 1,2 UV-I 227 W/m 4,0 C 6,6 C 11,3 km/h (2 Bft) 91,30 %
01.04.2023 09:53 7,5 C 7,8 C 6,7 C 6,1 C 76 % 9 cb 5 cb 1004,3 hPa 0,0 l/m 8,0 km/h (2 Bft) W-NW 292 1 min 0,000 mm 1,2 UV-I 236 W/m 3,5 C 6,1 C 11,3 km/h (2 Bft) 95,65 %
01.04.2023 09:52 7,5 C 7,8 C 6,7 C 5,6 C 76 % 9 cb 5 cb 1004,5 hPa 0,0 l/m 11,3 km/h (2 Bft) W 270 1 min 0,000 mm 1,2 UV-I 227 W/m 3,5 C 5,4 C 17,7 km/h (3 Bft) 86,96 %
01.04.2023 09:51 7,5 C 8,3 C 6,7 C 6,1 C 77 % 9 cb 5 cb 1004,4 hPa 0,0 l/m 8,0 km/h (2 Bft) N-NW 337 1 min 0,000 mm 1,2 UV-I 229 W/m 3,7 C 6,1 C 16,1 km/h (3 Bft) 91,30 %
01.04.2023 09:50 7,4 C 7,8 C 6,7 C 6,1 C 79 % 9 cb 5 cb 1004,5 hPa 0,0 l/m 8,0 km/h (2 Bft) N-NO 22 1 min 0,000 mm 1,1 UV-I 193 W/m 4,0 C 6,0 C 12,9 km/h (3 Bft) 91,30 %
01.04.2023 09:49 7,4 C 7,8 C 6,7 C 6,1 C 79 % 9 cb 5 cb 1004,4 hPa 0,0 l/m 4,8 km/h (1 Bft) N-NW 337 1 min 0,000 mm 1,1 UV-I 193 W/m 4,0 C 6,9 C 6,4 km/h (2 Bft) 91,30 %
01.04.2023 09:48 7,3 C 7,8 C 6,7 C 5,6 C 77 % 9 cb 5 cb 1004,3 hPa 0,0 l/m 4,8 km/h (1 Bft) NW 315 1 min 0,000 mm 1,1 UV-I 197 W/m 3,5 C 6,8 C 8,0 km/h (2 Bft) 91,30 %
01.04.2023 09:47 7,3 C 7,8 C 6,7 C 5,6 C 77 % 9 cb 5 cb 1004,4 hPa 0,0 l/m 3,2 km/h (1 Bft) SO 135 1 min 0,000 mm 1,2 UV-I 218 W/m 3,5 C 7,3 C 8,0 km/h (2 Bft) 91,30 %
01.04.2023 09:46 7,2 C 7,2 C 6,1 C 5,6 C 78 % 9 cb 5 cb 1004,3 hPa 0,0 l/m 9,7 km/h (2 Bft) O 90 1 min 0,000 mm 1,2 UV-I 200 W/m 3,6 C 5,3 C 16,1 km/h (3 Bft) 91,30 %
01.04.2023 09:45 7,2 C 7,2 C 6,1 C 5,6 C 78 % 9 cb 5 cb 1004,5 hPa 0,0 l/m 12,9 km/h (3 Bft) O 90 1 min 0,000 mm 1,0 UV-I 167 W/m 3,6 C 4,8 C 16,1 km/h (3 Bft) 91,30 %
01.04.2023 09:44 7,2 C 7,2 C 6,1 C 5,6 C 79 % 9 cb 5 cb 1004,3 hPa 0,0 l/m 8,0 km/h (2 Bft) O-NO 67 1 min 0,000 mm 1,0 UV-I 171 W/m 3,8 C 5,7 C 12,9 km/h (3 Bft) 86,96 %
01.04.2023 09:43 7,1 C 7,2 C 6,1 C 5,6 C 79 % 9 cb 5 cb 1004,3 hPa 0,0 l/m 6,4 km/h (2 Bft) O-SO 112 0 min 0,000 mm 0,9 UV-I 123 W/m 3,7 C 6,0 C 9,7 km/h (2 Bft) 86,96 %
01.04.2023 09:42 7,1 C 7,2 C 6,1 C 5,6 C 80 % 9 cb 5 cb 1004,4 hPa 0,0 l/m 9,7 km/h (2 Bft) O-NO 67 0 min 0,000 mm 0,8 UV-I 123 W/m 3,9 C 5,2 C 11,3 km/h (2 Bft) 86,96 %
01.04.2023 09:41 6,9 C 7,2 C 6,1 C 5,6 C 80 % 9 cb 5 cb 1004,5 hPa 0,0 l/m 6,4 km/h (2 Bft) N-NO 22 0 min 0,000 mm 0,7 UV-I 111 W/m 3,7 C 5,8 C 9,7 km/h (2 Bft) 91,30 %
01.04.2023 09:40 6,9 C 7,2 C 6,1 C 5,6 C 81 % 9 cb 5 cb 1004,5 hPa 0,0 l/m 4,8 km/h (1 Bft) W-NW 292 0 min 0,000 mm 0,7 UV-I 125 W/m 3,9 C 6,3 C 9,7 km/h (2 Bft) 91,30 %
01.04.2023 09:39 6,9 C 6,7 C 6,1 C 5,6 C 80 % 9 cb 5 cb 1004,4 hPa 0,0 l/m 4,8 km/h (1 Bft) O-SO 112 0 min 0,000 mm 0,8 UV-I 135 W/m 3,7 C 6,3 C 8,0 km/h (2 Bft) 95,65 %
01.04.2023 09:38 6,9 C 6,7 C 6,1 C 5,6 C 79 % 9 cb 5 cb 1004,3 hPa 0,0 l/m 4,8 km/h (1 Bft) O 90 0 min 0,000 mm 0,8 UV-I 127 W/m 3,5 C 6,3 C 8,0 km/h (2 Bft) 91,30 %
01.04.2023 09:37 6,8 C 6,7 C 6,1 C 5,6 C 79 % 9 cb 5 cb 1004,5 hPa 0,0 l/m 4,8 km/h (1 Bft) N-NO 22 0 min 0,000 mm 0,7 UV-I 111 W/m 3,4 C 6,2 C 8,0 km/h (2 Bft) 95,65 %
01.04.2023 09:36 6,8 C 6,7 C 6,1 C 5,6 C 82 % 9 cb 5 cb 1004,5 hPa 0,0 l/m 4,8 km/h (1 Bft) W 270 0 min 0,000 mm 0,7 UV-I 134 W/m 3,9 C 6,2 C 8,0 km/h (2 Bft) 86,96 %
01.04.2023 09:35 6,8 C 6,7 C 6,1 C 5,6 C 81 % 9 cb 5 cb 1004,4 hPa 0,0 l/m 4,8 km/h (1 Bft) N-NW 337 1 min 0,000 mm 0,8 UV-I 156 W/m 3,8 C 6,2 C 8,0 km/h (2 Bft) 95,65 %
01.04.2023 09:34 6,7 C 6,7 C 6,1 C 5,6 C 81 % 9 cb 5 cb 1004,6 hPa 0,0 l/m 6,4 km/h (2 Bft) W 270 1 min 0,000 mm 0,9 UV-I 162 W/m 3,7 C 5,6 C 8,0 km/h (2 Bft) 86,96 %
01.04.2023 09:33 6,7 C 6,7 C 6,1 C 5,6 C 81 % 9 cb 5 cb 1004,5 hPa 0,0 l/m 3,2 km/h (1 Bft) O-NO 67 0 min 0,000 mm 0,9 UV-I 151 W/m 3,7 C 6,7 C 8,0 km/h (2 Bft) 95,65 %
01.04.2023 09:32 6,6 C 6,1 C 6,1 C 5,6 C 81 % 9 cb 5 cb 1004,5 hPa 0,0 l/m 4,8 km/h (1 Bft) N-NW 337 0 min 0,000 mm 0,9 UV-I 132 W/m 3,6 C 6,0 C 8,0 km/h (2 Bft) 91,30 %
01.04.2023 09:31 6,6 C 6,1 C 6,1 C 5,6 C 82 % 9 cb 5 cb 1004,5 hPa 0,0 l/m 4,8 km/h (1 Bft) W 270 0 min 0,000 mm 0,8 UV-I 109 W/m 3,8 C 6,0 C 11,3 km/h (2 Bft) 91,30 %
01.04.2023 09:30 6,6 C 6,1 C 6,1 C 5,6 C 81 % 9 cb 5 cb 1004,5 hPa 0,0 l/m 8,0 km/h (2 Bft) O-NO 67 0 min 0,000 mm 0,7 UV-I 104 W/m 3,6 C 5,0 C 12,9 km/h (3 Bft) 86,96 %
01.04.2023 09:29 6,6 C 6,1 C 6,1 C 5,6 C 81 % 10 cb 5 cb 1004,5 hPa 0,0 l/m 11,3 km/h (2 Bft) N-NO 22 0 min 0,000 mm 0,6 UV-I 100 W/m 3,6 C 4,3 C 14,5 km/h (3 Bft) 91,30 %
01.04.2023 09:28 6,6 C 6,1 C 6,1 C 5,6 C 80 % 10 cb 5 cb 1004,5 hPa 0,0 l/m 6,4 km/h (2 Bft) N-NO 22 0 min 0,000 mm 0,6 UV-I 98 W/m 3,4 C 5,4 C 12,9 km/h (3 Bft) 82,61 %
01.04.2023 09:27 6,6 C 6,1 C 6,1 C 5,6 C 80 % 10 cb 5 cb 1004,5 hPa 0,1 l/m 9,7 km/h (2 Bft) N 360 0 min 0,000 mm 0,6 UV-I 98 W/m 3,4 C 4,6 C 17,7 km/h (3 Bft) 95,65 %
01.04.2023 09:26 6,6 C 6,1 C 5,6 C 5,6 C 81 % 9 cb 5 cb 1004,5 hPa 0,0 l/m 12,9 km/h (3 Bft) N-NO 22 0 min 0,000 mm 0,5 UV-I 90 W/m 3,6 C 4,0 C 17,7 km/h (3 Bft) 91,30 %
01.04.2023 09:25 6,6 C 5,6 C 5,6 C 5,6 C 82 % 9 cb 5 cb 1004,6 hPa 0,0 l/m 11,3 km/h (2 Bft) N-NO 22 0 min 0,000 mm 0,6 UV-I 102 W/m 3,8 C 4,3 C 19,3 km/h (3 Bft) 91,30 %
01.04.2023 09:24 6,6 C 5,6 C 5,6 C 5,6 C 81 % 10 cb 5 cb 1004,5 hPa 0,0 l/m 9,7 km/h (2 Bft) O-NO 67 0 min 0,000 mm 0,6 UV-I 84 W/m 3,6 C 4,6 C 16,1 km/h (3 Bft) 91,30 %
01.04.2023 09:23 6,6 C 5,6 C 5,6 C 5,6 C 80 % 10 cb 5 cb 1004,5 hPa 0,0 l/m 11,3 km/h (2 Bft) N-NO 22 0 min 0,000 mm 0,5 UV-I 65 W/m 3,4 C 4,3 C 20,9 km/h (4 Bft) 91,30 %
01.04.2023 09:22 6,7 C 5,6 C 5,6 C 5,6 C 80 % 9 cb 5 cb 1004,5 hPa 0,0 l/m 17,7 km/h (3 Bft) NO 45 0 min 0,000 mm 0,0 UV-I 56 W/m 3,5 C 3,5 C 30,6 km/h (5 Bft) 86,96 %
01.04.2023 09:21 6,7 C 5,6 C 5,6 C 5,6 C 81 % 9 cb 5 cb 1004,4 hPa 0,1 l/m 12,9 km/h (3 Bft) W 270 0 min 0,000 mm 0,0 UV-I 53 W/m 3,7 C 4,2 C 19,3 km/h (3 Bft) 95,65 %
01.04.2023 09:20 6,9 C 6,1 C 5,6 C 5,6 C 80 % 9 cb 5 cb 1004,4 hPa 0,0 l/m 19,3 km/h (3 Bft) W 270 0 min 0,000 mm 0,0 UV-I 46 W/m 3,7 C 3,5 C 30,6 km/h (5 Bft) 86,96 %
01.04.2023 09:19 7,1 C 6,1 C 6,1 C 5,6 C 78 % 10 cb 5 cb 1004,4 hPa 0,0 l/m 14,5 km/h (3 Bft) W 270 0 min 0,000 mm 0,0 UV-I 42 W/m 3,5 C 4,4 C 20,9 km/h (4 Bft) 91,30 %
01.04.2023 09:18 7,2 C 6,1 C 6,1 C 5,6 C 78 % 9 cb 5 cb 1004,3 hPa 0,0 l/m 9,7 km/h (2 Bft) W 270 0 min 0,000 mm 0,0 UV-I 39 W/m 3,6 C 5,3 C 14,5 km/h (3 Bft) 86,96 %
01.04.2023 09:17 7,3 C 6,1 C 6,1 C 5,6 C 77 % 9 cb 5 cb 1004,3 hPa 0,0 l/m 8,0 km/h (2 Bft) W-NW 292 0 min 0,000 mm 0,0 UV-I 44 W/m 3,5 C 5,8 C 12,9 km/h (3 Bft) 95,65 %
01.04.2023 09:16 7,4 C 6,7 C 6,1 C 5,6 C 76 % 9 cb 5 cb 1004,3 hPa 0,0 l/m 12,9 km/h (3 Bft) W 270 0 min 0,000 mm 0,0 UV-I 47 W/m 3,5 C 5,0 C 22,5 km/h (4 Bft) 91,30 %
01.04.2023 09:15 7,4 C 6,7 C 6,1 C 5,6 C 76 % 9 cb 5 cb 1004,3 hPa 0,0 l/m 12,9 km/h (3 Bft) NW 315 0 min 0,000 mm 0,0 UV-I 49 W/m 3,5 C 5,0 C 17,7 km/h (3 Bft) 82,61 %
01.04.2023 09:14 7,4 C 6,7 C 6,1 C 5,6 C 77 % 9 cb 5 cb 1004,2 hPa 0,0 l/m 8,0 km/h (2 Bft) N-NW 337 0 min 0,000 mm 0,0 UV-I 54 W/m 3,6 C 6,0 C 12,9 km/h (3 Bft) 86,96 %
01.04.2023 09:13 7,4 C 7,2 C 6,1 C 5,6 C 78 % 9 cb 5 cb 1004,1 hPa 0,0 l/m 9,7 km/h (2 Bft) O-NO 67 0 min 0,000 mm 0,0 UV-I 72 W/m 3,8 C 5,6 C 12,9 km/h (3 Bft) 91,30 %
01.04.2023 09:12 7,4 C 7,2 C 6,1 C 5,6 C 78 % 9 cb 5 cb 1004,1 hPa 0,0 l/m 8,0 km/h (2 Bft) O-SO 112 0 min 0,000 mm 0,6 UV-I 121 W/m 3,8 C 6,0 C 14,5 km/h (3 Bft) 86,96 %
01.04.2023 09:11 7,3 C 7,2 C 6,1 C 5,6 C 77 % 9 cb 5 cb 1004,2 hPa 0,0 l/m 6,4 km/h (2 Bft) O 90 0 min 0,000 mm 0,6 UV-I 125 W/m 3,5 C 6,3 C 11,3 km/h (2 Bft) 86,96 %
01.04.2023 09:10 7,3 C 6,7 C 6,1 C 5,6 C 79 % 9 cb 5 cb 1004,3 hPa 0,0 l/m 6,4 km/h (2 Bft) NO 45 0 min 0,000 mm 0,6 UV-I 125 W/m 3,9 C 6,3 C 9,7 km/h (2 Bft) 95,65 %
01.04.2023 09:09 7,3 C 6,7 C 6,1 C 5,6 C 78 % 9 cb 5 cb 1004,2 hPa 0,0 l/m 4,8 km/h (1 Bft) O-NO 67 0 min 0,000 mm 0,6 UV-I 97 W/m 3,7 C 6,8 C 8,0 km/h (2 Bft) 91,30 %
01.04.2023 09:08 7,3 C 6,7 C 6,1 C 5,6 C 78 % 9 cb 5 cb 1004,2 hPa 0,0 l/m 4,8 km/h (1 Bft) W 270 0 min 0,000 mm 0,6 UV-I 105 W/m 3,7 C 6,8 C 9,7 km/h (2 Bft) 91,30 %
01.04.2023 09:07 7,3 C 6,7 C 6,1 C 5,6 C 77 % 9 cb 5 cb 1004,2 hPa 0,0 l/m 4,8 km/h (1 Bft) W-NW 292 0 min 0,000 mm 0,6 UV-I 105 W/m 3,5 C 6,8 C 8,0 km/h (2 Bft) 86,96 %
01.04.2023 09:06 7,3 C 6,7 C 6,1 C 5,6 C 77 % 10 cb 5 cb 1004,1 hPa 0,0 l/m 6,4 km/h (2 Bft) W-SW 247 0 min 0,000 mm 0,6 UV-I 107 W/m 3,5 C 6,3 C 11,3 km/h (2 Bft) 91,30 %
01.04.2023 09:05 7,3 C 6,1 C 6,1 C 5,6 C 76 % 10 cb 5 cb 1004,2 hPa 0,0 l/m 9,7 km/h (2 Bft) W 270 0 min 0,000 mm 0,6 UV-I 93 W/m 3,4 C 5,5 C 17,7 km/h (3 Bft) 91,30 %
01.04.2023 09:04 7,3 C 6,1 C 6,1 C 5,6 C 77 % 10 cb 5 cb 1004,2 hPa 0,0 l/m 12,9 km/h (3 Bft) W 270 0 min 0,000 mm 0,6 UV-I 81 W/m 3,5 C 4,9 C 20,9 km/h (4 Bft) 95,65 %
01.04.2023 09:03 7,3 C 6,7 C 6,1 C 5,6 C 77 % 10 cb 5 cb 1004,2 hPa 0,0 l/m 11,3 km/h (2 Bft) W 270 0 min 0,000 mm 0,5 UV-I 72 W/m 3,5 C 5,2 C 19,3 km/h (3 Bft) 86,96 %
01.04.2023 09:02 7,3 C 6,7 C 6,1 C 5,6 C 76 % 10 cb 5 cb 1004,2 hPa 0,0 l/m 4,8 km/h (1 Bft) W-NW 292 0 min 0,000 mm 0,5 UV-I 70 W/m 3,4 C 6,8 C 8,0 km/h (2 Bft) 91,30 %
01.04.2023 09:01 7,4 C 6,7 C 6,1 C 5,6 C 76 % 10 cb 5 cb 1004,2 hPa 0,0 l/m 8,0 km/h (2 Bft) NW 315 0 min 0,000 mm 0,0 UV-I 67 W/m 3,5 C 6,0 C 11,3 km/h (2 Bft) 86,96 %
01.04.2023 09:00 7,4 C 6,7 C 6,1 C 5,6 C 76 % 10 cb 5 cb 1004,1 hPa 0,0 l/m 9,7 km/h (2 Bft) NW 315 0 min 0,051 mm 0,0 UV-I 60 W/m 3,5 C 5,6 C 16,1 km/h (3 Bft) 91,30 %
01.04.2023 08:59 7,4 C 6,7 C 6,1 C 5,6 C 76 % 10 cb 5 cb 1004,2 hPa 0,0 l/m 9,7 km/h (2 Bft) N-NW 337 0 min 0,000 mm 0,0 UV-I 76 W/m 3,5 C 5,6 C 22,5 km/h (4 Bft) 91,30 %
01.04.2023 08:58 7,4 C 6,7 C 6,1 C 5,6 C 76 % 10 cb 5 cb 1004,2 hPa 0,0 l/m 9,7 km/h (2 Bft) N-NW 337 0 min 0,000 mm 0,5 UV-I 100 W/m 3,5 C 5,6 C 17,7 km/h (3 Bft) 91,30 %
01.04.2023 08:57 7,4 C 6,7 C 6,1 C 5,6 C 76 % 10 cb 5 cb 1004,1 hPa 0,0 l/m 4,8 km/h (1 Bft) W-NW 292 0 min 0,000 mm 0,5 UV-I 105 W/m 3,5 C 6,9 C 19,3 km/h (3 Bft) 82,61 %
01.04.2023 08:56 7,3 C 6,7 C 6,1 C 5,6 C 76 % 10 cb 5 cb 1004,1 hPa 0,0 l/m 19,3 km/h (3 Bft) NO 45 0 min 0,000 mm 0,5 UV-I 111 W/m 3,4 C 4,0 C 25,7 km/h (4 Bft) 95,65 %
01.04.2023 08:55 7,4 C 6,7 C 6,1 C 5,6 C 77 % 10 cb 5 cb 1004,1 hPa 0,0 l/m 8,0 km/h (2 Bft) N-NO 22 0 min 0,000 mm 0,5 UV-I 107 W/m 3,6 C 6,0 C 9,7 km/h (2 Bft) 91,30 %
01.04.2023 08:54 7,3 C 6,7 C 6,1 C 5,6 C 75 % 10 cb 5 cb 1004,1 hPa 0,0 l/m 4,8 km/h (1 Bft) N 360 0 min 0,000 mm 0,5 UV-I 98 W/m 3,2 C 6,8 C 8,0 km/h (2 Bft) 95,65 %
01.04.2023 08:53 7,3 C 6,7 C 6,1 C 5,6 C 76 % 10 cb 5 cb 1004,2 hPa 0,0 l/m 8,0 km/h (2 Bft) W-NW 292 0 min 0,000 mm 0,5 UV-I 100 W/m 3,4 C 5,8 C 11,3 km/h (2 Bft) 91,30 %
01.04.2023 08:52 7,4 C 6,7 C 6,1 C 5,6 C 76 % 10 cb 5 cb 1004,1 hPa 0,0 l/m 4,8 km/h (1 Bft) O-NO 67 0 min 0,000 mm 0,0 UV-I 77 W/m 3,5 C 6,9 C 8,0 km/h (2 Bft) 91,30 %
01.04.2023 08:51 7,3 C 6,7 C 6,1 C 5,6 C 76 % 10 cb 5 cb 1004,1 hPa 0,0 l/m 9,7 km/h (2 Bft) N 360 0 min 0,000 mm 0,0 UV-I 77 W/m 3,4 C 5,5 C 16,1 km/h (3 Bft) 86,96 %
01.04.2023 08:50 7,4 C 6,7 C 6,1 C 5,6 C 78 % 10 cb 5 cb 1004,1 hPa 0,0 l/m 16,1 km/h (3 Bft) N-NO 22 0 min 0,000 mm 0,0 UV-I 77 W/m 3,8 C 4,6 C 20,9 km/h (4 Bft) 95,65 %
01.04.2023 08:49 7,3 C 6,7 C 6,1 C 5,6 C 76 % 10 cb 5 cb 1004,1 hPa 0,0 l/m 9,7 km/h (2 Bft) N-NO 22 0 min 0,000 mm 0,0 UV-I 90 W/m 3,4 C 5,5 C 11,3 km/h (2 Bft) 91,30 %
01.04.2023 08:48 7,3 C 6,7 C 6,1 C 5,6 C 76 % 10 cb 5 cb 1004,1 hPa 0,0 l/m 4,8 km/h (1 Bft) N-NO 22 0 min 0,000 mm 0,0 UV-I 100 W/m 3,4 C 6,8 C 9,7 km/h (2 Bft) 91,30 %
01.04.2023 08:47 7,3 C 6,7 C 6,1 C 5,6 C 77 % 10 cb 5 cb 1004,1 hPa 0,0 l/m 8,0 km/h (2 Bft) NO 45 0 min 0,000 mm 0,5 UV-I 123 W/m 3,5 C 5,8 C 19,3 km/h (3 Bft) 91,30 %
01.04.2023 08:46 7,3 C 6,7 C 6,1 C 5,6 C 77 % 10 cb 5 cb 1004,0 hPa 0,0 l/m 3,2 km/h (1 Bft) SO 135 0 min 0,000 mm 0,6 UV-I 128 W/m 3,5 C 7,3 C 6,4 km/h (2 Bft) 82,61 %
01.04.2023 08:45 7,2 C 6,7 C 6,1 C 5,6 C 77 % 10 cb 5 cb 1004,2 hPa 0,0 l/m 4,8 km/h (1 Bft) O 90 0 min 0,000 mm 0,5 UV-I 125 W/m 3,4 C 6,7 C 6,4 km/h (2 Bft) 91,30 %
01.04.2023 08:44 7,2 C 6,1 C 6,1 C 5,6 C 77 % 10 cb 5 cb 1004,1 hPa 0,0 l/m 3,2 km/h (1 Bft) O-SO 112 0 min 0,000 mm 0,5 UV-I 113 W/m 3,4 C 7,2 C 6,4 km/h (2 Bft) 91,30 %
01.04.2023 08:43 7,2 C 6,1 C 5,6 C 5,6 C 76 % 10 cb 5 cb 1004,2 hPa 0,0 l/m 6,4 km/h (2 Bft) W 270 0 min 0,000 mm 0,5 UV-I 113 W/m 3,3 C 6,1 C 12,9 km/h (3 Bft) 91,30 %
01.04.2023 08:42 7,2 C 6,1 C 5,6 C 5,6 C 77 % 10 cb 5 cb 1004,2 hPa 0,0 l/m 12,9 km/h (3 Bft) NW 315 0 min 0,000 mm 0,5 UV-I 95 W/m 3,4 C 4,8 C 17,7 km/h (3 Bft) 95,65 %
01.04.2023 08:41 7,3 C 6,1 C 5,6 C 5,6 C 78 % 10 cb 5 cb 1004,1 hPa 0,0 l/m 20,9 km/h (4 Bft) NW 315 0 min 0,000 mm 0,0 UV-I 95 W/m 3,7 C 3,9 C 29,0 km/h (5 Bft) 86,96 %
01.04.2023 08:40 7,2 C 6,1 C 5,6 C 5,6 C 77 % 10 cb 5 cb 1004,1 hPa 0,0 l/m 16,1 km/h (3 Bft) N-NW 337 0 min 0,000 mm 0,0 UV-I 84 W/m 3,4 C 4,3 C 20,9 km/h (4 Bft) 86,96 %
01.04.2023 08:39 7,2 C 6,1 C 5,6 C 5,6 C 77 % 10 cb 5 cb 1004,1 hPa 0,0 l/m 8,0 km/h (2 Bft) O-NO 67 0 min 0,000 mm 0,0 UV-I 90 W/m 3,4 C 5,7 C 14,5 km/h (3 Bft) 86,96 %
01.04.2023 08:38 7,2 C 6,1 C 5,6 C 5,6 C 78 % 10 cb 5 cb 1004,0 hPa 0,0 l/m 8,0 km/h (2 Bft) N 360 0 min 0,000 mm 0,0 UV-I 100 W/m 3,6 C 5,7 C 20,9 km/h (4 Bft) 95,65 %
01.04.2023 08:37 7,2 C 6,1 C 5,6 C 5,6 C 78 % 10 cb 5 cb 1004,1 hPa 0,0 l/m 12,9 km/h (3 Bft) NO 45 0 min 0,000 mm 0,0 UV-I 105 W/m 3,6 C 4,8 C 20,9 km/h (4 Bft) 86,96 %
01.04.2023 08:36 7,2 C 6,1 C 5,6 C 5,6 C 77 % 10 cb 5 cb 1003,9 hPa 0,0 l/m 8,0 km/h (2 Bft) NO 45 0 min 0,000 mm 0,0 UV-I 93 W/m 3,4 C 5,7 C 11,3 km/h (2 Bft) 91,30 %
01.04.2023 08:35 7,2 C 6,1 C 5,6 C 5,6 C 78 % 10 cb 5 cb 1004,1 hPa 0,0 l/m 6,4 km/h (2 Bft) O 90 0 min 0,000 mm 0,0 UV-I 84 W/m 3,6 C 6,1 C 9,7 km/h (2 Bft) 78,26 %
01.04.2023 08:34 7,2 C 6,1 C 5,6 C 5,6 C 78 % 10 cb 5 cb 1004,1 hPa 0,0 l/m 3,2 km/h (1 Bft) O-SO 112 0 min 0,000 mm 0,0 UV-I 72 W/m 3,6 C 7,2 C 4,8 km/h (1 Bft) 91,30 %
01.04.2023 08:33 7,2 C 6,1 C 5,6 C 5,6 C 77 % 10 cb 5 cb 1004,1 hPa 0,0 l/m 1,6 km/h (1 Bft) W-NW 292 0 min 0,000 mm 0,0 UV-I 76 W/m 3,4 C 7,2 C 3,2 km/h (1 Bft) 86,96 %
01.04.2023 08:32 7,2 C 6,1 C 5,6 C 5,6 C 77 % 10 cb 5 cb 1004,1 hPa 0,0 l/m 4,8 km/h (1 Bft) N-NW 337 0 min 0,000 mm 0,0 UV-I 72 W/m 3,4 C 6,7 C 6,4 km/h (2 Bft) 91,30 %
01.04.2023 08:31 7,2 C 6,1 C 5,6 C 5,6 C 77 % 10 cb 5 cb 1004,1 hPa 0,0 l/m 6,4 km/h (2 Bft) N-NO 22 0 min 0,000 mm 0,0 UV-I 76 W/m 3,4 C 6,1 C 9,7 km/h (2 Bft) 91,30 %
01.04.2023 08:30 7,2 C 6,1 C 5,6 C 5,6 C 78 % 10 cb 5 cb 1004,1 hPa 0,0 l/m 8,0 km/h (2 Bft) N-NO 22 0 min 0,000 mm 0,0 UV-I 74 W/m 3,6 C 5,7 C 11,3 km/h (2 Bft) 91,30 %
01.04.2023 08:29 7,2 C 6,1 C 5,6 C 5,6 C 77 % 10 cb 5 cb 1004,1 hPa 0,0 l/m 11,3 km/h (2 Bft) O 90 0 min 0,000 mm 0,0 UV-I 79 W/m 3,4 C 5,0 C 16,1 km/h (3 Bft) 86,96 %
01.04.2023 08:28 7,2 C 6,1 C 5,6 C 5,6 C 76 % 10 cb 5 cb 1004,1 hPa 0,0 l/m 9,7 km/h (2 Bft) NO 45 0 min 0,000 mm 0,0 UV-I 84 W/m 3,3 C 5,3 C 12,9 km/h (3 Bft) 91,30 %
01.04.2023 08:27 7,2 C 6,1 C 5,6 C 5,6 C 77 % 10 cb 5 cb 1004,1 hPa 0,0 l/m 9,7 km/h (2 Bft) NO 45 0 min 0,000 mm 0,5 UV-I 72 W/m 3,4 C 5,3 C 17,7 km/h (3 Bft) 82,61 %
01.04.2023 08:26 7,2 C 6,1 C 5,6 C 5,6 C 78 % 10 cb 5 cb 1004,1 hPa 0,0 l/m 8,0 km/h (2 Bft) NO 45 0 min 0,000 mm 0,0 UV-I 69 W/m 3,6 C 5,7 C 17,7 km/h (3 Bft) 82,61 %
01.04.2023 08:25 7,2 C 6,1 C 5,6 C 5,6 C 76 % 10 cb 5 cb 1004,0 hPa 0,0 l/m 9,7 km/h (2 Bft) W 270 0 min 0,000 mm 0,0 UV-I 69 W/m 3,3 C 5,3 C 14,5 km/h (3 Bft) 86,96 %
01.04.2023 08:24 7,1 C 6,1 C 5,6 C 5,6 C 78 % 10 cb 5 cb 1004,2 hPa 0,0 l/m 11,3 km/h (2 Bft) N-NW 337 0 min 0,000 mm 0,0 UV-I 67 W/m 3,5 C 4,9 C 24,1 km/h (4 Bft) 82,61 %
01.04.2023 08:23 7,1 C 6,1 C 5,6 C 5,6 C 79 % 10 cb 5 cb 1004,1 hPa 0,0 l/m 12,9 km/h (3 Bft) W-NW 292 0 min 0,000 mm 0,0 UV-I 70 W/m 3,7 C 4,7 C 17,7 km/h (3 Bft) 91,30 %
01.04.2023 08:22 7,1 C 6,1 C 5,6 C 5,6 C 79 % 10 cb 5 cb 1004,0 hPa 0,0 l/m 8,0 km/h (2 Bft) N-NO 22 0 min 0,000 mm 0,0 UV-I 76 W/m 3,7 C 5,6 C 12,9 km/h (3 Bft) 86,96 %
01.04.2023 08:21 7,1 C 6,1 C 5,6 C 5,6 C 78 % 10 cb 5 cb 1004,0 hPa 0,0 l/m 11,3 km/h (2 Bft) N 360 0 min 0,000 mm 0,0 UV-I 88 W/m 3,5 C 4,9 C 14,5 km/h (3 Bft) 91,30 %
01.04.2023 08:20 7,1 C 6,1 C 5,6 C 5,6 C 79 % 10 cb 5 cb 1004,0 hPa 0,0 l/m 8,0 km/h (2 Bft) N-NW 337 0 min 0,000 mm 0,0 UV-I 97 W/m 3,7 C 5,6 C 11,3 km/h (2 Bft) 91,30 %
01.04.2023 08:19 7,1 C 6,1 C 5,6 C 5,6 C 79 % 10 cb 5 cb 1004,0 hPa 0,0 l/m 9,7 km/h (2 Bft) NO 45 0 min 0,000 mm 0,0 UV-I 104 W/m 3,7 C 5,2 C 14,5 km/h (3 Bft) 86,96 %
01.04.2023 08:18 7,1 C 6,1 C 5,6 C 5,6 C 79 % 10 cb 5 cb 1004,0 hPa 0,0 l/m 12,9 km/h (3 Bft) O-NO 67 0 min 0,000 mm 0,0 UV-I 102 W/m 3,7 C 4,7 C 20,9 km/h (4 Bft) 82,61 %
01.04.2023 08:17 7,1 C 6,1 C 5,6 C 5,6 C 79 % 10 cb 5 cb 1003,9 hPa 0,0 l/m 12,9 km/h (3 Bft) N-NO 22 0 min 0,000 mm 0,0 UV-I 102 W/m 3,7 C 4,7 C 20,9 km/h (4 Bft) 86,96 %
01.04.2023 08:16 7,0 C 6,1 C 5,6 C 5,6 C 79 % 10 cb 5 cb 1004,0 hPa 0,0 l/m 16,1 km/h (3 Bft) N-NO 22 0 min 0,000 mm 0,0 UV-I 93 W/m 3,6 C 4,1 C 20,9 km/h (4 Bft) 95,65 %
01.04.2023 08:15 7,0 C 6,1 C 5,6 C 5,6 C 80 % 10 cb 5 cb 1003,9 hPa 0,0 l/m 19,3 km/h (3 Bft) NO 45 0 min 0,000 mm 0,0 UV-I 91 W/m 3,8 C 3,7 C 25,7 km/h (4 Bft) 86,96 %
01.04.2023 08:14 6,9 C 6,1 C 5,6 C 5,6 C 80 % 10 cb 5 cb 1004,0 hPa 0,0 l/m 17,7 km/h (3 Bft) NO 45 0 min 0,000 mm 0,0 UV-I 81 W/m 3,7 C 3,7 C 25,7 km/h (4 Bft) 91,30 %
01.04.2023 08:13 6,9 C 6,1 C 5,6 C 5,6 C 79 % 10 cb 5 cb 1004,0 hPa 0,0 l/m 22,5 km/h (4 Bft) NO 45 0 min 0,000 mm 0,0 UV-I 77 W/m 3,5 C 3,2 C 29,0 km/h (5 Bft) 78,26 %
01.04.2023 08:12 6,9 C 6,1 C 5,6 C 5,6 C 81 % 10 cb 5 cb 1004,0 hPa 0,0 l/m 24,1 km/h (4 Bft) N-NO 22 0 min 0,000 mm 0,0 UV-I 84 W/m 3,9 C 3,0 C 30,6 km/h (5 Bft) 91,30 %
01.04.2023 08:11 6,9 C 6,1 C 5,6 C 5,6 C 79 % 10 cb 5 cb 1004,0 hPa 0,0 l/m 20,9 km/h (4 Bft) N-NO 22 0 min 0,000 mm 0,0 UV-I 90 W/m 3,5 C 3,4 C 30,6 km/h (5 Bft) 86,96 %
01.04.2023 08:10 6,8 C 6,1 C 5,6 C 5,6 C 80 % 10 cb 5 cb 1004,1 hPa 0,0 l/m 12,9 km/h (3 Bft) N-NO 22 0 min 0,000 mm 0,0 UV-I 90 W/m 3,6 C 4,3 C 22,5 km/h (4 Bft) 91,30 %
01.04.2023 08:09 6,8 C 5,6 C 5,6 C 5,6 C 80 % 10 cb 5 cb 1004,1 hPa 0,0 l/m 17,7 km/h (3 Bft) NW 315 0 min 0,000 mm 0,0 UV-I 77 W/m 3,6 C 3,6 C 25,7 km/h (4 Bft) 82,61 %
01.04.2023 08:08 6,7 C 5,6 C 5,6 C 5,6 C 82 % 10 cb 5 cb 1004,1 hPa 0,0 l/m 16,1 km/h (3 Bft) NW 315 0 min 0,000 mm 0,0 UV-I 74 W/m 3,8 C 3,7 C 27,4 km/h (4 Bft) 86,96 %
01.04.2023 08:07 6,7 C 5,6 C 5,6 C 5,6 C 82 % 10 cb 5 cb 1004,1 hPa 0,0 l/m 8,0 km/h (2 Bft) N-NO 22 0 min 0,000 mm 0,0 UV-I 70 W/m 3,8 C 5,1 C 14,5 km/h (3 Bft) 86,96 %
01.04.2023 08:06 6,7 C 5,6 C 5,6 C 5,6 C 83 % 10 cb 5 cb 1004,0 hPa 0,0 l/m 9,7 km/h (2 Bft) NW 315 0 min 0,000 mm 0,0 UV-I 70 W/m 4,0 C 4,8 C 14,5 km/h (3 Bft) 91,30 %
01.04.2023 08:05 6,7 C 5,6 C 5,6 C 5,6 C 81 % 10 cb 5 cb 1004,0 hPa 0,0 l/m 12,9 km/h (3 Bft) W-NW 292 0 min 0,000 mm 0,0 UV-I 81 W/m 3,7 C 4,2 C 17,7 km/h (3 Bft) 91,30 %
01.04.2023 08:04 6,7 C 5,6 C 5,6 C 5,6 C 80 % 10 cb 5 cb 1004,0 hPa 0,0 l/m 11,3 km/h (2 Bft) N-NO 22 0 min 0,000 mm 0,0 UV-I 93 W/m 3,5 C 4,4 C 20,9 km/h (4 Bft) 91,30 %
01.04.2023 08:03 6,6 C 5,6 C 5,6 C 5,6 C 82 % 10 cb 5 cb 1003,9 hPa 0,0 l/m 12,9 km/h (3 Bft) O-NO 67 0 min 0,000 mm 0,0 UV-I 90 W/m 3,8 C 4,0 C 16,1 km/h (3 Bft) 91,30 %
01.04.2023 08:02 6,6 C 5,6 C 5,6 C 5,6 C 82 % 10 cb 5 cb 1004,0 hPa 0,0 l/m 12,9 km/h (3 Bft) NO 45 0 min 0,000 mm 0,0 UV-I 88 W/m 3,8 C 4,0 C 16,1 km/h (3 Bft) 86,96 %
01.04.2023 08:01 6,6 C 5,6 C 5,6 C 5,6 C 82 % 10 cb 5 cb 1004,1 hPa 0,0 l/m 6,4 km/h (2 Bft) NW 315 0 min 0,000 mm 0,0 UV-I 81 W/m 3,8 C 5,4 C 12,9 km/h (3 Bft) 95,65 %
01.04.2023 08:00 6,6 C 5,6 C 5,6 C 5,6 C 82 % 10 cb 5 cb 1004,0 hPa 0,0 l/m 12,9 km/h (3 Bft) N 360 0 min 0,025 mm 0,0 UV-I 83 W/m 3,8 C 4,0 C 16,1 km/h (3 Bft) 86,96 %
01.04.2023 07:59 6,5 C 5,6 C 5,6 C 5,6 C 82 % 10 cb 5 cb 1004,0 hPa 0,0 l/m 17,7 km/h (3 Bft) N 360 0 min 0,000 mm 0,0 UV-I 83 W/m 3,7 C 3,2 C 24,1 km/h (4 Bft) 95,65 %
01.04.2023 07:58 6,5 C 5,6 C 5,6 C 5,6 C 82 % 10 cb 5 cb 1004,0 hPa 0,0 l/m 16,1 km/h (3 Bft) N 360 0 min 0,000 mm 0,0 UV-I 79 W/m 3,7 C 3,4 C 25,7 km/h (4 Bft) 86,96 %
01.04.2023 07:57 6,4 C 5,6 C 5,6 C 5,6 C 82 % 10 cb 5 cb 1004,0 hPa 0,0 l/m 14,5 km/h (3 Bft) N 360 0 min 0,000 mm 0,0 UV-I 70 W/m 3,6 C 3,5 C 22,5 km/h (4 Bft) 95,65 %
01.04.2023 07:56 6,4 C 5,6 C 5,6 C 5,6 C 82 % 10 cb 5 cb 1004,1 hPa 0,0 l/m 6,4 km/h (2 Bft) W 270 0 min 0,000 mm 0,0 UV-I 72 W/m 3,6 C 5,2 C 14,5 km/h (3 Bft) 86,96 %
01.04.2023 07:55 6,6 C 5,6 C 5,6 C 5,6 C 81 % 10 cb 5 cb 1004,1 hPa 0,0 l/m 11,3 km/h (2 Bft) NW 315 0 min 0,000 mm 0,0 UV-I 74 W/m 3,6 C 4,3 C 33,8 km/h (5 Bft) 91,30 %
01.04.2023 07:54 6,5 C 5,0 C 5,6 C 5,6 C 82 % 10 cb 5 cb 1003,9 hPa 0,0 l/m 16,1 km/h (3 Bft) N-NO 22 0 min 0,000 mm 0,0 UV-I 63 W/m 3,7 C 3,4 C 22,5 km/h (4 Bft) 91,30 %
01.04.2023 07:53 6,5 C 5,0 C 5,6 C 5,6 C 81 % 10 cb 5 cb 1004,0 hPa 0,0 l/m 20,9 km/h (4 Bft) N-NO 22 0 min 0,000 mm 0,0 UV-I 67 W/m 3,5 C 2,9 C 33,8 km/h (5 Bft) 91,30 %
01.04.2023 07:52 6,4 C 5,0 C 5,6 C 5,6 C 82 % 10 cb 5 cb 1004,0 hPa 0,0 l/m 14,5 km/h (3 Bft) NO 45 0 min 0,000 mm 0,0 UV-I 60 W/m 3,6 C 3,5 C 19,3 km/h (3 Bft) 86,96 %
01.04.2023 07:51 6,4 C 5,0 C 5,6 C 5,6 C 81 % 10 cb 5 cb 1004,0 hPa 0,0 l/m 12,9 km/h (3 Bft) N-NO 22 0 min 0,000 mm 0,0 UV-I 67 W/m 3,4 C 3,8 C 17,7 km/h (3 Bft) 91,30 %
01.04.2023 07:50 6,3 C 5,0 C 5,6 C 5,6 C 81 % 10 cb 5 cb 1004,0 hPa 0,0 l/m 9,7 km/h (2 Bft) W-NW 292 0 min 0,000 mm 0,0 UV-I 67 W/m 3,3 C 4,3 C 16,1 km/h (3 Bft) 86,96 %
01.04.2023 07:49 6,3 C 5,0 C 5,6 C 5,6 C 82 % 10 cb 5 cb 1004,0 hPa 0,0 l/m 4,8 km/h (1 Bft) N 360 0 min 0,000 mm 0,0 UV-I 53 W/m 3,5 C 5,6 C 16,1 km/h (3 Bft) 95,65 %
01.04.2023 07:48 6,2 C 5,0 C 5,0 C 5,6 C 83 % 10 cb 5 cb 1004,1 hPa 0,0 l/m 11,3 km/h (2 Bft) N 360 0 min 0,000 mm 0,0 UV-I 51 W/m 3,5 C 3,8 C 16,1 km/h (3 Bft) 91,30 %
01.04.2023 07:47 6,1 C 5,0 C 5,0 C 5,6 C 83 % 10 cb 5 cb 1004,0 hPa 0,0 l/m 12,9 km/h (3 Bft) NO 45 0 min 0,000 mm 0,0 UV-I 47 W/m 3,4 C 3,4 C 19,3 km/h (3 Bft) 95,65 %
01.04.2023 07:46 6,1 C 5,0 C 5,0 C 5,6 C 84 % 10 cb 5 cb 1004,0 hPa 0,0 l/m 12,9 km/h (3 Bft) N-NO 22 0 min 0,000 mm 0,0 UV-I 42 W/m 3,6 C 3,4 C 22,5 km/h (4 Bft) 86,96 %
01.04.2023 07:45 6,0 C 5,0 C 5,0 C 5,6 C 83 % 10 cb 5 cb 1003,9 hPa 0,0 l/m 17,7 km/h (3 Bft) NO 45 0 min 0,000 mm 0,0 UV-I 42 W/m 3,3 C 2,6 C 27,4 km/h (4 Bft) 86,96 %
01.04.2023 07:44 6,1 C 5,0 C 5,0 C 5,6 C 84 % 10 cb 5 cb 1004,1 hPa 0,0 l/m 12,9 km/h (3 Bft) N-NO 22 0 min 0,000 mm 0,0 UV-I 39 W/m 3,6 C 3,4 C 16,1 km/h (3 Bft) 86,96 %
01.04.2023 07:43 6,1 C 5,0 C 5,0 C 5,6 C 83 % 10 cb 5 cb 1004,0 hPa 0,0 l/m 11,3 km/h (2 Bft) N 360 0 min 0,000 mm 0,0 UV-I 30 W/m 3,4 C 3,7 C 16,1 km/h (3 Bft) 95,65 %
01.04.2023 07:42 6,0 C 5,0 C 5,0 C 5,6 C 83 % 10 cb 5 cb 1003,9 hPa 0,0 l/m 8,0 km/h (2 Bft) N 360 0 min 0,000 mm 0,0 UV-I 28 W/m 3,3 C 4,3 C 16,1 km/h (3 Bft) 86,96 %
01.04.2023 07:41 6,0 C 4,4 C 5,0 C 5,6 C 83 % 10 cb 5 cb 1004,0 hPa 0,0 l/m 11,3 km/h (2 Bft) NO 45 0 min 0,000 mm 0,0 UV-I 23 W/m 3,3 C 3,6 C 16,1 km/h (3 Bft) 91,30 %
01.04.2023 07:40 5,9 C 4,4 C 5,0 C 5,6 C 83 % 10 cb 5 cb 1004,2 hPa 0,0 l/m 11,3 km/h (2 Bft) N-NO 22 0 min 0,000 mm 0,0 UV-I 23 W/m 3,2 C 3,5 C 16,1 km/h (3 Bft) 82,61 %
01.04.2023 07:39 5,9 C 4,4 C 5,0 C 5,6 C 83 % 10 cb 5 cb 1004,1 hPa 0,0 l/m 9,7 km/h (2 Bft) N 360 0 min 0,000 mm 0,0 UV-I 21 W/m 3,2 C 3,8 C 14,5 km/h (3 Bft) 95,65 %
01.04.2023 07:38 5,8 C 5,0 C 5,0 C 5,6 C 84 % 10 cb 5 cb 1004,2 hPa 0,0 l/m 9,7 km/h (2 Bft) N 360 0 min 0,000 mm 0,0 UV-I 23 W/m 3,3 C 3,7 C 19,3 km/h (3 Bft) 91,30 %
01.04.2023 07:37 5,8 C 5,0 C 5,0 C 5,6 C 85 % 10 cb 5 cb 1004,2 hPa 0,0 l/m 11,3 km/h (2 Bft) N 360 0 min 0,000 mm 0,0 UV-I 26 W/m 3,5 C 3,4 C 17,7 km/h (3 Bft) 95,65 %
01.04.2023 07:36 5,9 C 5,0 C 5,0 C 5,6 C 84 % 10 cb 5 cb 1004,2 hPa 0,0 l/m 8,0 km/h (2 Bft) N-NO 22 0 min 0,000 mm 0,0 UV-I 28 W/m 3,4 C 4,2 C 12,9 km/h (3 Bft) 91,30 %
01.04.2023 07:35 5,9 C 5,0 C 5,0 C 5,6 C 83 % 10 cb 5 cb 1004,2 hPa 0,0 l/m 12,9 km/h (3 Bft) NO 45 0 min 0,000 mm 0,0 UV-I 26 W/m 3,2 C 3,2 C 20,9 km/h (4 Bft) 91,30 %
01.04.2023 07:34 5,9 C 5,0 C 5,6 C 5,6 C 83 % 10 cb 5 cb 1004,1 hPa 0,0 l/m 19,3 km/h (3 Bft) NO 45 0 min 0,000 mm 0,0 UV-I 25 W/m 3,2 C 2,3 C 20,9 km/h (4 Bft) 86,96 %
01.04.2023 07:33 5,9 C 5,0 C 5,6 C 5,6 C 83 % 10 cb 5 cb 1004,1 hPa 0,0 l/m 11,3 km/h (2 Bft) N-NO 22 0 min 0,000 mm 0,0 UV-I 28 W/m 3,2 C 3,5 C 20,9 km/h (4 Bft) 91,30 %
01.04.2023 07:32 5,9 C 5,0 C 5,6 C 5,6 C 83 % 10 cb 5 cb 1004,2 hPa 0,0 l/m 8,0 km/h (2 Bft) N-NO 22 0 min 0,000 mm 0,0 UV-I 30 W/m 3,2 C 4,2 C 12,9 km/h (3 Bft) 91,30 %
01.04.2023 07:31 6,0 C 5,0 C 5,6 C 5,6 C 83 % 10 cb 5 cb 1004,2 hPa 0,0 l/m 8,0 km/h (2 Bft) N-NO 22 0 min 0,000 mm 0,0 UV-I 30 W/m 3,3 C 4,3 C 11,3 km/h (2 Bft) 95,65 %
01.04.2023 07:30 5,9 C 5,0 C 5,6 C 5,6 C 84 % 10 cb 5 cb 1004,3 hPa 0,1 l/m 6,4 km/h (2 Bft) N 360 0 min 0,000 mm 0,0 UV-I 30 W/m 3,4 C 4,6 C 9,7 km/h (2 Bft) 86,96 %
01.04.2023 07:29 5,9 C 5,0 C 5,0 C 5,6 C 83 % 10 cb 5 cb 1004,2 hPa 0,0 l/m 12,9 km/h (3 Bft) N 360 0 min 0,000 mm 0,0 UV-I 32 W/m 3,2 C 3,2 C 20,9 km/h (4 Bft) 91,30 %
01.04.2023 07:28 6,0 C 5,0 C 5,0 C 5,6 C 83 % 10 cb 5 cb 1004,3 hPa 0,0 l/m 14,5 km/h (3 Bft) N-NO 22 0 min 0,000 mm 0,0 UV-I 35 W/m 3,3 C 3,1 C 19,3 km/h (3 Bft) 86,96 %
01.04.2023 07:27 6,1 C 5,0 C 5,6 C 5,6 C 83 % 10 cb 5 cb 1004,2 hPa 0,0 l/m 11,3 km/h (2 Bft) O-NO 67 0 min 0,000 mm 0,0 UV-I 35 W/m 3,4 C 3,7 C 14,5 km/h (3 Bft) 91,30 %
01.04.2023 07:26 6,1 C 5,0 C 5,6 C 5,6 C 83 % 10 cb 5 cb 1004,2 hPa 0,0 l/m 4,8 km/h (1 Bft) N-NO 22 0 min 0,000 mm 0,0 UV-I 39 W/m 3,4 C 5,4 C 11,3 km/h (2 Bft) 91,30 %
01.04.2023 07:25 6,2 C 5,0 C 5,6 C 5,6 C 82 % 10 cb 5 cb 1004,3 hPa 0,0 l/m 6,4 km/h (2 Bft) W 270 0 min 0,000 mm 0,0 UV-I 44 W/m 3,4 C 5,0 C 11,3 km/h (2 Bft) 95,65 %
01.04.2023 07:24 6,2 C 5,0 C 5,6 C 5,6 C 82 % 10 cb 5 cb 1004,2 hPa 0,0 l/m 11,3 km/h (2 Bft) NW 315 0 min 0,000 mm 0,0 UV-I 46 W/m 3,4 C 3,8 C 16,1 km/h (3 Bft) 86,96 %
01.04.2023 07:23 6,2 C 5,0 C 5,0 C 5,6 C 83 % 10 cb 5 cb 1004,2 hPa 0,0 l/m 14,5 km/h (3 Bft) N-NO 22 0 min 0,000 mm 0,0 UV-I 47 W/m 3,5 C 3,3 C 19,3 km/h (3 Bft) 91,30 %
01.04.2023 07:22 6,2 C 5,0 C 5,0 C 5,6 C 82 % 10 cb 5 cb 1004,2 hPa 0,1 l/m 12,9 km/h (3 Bft) N 360 0 min 0,000 mm 0,0 UV-I 49 W/m 3,4 C 3,6 C 16,1 km/h (3 Bft) 91,30 %
01.04.2023 07:21 6,3 C 5,0 C 5,6 C 5,6 C 82 % 10 cb 5 cb 1004,1 hPa 0,0 l/m 17,7 km/h (3 Bft) N 360 0 min 0,000 mm 0,0 UV-I 49 W/m 3,5 C 3,0 C 22,5 km/h (4 Bft) 95,65 %
01.04.2023 07:20 6,3 C 5,0 C 5,6 C 5,6 C 82 % 10 cb 5 cb 1004,1 hPa 0,0 l/m 16,1 km/h (3 Bft) N 360 0 min 0,000 mm 0,0 UV-I 47 W/m 3,5 C 3,2 C 22,5 km/h (4 Bft) 91,30 %
01.04.2023 07:19 6,3 C 5,0 C 5,6 C 5,6 C 82 % 10 cb 5 cb 1004,2 hPa 0,1 l/m 19,3 km/h (3 Bft) N-NW 337 0 min 0,000 mm 0,0 UV-I 42 W/m 3,5 C 2,8 C 25,7 km/h (4 Bft) 95,65 %
01.04.2023 07:18 6,3 C 5,0 C 5,6 C 5,6 C 82 % 10 cb 5 cb 1004,1 hPa 0,0 l/m 20,9 km/h (4 Bft) N 360 0 min 0,000 mm 0,0 UV-I 35 W/m 3,5 C 2,6 C 30,6 km/h (5 Bft) 86,96 %
01.04.2023 07:17 6,3 C 5,0 C 5,6 C 5,6 C 82 % 10 cb 5 cb 1004,1 hPa 0,0 l/m 6,4 km/h (2 Bft) N-NO 22 0 min 0,000 mm 0,0 UV-I 37 W/m 3,5 C 5,1 C 20,9 km/h (4 Bft) 86,96 %
01.04.2023 07:16 6,3 C 5,0 C 5,6 C 5,6 C 83 % 10 cb 5 cb 1004,0 hPa 0,0 l/m 8,0 km/h (2 Bft) NW 315 0 min 0,000 mm 0,0 UV-I 42 W/m 3,6 C 4,7 C 17,7 km/h (3 Bft) 86,96 %
01.04.2023 07:15 6,3 C 5,0 C 5,6 C 5,6 C 84 % 10 cb 5 cb 1004,0 hPa 0,0 l/m 11,3 km/h (2 Bft) N 360 0 min 0,000 mm 0,0 UV-I 42 W/m 3,8 C 4,0 C 14,5 km/h (3 Bft) 86,96 %
01.04.2023 07:14 6,3 C 5,0 C 5,6 C 5,6 C 83 % 10 cb 5 cb 1004,0 hPa 0,0 l/m 17,7 km/h (3 Bft) NO 45 0 min 0,000 mm 0,0 UV-I 40 W/m 3,6 C 3,0 C 20,9 km/h (4 Bft) 91,30 %
01.04.2023 07:13 6,3 C 5,0 C 5,6 C 5,6 C 83 % 10 cb 5 cb 1003,9 hPa 0,0 l/m 12,9 km/h (3 Bft) N-NO 22 0 min 0,000 mm 0,0 UV-I 39 W/m 3,6 C 3,7 C 16,1 km/h (3 Bft) 95,65 %
01.04.2023 07:12 6,3 C 5,0 C 5,6 C 5,6 C 84 % 10 cb 5 cb 1004,0 hPa 0,0 l/m 12,9 km/h (3 Bft) NO 45 0 min 0,000 mm 0,0 UV-I 37 W/m 3,8 C 3,7 C 19,3 km/h (3 Bft) 86,96 %
01.04.2023 07:11 6,2 C 5,0 C 5,6 C 5,6 C 84 % 10 cb 5 cb 1003,9 hPa 0,1 l/m 11,3 km/h (2 Bft) N-NO 22 0 min 0,000 mm 0,0 UV-I 39 W/m 3,7 C 3,8 C 16,1 km/h (3 Bft) 95,65 %
01.04.2023 07:10 6,2 C 5,0 C 5,6 C 5,6 C 85 % 10 cb 5 cb 1003,8 hPa 0,0 l/m 12,9 km/h (3 Bft) N-NO 22 0 min 0,000 mm 0,0 UV-I 37 W/m 3,9 C 3,6 C 17,7 km/h (3 Bft) 91,30 %
01.04.2023 07:09 6,2 C 5,0 C 5,6 C 5,6 C 85 % 10 cb 5 cb 1003,9 hPa 0,0 l/m 12,9 km/h (3 Bft) N-NO 22 0 min 0,000 mm 0,0 UV-I 33 W/m 3,9 C 3,6 C 16,1 km/h (3 Bft) 91,30 %
01.04.2023 07:08 6,2 C 5,0 C 5,6 C 5,6 C 84 % 11 cb 5 cb 1003,9 hPa 0,0 l/m 11,3 km/h (2 Bft) NO 45 0 min 0,000 mm 0,0 UV-I 28 W/m 3,7 C 3,8 C 14,5 km/h (3 Bft) 91,30 %
01.04.2023 07:07 6,2 C 5,0 C 5,6 C 5,6 C 85 % 11 cb 5 cb 1003,9 hPa 0,0 l/m 6,4 km/h (2 Bft) N 360 0 min 0,000 mm 0,0 UV-I 28 W/m 3,9 C 5,0 C 9,7 km/h (2 Bft) 91,30 %
01.04.2023 07:06 6,2 C 5,0 C 5,6 C 5,6 C 85 % 11 cb 5 cb 1003,9 hPa 0,0 l/m 8,0 km/h (2 Bft) NO 45 0 min 0,000 mm 0,0 UV-I 30 W/m 3,9 C 4,5 C 11,3 km/h (2 Bft) 91,30 %
01.04.2023 07:05 6,2 C 5,0 C 5,0 C 5,6 C 84 % 10 cb 5 cb 1003,8 hPa 0,1 l/m 6,4 km/h (2 Bft) O-SO 112 0 min 0,000 mm 0,0 UV-I 26 W/m 3,7 C 5,0 C 11,3 km/h (2 Bft) 95,65 %
01.04.2023 07:04 6,3 C 5,0 C 5,0 C 5,6 C 84 % 10 cb 5 cb 1003,8 hPa 0,0 l/m 3,2 km/h (1 Bft) O-NO 67 0 min 0,000 mm 0,0 UV-I 25 W/m 3,8 C 6,3 C 8,0 km/h (2 Bft) 91,30 %
01.04.2023 07:03 6,3 C 5,0 C 5,0 C 5,6 C 84 % 10 cb 5 cb 1003,7 hPa 0,0 l/m 3,2 km/h (1 Bft) O 90 0 min 0,000 mm 0,0 UV-I 23 W/m 3,8 C 6,3 C 6,4 km/h (2 Bft) 91,30 %
01.04.2023 07:02 6,3 C 5,0 C 5,0 C 5,6 C 84 % 11 cb 5 cb 1003,8 hPa 0,0 l/m 3,2 km/h (1 Bft) O-SO 112 0 min 0,000 mm 0,0 UV-I 23 W/m 3,8 C 6,3 C 6,4 km/h (2 Bft) 91,30 %
01.04.2023 07:01 6,3 C 5,0 C 5,0 C 5,6 C 83 % 11 cb 5 cb 1003,8 hPa 0,0 l/m 1,6 km/h (1 Bft) N-NO 22 0 min 0,000 mm 0,0 UV-I 23 W/m 3,6 C 6,3 C 3,2 km/h (1 Bft) 86,96 %
01.04.2023 07:00 6,3 C 5,0 C 5,0 C 5,6 C 83 % 11 cb 5 cb 1003,8 hPa 0,0 l/m 4,8 km/h (1 Bft) W-NW 292 0 min 0,025 mm 0,0 UV-I 25 W/m 3,6 C 5,6 C 8,0 km/h (2 Bft) 86,96 %
01.04.2023 06:59 6,2 C 5,0 C 5,0 C 5,6 C 84 % 11 cb 5 cb 1003,8 hPa 0,0 l/m 4,8 km/h (1 Bft) W 270 0 min 0,000 mm 0,0 UV-I 23 W/m 3,7 C 5,5 C 9,7 km/h (2 Bft) 91,30 %
01.04.2023 06:58 6,3 C 5,0 C 5,0 C 5,6 C 84 % 11 cb 5 cb 1003,8 hPa 0,0 l/m 3,2 km/h (1 Bft) W-SW 247 0 min 0,000 mm 0,0 UV-I 21 W/m 3,8 C 6,3 C 8,0 km/h (2 Bft) 95,65 %
01.04.2023 06:57 6,3 C 5,0 C 5,0 C 5,6 C 84 % 11 cb 5 cb 1003,8 hPa 0,0 l/m 4,8 km/h (1 Bft) N-NW 337 0 min 0,000 mm 0,0 UV-I 19 W/m 3,8 C 5,6 C 6,4 km/h (2 Bft) 91,30 %
01.04.2023 06:56 6,3 C 5,0 C 5,0 C 5,6 C 83 % 11 cb 5 cb 1003,8 hPa 0,0 l/m 8,0 km/h (2 Bft) N-NO 22 0 min 0,000 mm 0,0 UV-I 18 W/m 3,6 C 4,7 C 11,3 km/h (2 Bft) 86,96 %
01.04.2023 06:55 6,4 C 4,4 C 5,0 C 5,6 C 83 % 11 cb 5 cb 1003,8 hPa 0,0 l/m 11,3 km/h (2 Bft) NO 45 0 min 0,000 mm 0,0 UV-I 16 W/m 3,7 C 4,1 C 14,5 km/h (3 Bft) 91,30 %
01.04.2023 06:54 6,4 C 4,4 C 5,0 C 5,6 C 83 % 11 cb 5 cb 1003,8 hPa 0,0 l/m 8,0 km/h (2 Bft) NO 45 0 min 0,000 mm 0,0 UV-I 14 W/m 3,7 C 4,8 C 14,5 km/h (3 Bft) 91,30 %
01.04.2023 06:53 6,5 C 4,4 C 5,0 C 5,6 C 82 % 11 cb 5 cb 1003,8 hPa 0,0 l/m 12,9 km/h (3 Bft) NO 45 0 min 0,000 mm 0,0 UV-I 12 W/m 3,7 C 3,9 C 19,3 km/h (3 Bft) 91,30 %
01.04.2023 06:52 6,6 C 4,4 C 5,0 C 5,6 C 82 % 11 cb 5 cb 1003,8 hPa 0,0 l/m 9,7 km/h (2 Bft) NO 45 0 min 0,000 mm 0,0 UV-I 12 W/m 3,8 C 4,6 C 19,3 km/h (3 Bft) 95,65 %
01.04.2023 06:51 6,6 C 4,4 C 5,0 C 5,6 C 81 % 11 cb 5 cb 1003,8 hPa 0,0 l/m 6,4 km/h (2 Bft) N 360 0 min 0,000 mm 0,0 UV-I 11 W/m 3,6 C 5,4 C 11,3 km/h (2 Bft) 91,30 %
01.04.2023 06:50 6,5 C 4,4 C 5,0 C 5,6 C 81 % 11 cb 5 cb 1003,8 hPa 0,0 l/m 8,0 km/h (2 Bft) N-NO 22 0 min 0,000 mm 0,0 UV-I 11 W/m 3,5 C 4,9 C 17,7 km/h (3 Bft) 91,30 %
01.04.2023 06:49 6,4 C 4,4 C 5,0 C 5,6 C 83 % 11 cb 5 cb 1003,7 hPa 0,0 l/m 16,1 km/h (3 Bft) NO 45 0 min 0,000 mm 0,0 UV-I 9 W/m 3,7 C 3,3 C 20,9 km/h (4 Bft) 91,30 %
01.04.2023 06:48 6,4 C 4,4 C 5,0 C 5,6 C 82 % 11 cb 5 cb 1003,8 hPa 0,0 l/m 12,9 km/h (3 Bft) O-NO 67 0 min 0,000 mm 0,0 UV-I 5 W/m 3,6 C 3,8 C 22,5 km/h (4 Bft) 95,65 %
01.04.2023 06:47 6,4 C 4,4 C 5,0 C 5,6 C 82 % 11 cb 5 cb 1003,8 hPa 0,0 l/m 9,7 km/h (2 Bft) O-NO 67 0 min 0,000 mm 0,0 UV-I 5 W/m 3,6 C 4,4 C 12,9 km/h (3 Bft) 91,30 %
01.04.2023 06:46 6,4 C 4,4 C 5,0 C 5,6 C 82 % 11 cb 5 cb 1003,7 hPa 0,0 l/m 9,7 km/h (2 Bft) O 90 0 min 0,000 mm 0,0 UV-I 5 W/m 3,6 C 4,4 C 14,5 km/h (3 Bft) 95,65 %
01.04.2023 06:45 6,4 C 4,4 C 5,0 C 5,6 C 82 % 11 cb 5 cb 1003,8 hPa 0,0 l/m 8,0 km/h (2 Bft) O 90 0 min 0,000 mm 0,0 UV-I 5 W/m 3,6 C 4,8 C 16,1 km/h (3 Bft) 82,61 %
01.04.2023 06:44 6,4 C 4,4 C 5,0 C 5,6 C 82 % 11 cb 5 cb 1003,7 hPa 0,0 l/m 6,4 km/h (2 Bft) N-NO 22 0 min 0,000 mm 0,0 UV-I 0 W/m 3,6 C 5,2 C 9,7 km/h (2 Bft) 86,96 %
01.04.2023 06:43 6,4 C 4,4 C 5,0 C 5,6 C 83 % 11 cb 5 cb 1003,7 hPa 0,0 l/m 16,1 km/h (3 Bft) NO 45 0 min 0,000 mm 0,0 UV-I 0 W/m 3,7 C 3,3 C 22,5 km/h (4 Bft) 91,30 %
01.04.2023 06:42 6,3 C 4,4 C 5,0 C 5,6 C 82 % 11 cb 5 cb 1003,9 hPa 0,0 l/m 14,5 km/h (3 Bft) NO 45 0 min 0,000 mm 0,0 UV-I 0 W/m 3,5 C 3,4 C 24,1 km/h (4 Bft) 86,96 %
01.04.2023 06:41 6,4 C 4,4 C 5,0 C 5,6 C 83 % 11 cb 5 cb 1003,8 hPa 0,0 l/m 11,3 km/h (2 Bft) N 360 0 min 0,000 mm 0,0 UV-I 0 W/m 3,7 C 4,1 C 17,7 km/h (3 Bft) 91,30 %
01.04.2023 06:40 6,3 C 4,4 C 5,0 C 5,6 C 83 % 11 cb 5 cb 1003,8 hPa 0,0 l/m 14,5 km/h (3 Bft) NO 45 0 min 0,000 mm 0,0 UV-I 0 W/m 3,6 C 3,4 C 24,1 km/h (4 Bft) 95,65 %
01.04.2023 06:39 6,3 C 4,4 C 5,0 C 5,6 C 83 % 11 cb 5 cb 1003,8 hPa 0,0 l/m 24,1 km/h (4 Bft) NO 45 0 min 0,000 mm 0,0 UV-I 0 W/m 3,6 C 2,3 C 29,0 km/h (5 Bft) 86,96 %
01.04.2023 06:38 6,4 C 4,4 C 5,0 C 5,6 C 83 % 11 cb 5 cb 1003,8 hPa 0,0 l/m 20,9 km/h (4 Bft) NO 45 0 min 0,000 mm 0,0 UV-I 0 W/m 3,7 C 2,7 C 30,6 km/h (5 Bft) 95,65 %
01.04.2023 06:37 6,4 C 4,4 C 5,0 C 5,6 C 82 % 11 cb 5 cb 1003,8 hPa 0,0 l/m 14,5 km/h (3 Bft) O-NO 67 0 min 0,000 mm 0,0 UV-I 0 W/m 3,6 C 3,5 C 20,9 km/h (4 Bft) 91,30 %
01.04.2023 06:36 6,4 C 4,4 C 5,0 C 5,6 C 82 % 11 cb 5 cb 1003,8 hPa 0,0 l/m 14,5 km/h (3 Bft) NO 45 0 min 0,000 mm 0,0 UV-I 0 W/m 3,6 C 3,5 C 19,3 km/h (3 Bft) 86,96 %
01.04.2023 06:35 6,4 C 4,4 C 5,0 C 5,6 C 82 % 11 cb 5 cb 1004,0 hPa 0,0 l/m 11,3 km/h (2 Bft) NO 45 0 min 0,000 mm 0,0 UV-I 0 W/m 3,6 C 4,1 C 19,3 km/h (3 Bft) 86,96 %
01.04.2023 06:34 6,4 C 4,4 C 5,0 C 5,6 C 82 % 11 cb 5 cb 1003,9 hPa 0,0 l/m 14,5 km/h (3 Bft) N-NO 22 0 min 0,000 mm 0,0 UV-I 0 W/m 3,6 C 3,5 C 19,3 km/h (3 Bft) 91,30 %
01.04.2023 06:33 6,4 C 4,4 C 5,0 C 5,6 C 82 % 11 cb 5 cb 1003,9 hPa 0,0 l/m 9,7 km/h (2 Bft) NO 45 0 min 0,000 mm 0,0 UV-I 0 W/m 3,6 C 4,4 C 16,1 km/h (3 Bft) 86,96 %
01.04.2023 06:32 6,5 C 4,4 C 5,0 C 5,6 C 82 % 11 cb 5 cb 1003,9 hPa 0,0 l/m 12,9 km/h (3 Bft) N-NO 22 0 min 0,000 mm 0,0 UV-I 0 W/m 3,7 C 3,9 C 17,7 km/h (3 Bft) 95,65 %
01.04.2023 06:31 6,4 C 4,4 C 5,0 C 5,6 C 82 % 11 cb 5 cb 1003,9 hPa 0,0 l/m 14,5 km/h (3 Bft) N-NO 22 0 min 0,000 mm 0,0 UV-I 0 W/m 3,6 C 3,5 C 19,3 km/h (3 Bft) 86,96 %
01.04.2023 06:30 6,4 C 4,4 C 5,0 C 5,6 C 82 % 11 cb 5 cb 1003,9 hPa 0,0 l/m 12,9 km/h (3 Bft) N-NO 22 0 min 0,000 mm 0,0 UV-I 0 W/m 3,6 C 3,8 C 17,7 km/h (3 Bft) 95,65 %
01.04.2023 06:29 6,4 C 4,4 C 5,0 C 5,6 C 82 % 11 cb 5 cb 1003,9 hPa 0,0 l/m 6,4 km/h (2 Bft) N-NO 22 0 min 0,000 mm 0,0 UV-I 0 W/m 3,6 C 5,2 C 11,3 km/h (2 Bft) 91,30 %
01.04.2023 06:28 6,4 C 4,4 C 5,0 C 5,6 C 82 % 11 cb 5 cb 1003,9 hPa 0,0 l/m 11,3 km/h (2 Bft) N 360 0 min 0,000 mm 0,0 UV-I 0 W/m 3,6 C 4,1 C 17,7 km/h (3 Bft) 86,96 %
01.04.2023 06:27 6,4 C 4,4 C 5,0 C 5,6 C 82 % 11 cb 5 cb 1003,8 hPa 0,0 l/m 12,9 km/h (3 Bft) N 360 0 min 0,000 mm 0,0 UV-I 0 W/m 3,6 C 3,8 C 17,7 km/h (3 Bft) 86,96 %
01.04.2023 06:26 6,4 C 4,4 C 5,0 C 5,6 C 82 % 11 cb 5 cb 1003,8 hPa 0,0 l/m 12,9 km/h (3 Bft) W 270 0 min 0,000 mm 0,0 UV-I 0 W/m 3,6 C 3,8 C 17,7 km/h (3 Bft) 95,65 %
01.04.2023 06:25 6,5 C 4,4 C 5,0 C 5,6 C 82 % 11 cb 5 cb 1003,8 hPa 0,0 l/m 9,7 km/h (2 Bft) W-NW 292 0 min 0,000 mm 0,0 UV-I 0 W/m 3,7 C 4,5 C 14,5 km/h (3 Bft) 91,30 %
01.04.2023 06:24 6,6 C 4,4 C 5,0 C 5,6 C 81 % 11 cb 5 cb 1003,7 hPa 0,0 l/m 11,3 km/h (2 Bft) NO 45 0 min 0,000 mm 0,0 UV-I 0 W/m 3,6 C 4,3 C 17,7 km/h (3 Bft) 95,65 %
01.04.2023 06:23 6,6 C 4,4 C 5,0 C 5,6 C 81 % 11 cb 5 cb 1003,8 hPa 0,0 l/m 8,0 km/h (2 Bft) N-NO 22 0 min 0,000 mm 0,0 UV-I 0 W/m 3,6 C 5,0 C 12,9 km/h (3 Bft) 73,91 %
01.04.2023 06:22 6,6 C 4,4 C 5,0 C 5,6 C 81 % 11 cb 5 cb 1003,8 hPa 0,0 l/m 12,9 km/h (3 Bft) N-NO 22 0 min 0,000 mm 0,0 UV-I 0 W/m 3,6 C 4,0 C 17,7 km/h (3 Bft) 91,30 %
01.04.2023 06:21 6,6 C 4,4 C 5,0 C 5,6 C 81 % 11 cb 5 cb 1003,8 hPa 0,0 l/m 11,3 km/h (2 Bft) N-NO 22 0 min 0,000 mm 0,0 UV-I 0 W/m 3,6 C 4,3 C 17,7 km/h (3 Bft) 82,61 %
01.04.2023 06:20 6,6 C 4,4 C 5,0 C 5,6 C 81 % 11 cb 5 cb 1003,8 hPa 0,0 l/m 12,9 km/h (3 Bft) N 360 0 min 0,000 mm 0,0 UV-I 0 W/m 3,6 C 4,0 C 19,3 km/h (3 Bft) 95,65 %
01.04.2023 06:19 6,4 C 4,4 C 5,0 C 5,6 C 81 % 11 cb 5 cb 1003,7 hPa 0,0 l/m 14,5 km/h (3 Bft) N 360 0 min 0,000 mm 0,0 UV-I 0 W/m 3,4 C 3,5 C 19,3 km/h (3 Bft) 91,30 %
01.04.2023 06:18 6,4 C 4,4 C 5,0 C 5,6 C 81 % 11 cb 5 cb 1003,8 hPa 0,0 l/m 12,9 km/h (3 Bft) N-NO 22 0 min 0,000 mm 0,0 UV-I 0 W/m 3,4 C 3,8 C 24,1 km/h (4 Bft) 95,65 %
01.04.2023 06:17 6,4 C 4,4 C 5,0 C 5,6 C 82 % 11 cb 5 cb 1003,9 hPa 0,0 l/m 9,7 km/h (2 Bft) N-NO 22 0 min 0,000 mm 0,0 UV-I 0 W/m 3,6 C 4,4 C 12,9 km/h (3 Bft) 86,96 %
01.04.2023 06:16 6,4 C 4,4 C 5,0 C 5,6 C 82 % 11 cb 5 cb 1003,8 hPa 0,0 l/m 12,9 km/h (3 Bft) W-NW 292 0 min 0,000 mm 0,0 UV-I 0 W/m 3,6 C 3,8 C 24,1 km/h (4 Bft) 91,30 %
01.04.2023 06:15 6,4 C 4,4 C 5,0 C 5,6 C 82 % 11 cb 5 cb 1003,8 hPa 0,0 l/m 11,3 km/h (2 Bft) N 360 0 min 0,000 mm 0,0 UV-I 0 W/m 3,6 C 4,1 C 19,3 km/h (3 Bft) 91,30 %
01.04.2023 06:14 6,4 C 4,4 C 5,0 C 5,6 C 81 % 11 cb 5 cb 1003,7 hPa 0,0 l/m 12,9 km/h (3 Bft) N 360 0 min 0,000 mm 0,0 UV-I 0 W/m 3,4 C 3,8 C 17,7 km/h (3 Bft) 91,30 %
01.04.2023 06:13 6,5 C 4,4 C 5,0 C 5,6 C 81 % 11 cb 5 cb 1003,8 hPa 0,0 l/m 8,0 km/h (2 Bft) N 360 0 min 0,000 mm 0,0 UV-I 0 W/m 3,5 C 4,9 C 16,1 km/h (3 Bft) 91,30 %
01.04.2023 06:12 6,4 C 4,4 C 5,0 C 5,6 C 82 % 11 cb 5 cb 1003,7 hPa 0,0 l/m 6,4 km/h (2 Bft) N-NO 22 0 min 0,000 mm 0,0 UV-I 0 W/m 3,6 C 5,2 C 8,0 km/h (2 Bft) 86,96 %
01.04.2023 06:11 6,4 C 4,4 C 5,0 C 5,6 C 82 % 11 cb 5 cb 1003,8 hPa 0,0 l/m 4,8 km/h (1 Bft) O-NO 67 0 min 0,000 mm 0,0 UV-I 0 W/m 3,6 C 5,7 C 8,0 km/h (2 Bft) 91,30 %
01.04.2023 06:10 6,3 C 4,4 C 5,0 C 5,6 C 82 % 11 cb 5 cb 1003,7 hPa 0,0 l/m 4,8 km/h (1 Bft) N-NW 337 0 min 0,000 mm 0,0 UV-I 0 W/m 3,5 C 5,6 C 8,0 km/h (2 Bft) 91,30 %
01.04.2023 06:09 6,3 C 4,4 C 5,0 C 5,6 C 83 % 11 cb 5 cb 1003,7 hPa 0,0 l/m 8,0 km/h (2 Bft) NO 45 0 min 0,000 mm 0,0 UV-I 0 W/m 3,6 C 4,7 C 12,9 km/h (3 Bft) 91,30 %
01.04.2023 06:08 6,3 C 4,4 C 5,0 C 5,6 C 83 % 11 cb 5 cb 1003,8 hPa 0,0 l/m 6,4 km/h (2 Bft) O-NO 67 0 min 0,000 mm 0,0 UV-I 0 W/m 3,6 C 5,1 C 9,7 km/h (2 Bft) 91,30 %
01.04.2023 06:07 6,3 C 4,4 C 5,0 C 5,6 C 82 % 11 cb 5 cb 1003,7 hPa 0,0 l/m 9,7 km/h (2 Bft) NO 45 0 min 0,000 mm 0,0 UV-I 0 W/m 3,5 C 4,3 C 12,9 km/h (3 Bft) 91,30 %
01.04.2023 06:06 6,3 C 4,4 C 5,0 C 5,6 C 82 % 11 cb 5 cb 1003,7 hPa 0,0 l/m 11,3 km/h (2 Bft) NO 45 0 min 0,000 mm 0,0 UV-I 0 W/m 3,5 C 4,0 C 14,5 km/h (3 Bft) 82,61 %
01.04.2023 06:05 6,3 C 4,4 C 5,0 C 5,6 C 82 % 11 cb 5 cb 1003,7 hPa 0,0 l/m 9,7 km/h (2 Bft) N-NO 22 0 min 0,000 mm 0,0 UV-I 0 W/m 3,5 C 4,3 C 12,9 km/h (3 Bft) 82,61 %
01.04.2023 06:04 6,3 C 4,4 C 5,0 C 5,6 C 83 % 11 cb 5 cb 1003,7 hPa 0,0 l/m 11,3 km/h (2 Bft) O-NO 67 0 min 0,000 mm 0,0 UV-I 0 W/m 3,6 C 4,0 C 16,1 km/h (3 Bft) 91,30 %
01.04.2023 06:03 6,3 C 4,4 C 5,0 C 5,6 C 83 % 11 cb 5 cb 1003,7 hPa 0,0 l/m 11,3 km/h (2 Bft) N-NO 22 0 min 0,000 mm 0,0 UV-I 0 W/m 3,6 C 4,0 C 17,7 km/h (3 Bft) 86,96 %
01.04.2023 06:02 6,1 C 4,4 C 5,0 C 5,6 C 83 % 11 cb 5 cb 1003,7 hPa 0,0 l/m 14,5 km/h (3 Bft) NO 45 0 min 0,000 mm 0,0 UV-I 0 W/m 3,4 C 3,2 C 22,5 km/h (4 Bft) 95,65 %
01.04.2023 06:01 6,0 C 4,4 C 5,0 C 5,6 C 84 % 11 cb 5 cb 1003,7 hPa 0,0 l/m 14,5 km/h (3 Bft) O 90 0 min 0,000 mm 0,0 UV-I 0 W/m 3,5 C 3,1 C 17,7 km/h (3 Bft) 82,61 %
01.04.2023 06:00 5,9 C 4,4 C 5,0 C 5,6 C 85 % 11 cb 5 cb 1003,7 hPa 0,0 l/m 9,7 km/h (2 Bft) O 90 0 min 0,025 mm 0,0 UV-I 0 W/m 3,6 C 3,8 C 16,1 km/h (3 Bft) 91,30 %
01.04.2023 05:59 5,9 C 4,4 C 5,0 C 5,6 C 85 % 11 cb 5 cb 1003,7 hPa 0,0 l/m 6,4 km/h (2 Bft) O 90 0 min 0,000 mm 0,0 UV-I 0 W/m 3,6 C 4,6 C 9,7 km/h (2 Bft) 86,96 %
01.04.2023 05:58 6,0 C 4,4 C 5,0 C 5,6 C 85 % 11 cb 5 cb 1003,8 hPa 0,0 l/m 1,6 km/h (1 Bft) O 90 0 min 0,000 mm 0,0 UV-I 0 W/m 3,7 C 6,0 C 3,2 km/h (1 Bft) 91,30 %
01.04.2023 05:57 6,3 C 4,4 C 5,0 C 5,6 C 84 % 11 cb 5 cb 1003,8 hPa 0,0 l/m 3,2 km/h (1 Bft) N-NO 22 0 min 0,000 mm 0,0 UV-I 0 W/m 3,8 C 6,3 C 6,4 km/h (2 Bft) 86,96 %
01.04.2023 05:56 6,4 C 4,4 C 5,0 C 5,6 C 81 % 11 cb 5 cb 1003,9 hPa 0,0 l/m 9,7 km/h (2 Bft) N-NO 22 0 min 0,000 mm 0,0 UV-I 0 W/m 3,4 C 4,4 C 12,9 km/h (3 Bft) 91,30 %
01.04.2023 05:55 6,6 C 4,4 C 5,0 C 5,6 C 81 % 11 cb 5 cb 1003,8 hPa 0,0 l/m 6,4 km/h (2 Bft) N-NO 22 0 min 0,000 mm 0,0 UV-I 0 W/m 3,6 C 5,4 C 9,7 km/h (2 Bft) 82,61 %
01.04.2023 05:54 6,7 C 4,4 C 5,0 C 5,6 C 80 % 11 cb 5 cb 1003,8 hPa 0,0 l/m 3,2 km/h (1 Bft) N-NO 22 0 min 0,000 mm 0,0 UV-I 0 W/m 3,5 C 6,7 C 6,4 km/h (2 Bft) 95,65 %
01.04.2023 05:53 6,6 C 4,4 C 5,0 C 5,6 C 80 % 11 cb 5 cb 1003,7 hPa 0,0 l/m 4,8 km/h (1 Bft) N-NO 22 0 min 0,000 mm 0,0 UV-I 0 W/m 3,4 C 6,0 C 6,4 km/h (2 Bft) 82,61 %
01.04.2023 05:52 6,6 C 4,4 C 5,0 C 5,6 C 81 % 11 cb 5 cb 1003,7 hPa 0,0 l/m 1,6 km/h (1 Bft) N-NO 22 0 min 0,000 mm 0,0 UV-I 0 W/m 3,6 C 6,6 C 4,8 km/h (1 Bft) 91,30 %
01.04.2023 05:51 6,6 C 4,4 C 5,0 C 5,6 C 81 % 11 cb 5 cb 1003,8 hPa 0,0 l/m 3,2 km/h (1 Bft) N 360 0 min 0,000 mm 0,0 UV-I 0 W/m 3,6 C 6,6 C 6,4 km/h (2 Bft) 91,30 %
01.04.2023 05:50 6,4 C 4,4 C 5,0 C 5,6 C 81 % 11 cb 5 cb 1003,9 hPa 0,0 l/m 8,0 km/h (2 Bft) NO 45 0 min 0,000 mm 0,0 UV-I 0 W/m 3,4 C 4,8 C 11,3 km/h (2 Bft) 86,96 %
01.04.2023 05:49 6,4 C 4,4 C 5,0 C 5,6 C 82 % 11 cb 5 cb 1003,8 hPa 0,0 l/m 9,7 km/h (2 Bft) NO 45 0 min 0,000 mm 0,0 UV-I 0 W/m 3,6 C 4,4 C 12,9 km/h (3 Bft) 86,96 %
01.04.2023 05:48 6,3 C 4,4 C 5,0 C 5,6 C 83 % 11 cb 5 cb 1003,9 hPa 0,0 l/m 14,5 km/h (3 Bft) N-NO 22 0 min 0,000 mm 0,0 UV-I 0 W/m 3,6 C 3,4 C 19,3 km/h (3 Bft) 82,61 %
01.04.2023 05:47 6,3 C 4,4 C 5,0 C 5,6 C 83 % 11 cb 5 cb 1003,8 hPa 0,0 l/m 9,7 km/h (2 Bft) N 360 0 min 0,000 mm 0,0 UV-I 0 W/m 3,6 C 4,3 C 17,7 km/h (3 Bft) 95,65 %
01.04.2023 05:46 6,2 C 4,4 C 5,0 C 5,6 C 83 % 11 cb 5 cb 1003,9 hPa 0,0 l/m 3,2 km/h (1 Bft) W 270 0 min 0,000 mm 0,0 UV-I 0 W/m 3,5 C 6,2 C 8,0 km/h (2 Bft) 86,96 %
01.04.2023 05:45 6,3 C 4,4 C 5,0 C 5,6 C 83 % 11 cb 5 cb 1004,0 hPa 0,0 l/m 9,7 km/h (2 Bft) NO 45 0 min 0,000 mm 0,0 UV-I 0 W/m 3,6 C 4,3 C 16,1 km/h (3 Bft) 95,65 %
01.04.2023 05:44 6,3 C 4,4 C 5,0 C 5,6 C 82 % 11 cb 5 cb 1003,9 hPa 0,0 l/m 9,7 km/h (2 Bft) N-NW 337 0 min 0,000 mm 0,0 UV-I 0 W/m 3,5 C 4,3 C 14,5 km/h (3 Bft) 82,61 %
01.04.2023 05:43 6,4 C 4,4 C 5,0 C 5,6 C 82 % 11 cb 5 cb 1003,9 hPa 0,0 l/m 12,9 km/h (3 Bft) NO 45 0 min 0,000 mm 0,0 UV-I 0 W/m 3,6 C 3,8 C 17,7 km/h (3 Bft) 95,65 %
01.04.2023 05:42 6,4 C 4,4 C 5,0 C 5,6 C 81 % 11 cb 5 cb 1003,9 hPa 0,0 l/m 14,5 km/h (3 Bft) NO 45 0 min 0,000 mm 0,0 UV-I 0 W/m 3,4 C 3,5 C 20,9 km/h (4 Bft) 82,61 %
01.04.2023 05:41 6,5 C 4,4 C 5,0 C 5,6 C 81 % 11 cb 5 cb 1003,9 hPa 0,0 l/m 9,7 km/h (2 Bft) O 90 0 min 0,000 mm 0,0 UV-I 0 W/m 3,5 C 4,5 C 14,5 km/h (3 Bft) 91,30 %
01.04.2023 05:40 6,5 C 4,4 C 5,0 C 5,6 C 81 % 11 cb 5 cb 1003,9 hPa 0,0 l/m 12,9 km/h (3 Bft) NO 45 0 min 0,000 mm 0,0 UV-I 0 W/m 3,5 C 3,9 C 20,9 km/h (4 Bft) 86,96 %
01.04.2023 05:39 6,5 C 4,4 C 5,0 C 5,6 C 81 % 11 cb 5 cb 1003,9 hPa 0,0 l/m 12,9 km/h (3 Bft) NO 45 0 min 0,000 mm 0,0 UV-I 0 W/m 3,5 C 3,9 C 20,9 km/h (4 Bft) 91,30 %
01.04.2023 05:38 6,5 C 4,4 C 5,0 C 5,6 C 81 % 11 cb 5 cb 1004,0 hPa 0,0 l/m 8,0 km/h (2 Bft) O 90 0 min 0,000 mm 0,0 UV-I 0 W/m 3,5 C 4,9 C 12,9 km/h (3 Bft) 86,96 %
01.04.2023 05:37 6,4 C 4,4 C 5,0 C 5,6 C 82 % 11 cb 5 cb 1003,9 hPa 0,0 l/m 4,8 km/h (1 Bft) N 360 0 min 0,000 mm 0,0 UV-I 0 W/m 3,6 C 5,7 C 9,7 km/h (2 Bft) 95,65 %
01.04.2023 05:36 6,3 C 4,4 C 5,0 C 5,6 C 83 % 11 cb 5 cb 1004,0 hPa 0,0 l/m 9,7 km/h (2 Bft) NW 315 0 min 0,000 mm 0,0 UV-I 0 W/m 3,6 C 4,3 C 19,3 km/h (3 Bft) 86,96 %
01.04.2023 05:35 6,2 C 4,4 C 5,0 C 5,6 C 84 % 11 cb 5 cb 1004,0 hPa 0,0 l/m 17,7 km/h (3 Bft) N-NO 22 0 min 0,000 mm 0,0 UV-I 0 W/m 3,7 C 2,9 C 22,5 km/h (4 Bft) 91,30 %
01.04.2023 05:34 6,2 C 4,4 C 5,0 C 5,6 C 83 % 11 cb 5 cb 1004,0 hPa 0,0 l/m 14,5 km/h (3 Bft) N-NO 22 0 min 0,000 mm 0,0 UV-I 0 W/m 3,5 C 3,3 C 19,3 km/h (3 Bft) 86,96 %
01.04.2023 05:33 6,2 C 4,4 C 5,0 C 5,6 C 83 % 11 cb 5 cb 1004,0 hPa 0,0 l/m 8,0 km/h (2 Bft) N-NO 22 0 min 0,000 mm 0,0 UV-I 0 W/m 3,5 C 4,5 C 14,5 km/h (3 Bft) 82,61 %
01.04.2023 05:32 6,3 C 4,4 C 5,0 C 5,6 C 83 % 11 cb 5 cb 1004,0 hPa 0,0 l/m 9,7 km/h (2 Bft) N-NW 337 0 min 0,000 mm 0,0 UV-I 0 W/m 3,6 C 4,3 C 12,9 km/h (3 Bft) 91,30 %
01.04.2023 05:31 6,3 C 4,4 C 5,0 C 5,6 C 83 % 11 cb 5 cb 1003,9 hPa 0,0 l/m 9,7 km/h (2 Bft) N-NW 337 0 min 0,000 mm 0,0 UV-I 0 W/m 3,6 C 4,3 C 16,1 km/h (3 Bft) 91,30 %
01.04.2023 05:30 6,2 C 4,4 C 5,0 C 5,6 C 84 % 11 cb 5 cb 1003,9 hPa 0,0 l/m 14,5 km/h (3 Bft) N-NW 337 0 min 0,000 mm 0,0 UV-I 0 W/m 3,7 C 3,3 C 19,3 km/h (3 Bft) 86,96 %
01.04.2023 05:29 6,0 C 4,4 C 5,0 C 5,6 C 85 % 11 cb 5 cb 1003,9 hPa 0,0 l/m 11,3 km/h (2 Bft) N-NW 337 0 min 0,000 mm 0,0 UV-I 0 W/m 3,7 C 3,6 C 14,5 km/h (3 Bft) 95,65 %
01.04.2023 05:28 5,9 C 4,4 C 5,0 C 5,6 C 85 % 11 cb 5 cb 1003,9 hPa 0,0 l/m 4,8 km/h (1 Bft) N 360 0 min 0,000 mm 0,0 UV-I 0 W/m 3,6 C 5,2 C 9,7 km/h (2 Bft) 82,61 %
01.04.2023 05:27 5,9 C 4,4 C 5,0 C 5,6 C 85 % 11 cb 5 cb 1003,9 hPa 0,0 l/m 6,4 km/h (2 Bft) N-NO 22 0 min 0,000 mm 0,0 UV-I 0 W/m 3,6 C 4,6 C 9,7 km/h (2 Bft) 95,65 %
01.04.2023 05:26 5,9 C 4,4 C 5,0 C 5,6 C 85 % 11 cb 5 cb 1003,9 hPa 0,0 l/m 6,4 km/h (2 Bft) N 360 0 min 0,000 mm 0,0 UV-I 0 W/m 3,6 C 4,6 C 12,9 km/h (3 Bft) 91,30 %
01.04.2023 05:25 5,8 C 4,4 C 5,0 C 5,6 C 86 % 11 cb 5 cb 1003,9 hPa 0,0 l/m 9,7 km/h (2 Bft) N 360 0 min 0,000 mm 0,0 UV-I 0 W/m 3,6 C 3,7 C 16,1 km/h (3 Bft) 95,65 %
01.04.2023 05:24 5,7 C 4,4 C 5,0 C 5,6 C 87 % 11 cb 5 cb 1003,8 hPa 0,0 l/m 6,4 km/h (2 Bft) N 360 0 min 0,000 mm 0,0 UV-I 0 W/m 3,7 C 4,4 C 12,9 km/h (3 Bft) 91,30 %
01.04.2023 05:23 5,7 C 4,4 C 5,0 C 5,6 C 87 % 11 cb 5 cb 1003,9 hPa 0,0 l/m 6,4 km/h (2 Bft) O 90 0 min 0,000 mm 0,0 UV-I 0 W/m 3,7 C 4,4 C 9,7 km/h (2 Bft) 95,65 %
01.04.2023 05:22 5,8 C 4,4 C 5,0 C 5,6 C 86 % 11 cb 5 cb 1003,9 hPa 0,0 l/m 9,7 km/h (2 Bft) O-SO 112 0 min 0,000 mm 0,0 UV-I 0 W/m 3,6 C 3,7 C 11,3 km/h (2 Bft) 86,96 %
01.04.2023 05:21 5,7 C 4,4 C 5,0 C 5,6 C 87 % 11 cb 5 cb 1003,9 hPa 0,0 l/m 4,8 km/h (1 Bft) O-NO 67 0 min 0,000 mm 0,0 UV-I 0 W/m 3,7 C 5,0 C 8,0 km/h (2 Bft) 95,65 %
01.04.2023 05:20 5,7 C 4,4 C 5,0 C 5,6 C 87 % 11 cb 5 cb 1003,9 hPa 0,0 l/m 3,2 km/h (1 Bft) O-SO 112 0 min 0,000 mm 0,0 UV-I 0 W/m 3,7 C 5,7 C 4,8 km/h (1 Bft) 86,96 %
01.04.2023 05:19 5,8 C 4,4 C 5,0 C 5,6 C 86 % 11 cb 5 cb 1003,9 hPa 0,0 l/m 1,6 km/h (1 Bft) O-SO 112 0 min 0,000 mm 0,0 UV-I 0 W/m 3,6 C 5,8 C 3,2 km/h (1 Bft) 91,30 %
01.04.2023 05:18 5,9 C 4,4 C 5,0 C 5,6 C 85 % 11 cb 5 cb 1004,0 hPa 0,0 l/m 3,2 km/h (1 Bft) W 270 0 min 0,000 mm 0,0 UV-I 0 W/m 3,6 C 5,9 C 4,8 km/h (1 Bft) 82,61 %
01.04.2023 05:17 6,1 C 4,4 C 5,0 C 5,6 C 85 % 11 cb 5 cb 1003,8 hPa 0,0 l/m 6,4 km/h (2 Bft) NO 45 0 min 0,000 mm 0,0 UV-I 0 W/m 3,8 C 4,9 C 9,7 km/h (2 Bft) 91,30 %
01.04.2023 05:16 6,0 C 4,4 C 5,0 C 5,6 C 85 % 11 cb 5 cb 1003,9 hPa 0,0 l/m 8,0 km/h (2 Bft) NO 45 0 min 0,000 mm 0,0 UV-I 0 W/m 3,7 C 4,3 C 9,7 km/h (2 Bft) 82,61 %
01.04.2023 05:15 6,0 C 4,4 C 5,0 C 5,6 C 85 % 11 cb 5 cb 1003,8 hPa 0,0 l/m 4,8 km/h (1 Bft) O 90 0 min 0,000 mm 0,0 UV-I 0 W/m 3,7 C 5,3 C 11,3 km/h (2 Bft) 95,65 %
01.04.2023 05:14 5,9 C 4,4 C 5,0 C 5,6 C 85 % 11 cb 5 cb 1003,8 hPa 0,0 l/m 9,7 km/h (2 Bft) O-SO 112 0 min 0,000 mm 0,0 UV-I 0 W/m 3,6 C 3,8 C 17,7 km/h (3 Bft) 91,30 %
01.04.2023 05:13 5,9 C 4,4 C 5,0 C 5,6 C 85 % 11 cb 5 cb 1003,8 hPa 0,0 l/m 16,1 km/h (3 Bft) O 90 0 min 0,000 mm 0,0 UV-I 0 W/m 3,6 C 2,7 C 19,3 km/h (3 Bft) 91,30 %
01.04.2023 05:12 5,9 C 4,4 C 5,0 C 5,6 C 86 % 11 cb 5 cb 1003,8 hPa 0,0 l/m 11,3 km/h (2 Bft) NO 45 0 min 0,000 mm 0,0 UV-I 0 W/m 3,7 C 3,5 C 14,5 km/h (3 Bft) 91,30 %
01.04.2023 05:11 5,8 C 4,4 C 5,0 C 5,6 C 86 % 11 cb 5 cb 1003,8 hPa 0,0 l/m 9,7 km/h (2 Bft) O 90 0 min 0,000 mm 0,0 UV-I 0 W/m 3,6 C 3,7 C 12,9 km/h (3 Bft) 91,30 %
01.04.2023 05:10 5,8 C 4,4 C 5,0 C 5,6 C 86 % 11 cb 5 cb 1003,9 hPa 0,0 l/m 8,0 km/h (2 Bft) O 90 0 min 0,000 mm 0,0 UV-I 0 W/m 3,6 C 4,1 C 12,9 km/h (3 Bft) 91,30 %
01.04.2023 05:09 5,9 C 4,4 C 5,0 C 5,6 C 85 % 11 cb 5 cb 1003,9 hPa 0,0 l/m 4,8 km/h (1 Bft) O-NO 67 0 min 0,000 mm 0,0 UV-I 0 W/m 3,6 C 5,2 C 8,0 km/h (2 Bft) 91,30 %
01.04.2023 05:08 5,9 C 4,4 C 5,0 C 5,6 C 85 % 11 cb 5 cb 1003,9 hPa 0,0 l/m 8,0 km/h (2 Bft) O-NO 67 0 min 0,000 mm 0,0 UV-I 0 W/m 3,6 C 4,2 C 11,3 km/h (2 Bft) 82,61 %
01.04.2023 05:07 5,9 C 4,4 C 5,0 C 5,6 C 86 % 11 cb 5 cb 1003,9 hPa 0,0 l/m 9,7 km/h (2 Bft) O 90 0 min 0,000 mm 0,0 UV-I 0 W/m 3,7 C 3,8 C 12,9 km/h (3 Bft) 95,65 %
01.04.2023 05:06 5,9 C 4,4 C 5,0 C 5,6 C 86 % 11 cb 5 cb 1003,8 hPa 0,0 l/m 11,3 km/h (2 Bft) O 90 0 min 0,000 mm 0,0 UV-I 0 W/m 3,7 C 3,5 C 14,5 km/h (3 Bft) 82,61 %
01.04.2023 05:05 5,9 C 4,4 C 5,0 C 5,6 C 85 % 11 cb 5 cb 1003,9 hPa 0,0 l/m 6,4 km/h (2 Bft) O-SO 112 0 min 0,000 mm 0,0 UV-I 0 W/m 3,6 C 4,6 C 12,9 km/h (3 Bft) 95,65 %
01.04.2023 05:04 5,8 C 4,4 C 5,0 C 5,6 C 86 % 11 cb 5 cb 1003,8 hPa 0,0 l/m 9,7 km/h (2 Bft) O 90 0 min 0,000 mm 0,0 UV-I 0 W/m 3,6 C 3,7 C 14,5 km/h (3 Bft) 91,30 %
01.04.2023 05:03 5,8 C 4,4 C 5,0 C 5,6 C 86 % 11 cb 5 cb 1003,8 hPa 0,0 l/m 11,3 km/h (2 Bft) O 90 0 min 0,000 mm 0,0 UV-I 0 W/m 3,6 C 3,4 C 16,1 km/h (3 Bft) 86,96 %
01.04.2023 05:02 5,8 C 4,4 C 5,0 C 5,6 C 86 % 11 cb 5 cb 1003,8 hPa 0,0 l/m 6,4 km/h (2 Bft) N 360 0 min 0,000 mm 0,0 UV-I 0 W/m 3,6 C 4,5 C 12,9 km/h (3 Bft) 91,30 %
01.04.2023 05:01 5,7 C 4,4 C 5,0 C 5,6 C 87 % 11 cb 5 cb 1003,8 hPa 0,0 l/m 12,9 km/h (3 Bft) NO 45 0 min 0,000 mm 0,0 UV-I 0 W/m 3,7 C 2,9 C 20,9 km/h (4 Bft) 95,65 %
01.04.2023 05:00 5,7 C 4,4 C 5,0 C 5,6 C 87 % 11 cb 5 cb 1003,8 hPa 0,0 l/m 12,9 km/h (3 Bft) O 90 0 min 0,000 mm 0,0 UV-I 0 W/m 3,7 C 2,9 C 17,7 km/h (3 Bft) 86,96 %
01.04.2023 04:59 5,8 C 4,4 C 5,0 C 5,6 C 87 % 11 cb 5 cb 1003,8 hPa 0,0 l/m 11,3 km/h (2 Bft) O 90 0 min 0,000 mm 0,0 UV-I 0 W/m 3,8 C 3,4 C 17,7 km/h (3 Bft) 95,65 %
01.04.2023 04:58 5,8 C 4,4 C 5,0 C 5,6 C 86 % 11 cb 5 cb 1003,8 hPa 0,0 l/m 12,9 km/h (3 Bft) O-NO 67 0 min 0,000 mm 0,0 UV-I 0 W/m 3,6 C 3,1 C 16,1 km/h (3 Bft) 86,96 %
01.04.2023 04:57 5,9 C 4,4 C 5,0 C 5,6 C 86 % 11 cb 5 cb 1003,7 hPa 0,0 l/m 9,7 km/h (2 Bft) O 90 0 min 0,000 mm 0,0 UV-I 0 W/m 3,7 C 3,8 C 12,9 km/h (3 Bft) 91,30 %
01.04.2023 04:56 5,9 C 4,4 C 5,0 C 5,6 C 85 % 11 cb 5 cb 1003,8 hPa 0,0 l/m 8,0 km/h (2 Bft) O-NO 67 0 min 0,000 mm 0,0 UV-I 0 W/m 3,6 C 4,2 C 12,9 km/h (3 Bft) 91,30 %
01.04.2023 04:55 5,9 C 4,4 C 5,0 C 5,6 C 86 % 11 cb 5 cb 1003,8 hPa 0,0 l/m 4,8 km/h (1 Bft) O-NO 67 0 min 0,000 mm 0,0 UV-I 0 W/m 3,7 C 5,2 C 9,7 km/h (2 Bft) 86,96 %
01.04.2023 04:54 5,9 C 4,4 C 5,0 C 5,6 C 86 % 11 cb 5 cb 1003,8 hPa 0,0 l/m 6,4 km/h (2 Bft) O 90 0 min 0,000 mm 0,0 UV-I 0 W/m 3,7 C 4,6 C 11,3 km/h (2 Bft) 86,96 %
01.04.2023 04:53 5,9 C 4,4 C 5,0 C 5,6 C 85 % 11 cb 5 cb 1003,8 hPa 0,0 l/m 9,7 km/h (2 Bft) O 90 0 min 0,000 mm 0,0 UV-I 0 W/m 3,6 C 3,8 C 12,9 km/h (3 Bft) 95,65 %
01.04.2023 04:52 5,8 C 4,4 C 5,0 C 5,6 C 86 % 11 cb 5 cb 1003,8 hPa 0,0 l/m 8,0 km/h (2 Bft) NO 45 0 min 0,000 mm 0,0 UV-I 0 W/m 3,6 C 4,1 C 11,3 km/h (2 Bft) 91,30 %
01.04.2023 04:51 5,9 C 4,4 C 5,0 C 5,6 C 86 % 11 cb 5 cb 1003,8 hPa 0,0 l/m 11,3 km/h (2 Bft) O-SO 112 0 min 0,000 mm 0,0 UV-I 0 W/m 3,7 C 3,5 C 14,5 km/h (3 Bft) 95,65 %
01.04.2023 04:50 5,8 C 4,4 C 5,0 C 5,6 C 86 % 11 cb 5 cb 1003,8 hPa 0,0 l/m 9,7 km/h (2 Bft) NO 45 0 min 0,000 mm 0,0 UV-I 0 W/m 3,6 C 3,7 C 14,5 km/h (3 Bft) 82,61 %
01.04.2023 04:49 5,8 C 4,4 C 5,0 C 5,6 C 86 % 11 cb 5 cb 1003,7 hPa 0,0 l/m 6,4 km/h (2 Bft) O 90 0 min 0,000 mm 0,0 UV-I 0 W/m 3,6 C 4,5 C 11,3 km/h (2 Bft) 91,30 %
01.04.2023 04:48 5,6 C 4,4 C 5,0 C 5,6 C 87 % 11 cb 5 cb 1003,8 hPa 0,0 l/m 4,8 km/h (1 Bft) O-NO 67 0 min 0,000 mm 0,0 UV-I 0 W/m 3,6 C 4,8 C 8,0 km/h (2 Bft) 86,96 %
01.04.2023 04:47 5,4 C 4,4 C 5,0 C 5,6 C 89 % 11 cb 5 cb 1003,8 hPa 0,0 l/m 9,7 km/h (2 Bft) NO 45 0 min 0,000 mm 0,0 UV-I 0 W/m 3,7 C 3,2 C 14,5 km/h (3 Bft) 95,65 %
01.04.2023 04:46 5,6 C 4,4 C 5,0 C 5,6 C 88 % 11 cb 5 cb 1003,8 hPa 0,0 l/m 3,2 km/h (1 Bft) O 90 0 min 0,000 mm 0,0 UV-I 0 W/m 3,8 C 5,6 C 6,4 km/h (2 Bft) 91,30 %
01.04.2023 04:45 5,6 C 4,4 C 5,0 C 5,6 C 88 % 11 cb 5 cb 1003,8 hPa 0,0 l/m 6,4 km/h (2 Bft) O-NO 67 0 min 0,000 mm 0,0 UV-I 0 W/m 3,8 C 4,3 C 9,7 km/h (2 Bft) 86,96 %
01.04.2023 04:44 5,6 C 4,4 C 5,0 C 5,6 C 89 % 11 cb 5 cb 1003,7 hPa 0,0 l/m 8,0 km/h (2 Bft) NO 45 0 min 0,000 mm 0,0 UV-I 0 W/m 3,9 C 3,8 C 11,3 km/h (2 Bft) 91,30 %
01.04.2023 04:43 5,6 C 4,4 C 5,0 C 5,6 C 88 % 11 cb 5 cb 1003,8 hPa 0,0 l/m 6,4 km/h (2 Bft) O 90 0 min 0,000 mm 0,0 UV-I 0 W/m 3,8 C 4,3 C 8,0 km/h (2 Bft) 91,30 %
01.04.2023 04:42 5,4 C 4,4 C 5,0 C 5,6 C 89 % 11 cb 5 cb 1003,8 hPa 0,0 l/m 8,0 km/h (2 Bft) O-NO 67 0 min 0,000 mm 0,0 UV-I 0 W/m 3,7 C 3,6 C 11,3 km/h (2 Bft) 91,30 %
01.04.2023 04:41 5,4 C 4,4 C 5,0 C 5,6 C 89 % 11 cb 5 cb 1003,8 hPa 0,0 l/m 6,4 km/h (2 Bft) O-SO 112 0 min 0,000 mm 0,0 UV-I 0 W/m 3,7 C 4,1 C 9,7 km/h (2 Bft) 91,30 %
01.04.2023 04:40 5,5 C 4,4 C 5,0 C 5,6 C 89 % 11 cb 5 cb 1003,8 hPa 0,0 l/m 9,7 km/h (2 Bft) O-SO 112 0 min 0,000 mm 0,0 UV-I 0 W/m 3,8 C 3,3 C 11,3 km/h (2 Bft) 91,30 %
01.04.2023 04:39 5,6 C 4,4 C 5,0 C 5,6 C 87 % 11 cb 5 cb 1003,7 hPa 0,0 l/m 6,4 km/h (2 Bft) O 90 0 min 0,000 mm 0,0 UV-I 0 W/m 3,6 C 4,3 C 9,7 km/h (2 Bft) 91,30 %
01.04.2023 04:38 5,7 C 4,4 C 5,0 C 5,6 C 88 % 11 cb 5 cb 1003,8 hPa 0,0 l/m 6,4 km/h (2 Bft) O-NO 67 0 min 0,000 mm 0,0 UV-I 0 W/m 3,9 C 4,4 C 6,4 km/h (2 Bft) 34,78 %
01.04.2023 04:37 5,7 C 4,4 C 5,0 C 5,6 C 88 % 11 cb 5 cb 1003,8 hPa 0,0 l/m 9,7 km/h (2 Bft) O 90 0 min 0,000 mm 0,0 UV-I 0 W/m 3,9 C 3,6 C 9,7 km/h (2 Bft) 8,70 %
01.04.2023 04:36 5,7 C 4,4 C 5,0 C 5,6 C 88 % 11 cb 5 cb 1003,8 hPa 0,0 l/m 9,7 km/h (2 Bft) O 90 0 min 0,000 mm 0,0 UV-I 0 W/m 3,9 C 3,6 C 12,9 km/h (3 Bft) 91,30 %
01.04.2023 04:35 5,7 C 4,4 C 5,0 C 5,6 C 88 % 11 cb 5 cb 1003,8 hPa 0,1 l/m 11,3 km/h (2 Bft) O-NO 67 0 min 0,000 mm 0,0 UV-I 0 W/m 3,9 C 3,2 C 17,7 km/h (3 Bft) 78,26 %
01.04.2023 04:34 5,6 C 4,4 C 5,0 C 5,6 C 89 % 11 cb 5 cb 1003,7 hPa 0,0 l/m 11,3 km/h (2 Bft) NO 45 0 min 0,000 mm 0,0 UV-I 0 W/m 3,9 C 3,1 C 16,1 km/h (3 Bft) 95,65 %
01.04.2023 04:33 5,5 C 4,4 C 5,0 C 5,6 C 90 % 11 cb 5 cb 1003,8 hPa 0,0 l/m 12,9 km/h (3 Bft) NO 45 0 min 0,000 mm 0,0 UV-I 0 W/m 4,0 C 2,7 C 17,7 km/h (3 Bft) 82,61 %
01.04.2023 04:32 5,4 C 4,4 C 5,0 C 5,6 C 90 % 11 cb 5 cb 1003,8 hPa 0,0 l/m 16,1 km/h (3 Bft) O-NO 67 0 min 0,000 mm 0,0 UV-I 0 W/m 3,9 C 2,1 C 20,9 km/h (4 Bft) 95,65 %
01.04.2023 04:31 5,3 C 4,4 C 5,0 C 5,6 C 91 % 11 cb 5 cb 1003,8 hPa 0,1 l/m 9,7 km/h (2 Bft) O 90 0 min 0,000 mm 0,0 UV-I 0 W/m 4,0 C 3,1 C 16,1 km/h (3 Bft) 86,96 %
01.04.2023 04:30 5,2 C 4,4 C 5,0 C 5,6 C 92 % 11 cb 5 cb 1003,8 hPa 0,0 l/m 11,3 km/h (2 Bft) O 90 0 min 0,000 mm 0,0 UV-I 0 W/m 4,0 C 2,6 C 16,1 km/h (3 Bft) 86,96 %
01.04.2023 04:29 5,1 C 4,4 C 5,0 C 5,6 C 93 % 11 cb 5 cb 1003,9 hPa 0,1 l/m 8,0 km/h (2 Bft) O-NO 67 0 min 0,000 mm 0,0 UV-I 0 W/m 4,1 C 3,3 C 11,3 km/h (2 Bft) 86,96 %
01.04.2023 04:28 4,9 C 4,4 C 5,0 C 5,6 C 93 % 11 cb 5 cb 1003,8 hPa 0,0 l/m 9,7 km/h (2 Bft) O-NO 67 0 min 0,000 mm 0,0 UV-I 0 W/m 3,9 C 2,6 C 12,9 km/h (3 Bft) 95,65 %
01.04.2023 04:27 4,8 C 4,4 C 5,0 C 5,6 C 93 % 11 cb 5 cb 1003,8 hPa 0,0 l/m 8,0 km/h (2 Bft) O-NO 67 0 min 0,000 mm 0,0 UV-I 0 W/m 3,8 C 2,9 C 9,7 km/h (2 Bft) 82,61 %
01.04.2023 04:26 4,9 C 4,4 C 5,0 C 5,6 C 93 % 11 cb 5 cb 1003,7 hPa 0,1 l/m 3,2 km/h (1 Bft) O-NO 67 0 min 0,000 mm 0,0 UV-I 0 W/m 3,9 C 4,9 C 4,8 km/h (1 Bft) 82,61 %
01.04.2023 04:25 4,9 C 4,4 C 5,0 C 5,6 C 93 % 11 cb 5 cb 1003,8 hPa 0,0 l/m 4,8 km/h (1 Bft) N-NW 337 0 min 0,000 mm 0,0 UV-I 0 W/m 3,9 C 4,0 C 8,0 km/h (2 Bft) 86,96 %
01.04.2023 04:24 4,9 C 3,9 C 5,0 C 5,6 C 93 % 11 cb 5 cb 1003,8 hPa 0,0 l/m 3,2 km/h (1 Bft) O-SO 112 0 min 0,000 mm 0,0 UV-I 0 W/m 3,9 C 4,9 C 4,8 km/h (1 Bft) 91,30 %
01.04.2023 04:23 4,9 C 3,9 C 5,0 C 5,6 C 93 % 11 cb 5 cb 1003,8 hPa 0,0 l/m 4,8 km/h (1 Bft) O 90 0 min 0,000 mm 0,0 UV-I 0 W/m 3,9 C 4,0 C 8,0 km/h (2 Bft) 82,61 %
01.04.2023 04:22 4,9 C 3,9 C 5,0 C 5,6 C 93 % 11 cb 5 cb 1003,8 hPa 0,0 l/m 6,4 km/h (2 Bft) O-NO 67 0 min 0,000 mm 0,0 UV-I 0 W/m 3,9 C 3,5 C 8,0 km/h (2 Bft) 86,96 %
01.04.2023 04:21 5,0 C 3,9 C 5,0 C 5,6 C 92 % 11 cb 5 cb 1003,7 hPa 0,0 l/m 4,8 km/h (1 Bft) O-NO 67 0 min 0,000 mm 0,0 UV-I 0 W/m 3,8 C 4,2 C 6,4 km/h (2 Bft) 86,96 %
01.04.2023 04:20 5,1 C 3,9 C 5,0 C 5,6 C 92 % 11 cb 5 cb 1003,6 hPa 0,0 l/m 3,2 km/h (1 Bft) O-SO 112 0 min 0,000 mm 0,0 UV-I 0 W/m 3,9 C 5,1 C 3,2 km/h (1 Bft) 86,96 %
01.04.2023 04:19 5,1 C 3,9 C 5,0 C 5,6 C 92 % 11 cb 5 cb 1003,7 hPa 0,0 l/m 1,6 km/h (1 Bft) S-SO 157 0 min 0,000 mm 0,0 UV-I 0 W/m 3,9 C 5,1 C 1,6 km/h (1 Bft) 86,96 %
01.04.2023 04:18 5,1 C 3,9 C 5,0 C 5,6 C 92 % 11 cb 5 cb 1003,6 hPa 0,0 l/m 1,6 km/h (1 Bft) SO 135 0 min 0,000 mm 0,0 UV-I 0 W/m 3,9 C 5,1 C 3,2 km/h (1 Bft) 91,30 %
01.04.2023 04:17 5,2 C 3,9 C 5,0 C 5,6 C 91 % 11 cb 5 cb 1003,6 hPa 0,0 l/m 4,8 km/h (1 Bft) S-SO 157 0 min 0,000 mm 0,0 UV-I 0 W/m 3,9 C 4,4 C 6,4 km/h (2 Bft) 82,61 %
01.04.2023 04:16 5,3 C 4,4 C 5,0 C 5,6 C 91 % 11 cb 5 cb 1003,7 hPa 0,0 l/m 4,8 km/h (1 Bft) S 180 0 min 0,000 mm 0,0 UV-I 0 W/m 4,0 C 4,5 C 6,4 km/h (2 Bft) 86,96 %
01.04.2023 04:15 5,3 C 4,4 C 5,0 C 5,6 C 91 % 11 cb 5 cb 1003,6 hPa 0,0 l/m 1,6 km/h (1 Bft) S 180 0 min 0,000 mm 0,0 UV-I 0 W/m 4,0 C 5,3 C 3,2 km/h (1 Bft) 86,96 %
01.04.2023 04:14 5,3 C 4,4 C 5,0 C 5,6 C 91 % 11 cb 5 cb 1003,7 hPa 0,0 l/m 0,0 km/h (0 Bft) S 180 0 min 0,000 mm 0,0 UV-I 0 W/m 4,0 C 5,3 C 1,6 km/h (1 Bft) 91,30 %
01.04.2023 04:13 5,4 C 4,4 C 5,0 C 5,6 C 91 % 11 cb 5 cb 1003,6 hPa 0,0 l/m 3,2 km/h (1 Bft) W-NW 292 0 min 0,000 mm 0,0 UV-I 0 W/m 4,1 C 5,4 C 4,8 km/h (1 Bft) 86,96 %
01.04.2023 04:12 5,3 C 4,4 C 5,0 C 5,6 C 91 % 11 cb 5 cb 1003,7 hPa 0,0 l/m 3,2 km/h (1 Bft) NW 315 0 min 0,000 mm 0,0 UV-I 0 W/m 4,0 C 5,3 C 4,8 km/h (1 Bft) 86,96 %
01.04.2023 04:11 5,2 C 4,4 C 5,0 C 5,6 C 92 % 11 cb 5 cb 1003,6 hPa 0,0 l/m 4,8 km/h (1 Bft) NO 45 0 min 0,000 mm 0,0 UV-I 0 W/m 4,0 C 4,4 C 9,7 km/h (2 Bft) 82,61 %
01.04.2023 04:10 5,1 C 4,4 C 5,0 C 5,6 C 92 % 11 cb 5 cb 1003,6 hPa 0,0 l/m 9,7 km/h (2 Bft) N-NO 22 0 min 0,000 mm 0,0 UV-I 0 W/m 3,9 C 2,8 C 12,9 km/h (3 Bft) 91,30 %
01.04.2023 04:09 5,2 C 4,4 C 5,0 C 5,6 C 91 % 11 cb 5 cb 1003,6 hPa 0,0 l/m 6,4 km/h (2 Bft) NO 45 0 min 0,000 mm 0,0 UV-I 0 W/m 3,9 C 3,8 C 9,7 km/h (2 Bft) 86,96 %
01.04.2023 04:08 5,3 C 4,4 C 5,0 C 5,6 C 91 % 11 cb 5 cb 1003,6 hPa 0,0 l/m 8,0 km/h (2 Bft) O-NO 67 0 min 0,000 mm 0,0 UV-I 0 W/m 4,0 C 3,5 C 9,7 km/h (2 Bft) 91,30 %
01.04.2023 04:07 5,4 C 4,4 C 5,0 C 5,6 C 92 % 11 cb 5 cb 1003,6 hPa 0,0 l/m 8,0 km/h (2 Bft) O-NO 67 0 min 0,000 mm 0,0 UV-I 0 W/m 4,2 C 3,6 C 11,3 km/h (2 Bft) 86,96 %
01.04.2023 04:06 5,2 C 4,4 C 5,0 C 5,6 C 93 % 11 cb 5 cb 1003,6 hPa 0,0 l/m 8,0 km/h (2 Bft) O-SO 112 0 min 0,000 mm 0,0 UV-I 0 W/m 4,2 C 3,4 C 9,7 km/h (2 Bft) 91,30 %
01.04.2023 04:05 5,1 C 4,4 C 5,0 C 5,6 C 94 % 11 cb 5 cb 1003,7 hPa 0,0 l/m 6,4 km/h (2 Bft) O-SO 112 0 min 0,000 mm 0,0 UV-I 0 W/m 4,2 C 3,7 C 9,7 km/h (2 Bft) 82,61 %
01.04.2023 04:04 5,0 C 4,4 C 5,0 C 5,6 C 94 % 11 cb 5 cb 1003,7 hPa 0,0 l/m 4,8 km/h (1 Bft) O-SO 112 0 min 0,000 mm 0,0 UV-I 0 W/m 4,1 C 4,2 C 6,4 km/h (2 Bft) 91,30 %
01.04.2023 04:03 4,9 C 4,4 C 5,0 C 5,6 C 94 % 11 cb 5 cb 1003,7 hPa 0,0 l/m 3,2 km/h (1 Bft) O-SO 112 0 min 0,000 mm 0,0 UV-I 0 W/m 4,0 C 4,9 C 4,8 km/h (1 Bft) 86,96 %
01.04.2023 04:02 4,9 C 4,4 C 5,0 C 5,6 C 94 % 11 cb 5 cb 1003,7 hPa 0,0 l/m 3,2 km/h (1 Bft) O-SO 112 0 min 0,000 mm 0,0 UV-I 0 W/m 4,0 C 4,9 C 4,8 km/h (1 Bft) 91,30 %
01.04.2023 04:01 4,9 C 4,4 C 5,0 C 5,6 C 94 % 11 cb 5 cb 1003,6 hPa 0,0 l/m 4,8 km/h (1 Bft) O 90 0 min 0,000 mm 0,0 UV-I 0 W/m 4,0 C 4,0 C 6,4 km/h (2 Bft) 82,61 %
01.04.2023 04:00 4,9 C 4,4 C 5,0 C 5,6 C 94 % 11 cb 5 cb 1003,8 hPa 0,0 l/m 3,2 km/h (1 Bft) SO 135 0 min 0,000 mm 0,0 UV-I 0 W/m 4,0 C 4,9 C 4,8 km/h (1 Bft) 78,26 %
01.04.2023 03:59 4,9 C 4,4 C 5,0 C 5,6 C 94 % 11 cb 5 cb 1003,8 hPa 0,0 l/m 6,4 km/h (2 Bft) SO 135 0 min 0,000 mm 0,0 UV-I 0 W/m 4,0 C 3,5 C 8,0 km/h (2 Bft) 86,96 %
01.04.2023 03:58 4,8 C 4,4 C 5,0 C 5,6 C 94 % 11 cb 5 cb 1003,7 hPa 0,0 l/m 4,8 km/h (1 Bft) S 180 0 min 0,000 mm 0,0 UV-I 0 W/m 3,9 C 3,9 C 8,0 km/h (2 Bft) 86,96 %
01.04.2023 03:57 4,8 C 4,4 C 5,0 C 5,6 C 94 % 11 cb 5 cb 1003,8 hPa 0,0 l/m 11,3 km/h (2 Bft) S 180 0 min 0,000 mm 0,0 UV-I 0 W/m 3,9 C 2,1 C 12,9 km/h (3 Bft) 86,96 %
01.04.2023 03:56 4,8 C 4,4 C 5,0 C 5,6 C 94 % 11 cb 5 cb 1003,7 hPa 0,0 l/m 8,0 km/h (2 Bft) S 180 0 min 0,000 mm 0,0 UV-I 0 W/m 3,9 C 2,9 C 11,3 km/h (2 Bft) 91,30 %
01.04.2023 03:55 4,9 C 4,4 C 5,0 C 5,6 C 94 % 11 cb 5 cb 1003,7 hPa 0,0 l/m 3,2 km/h (1 Bft) S-SO 157 0 min 0,000 mm 0,0 UV-I 0 W/m 4,0 C 4,9 C 8,0 km/h (2 Bft) 86,96 %
01.04.2023 03:54 4,9 C 4,4 C 5,0 C 5,6 C 94 % 11 cb 5 cb 1003,8 hPa 0,0 l/m 4,8 km/h (1 Bft) SO 135 0 min 0,000 mm 0,0 UV-I 0 W/m 4,0 C 4,0 C 6,4 km/h (2 Bft) 86,96 %
01.04.2023 03:53 4,8 C 4,4 C 5,0 C 5,6 C 94 % 11 cb 5 cb 1003,7 hPa 0,0 l/m 4,8 km/h (1 Bft) SO 135 0 min 0,000 mm 0,0 UV-I 0 W/m 3,9 C 3,9 C 6,4 km/h (2 Bft) 86,96 %
01.04.2023 03:52 4,8 C 4,4 C 5,0 C 5,6 C 94 % 11 cb 5 cb 1003,8 hPa 0,0 l/m 6,4 km/h (2 Bft) SO 135 0 min 0,000 mm 0,0 UV-I 0 W/m 3,9 C 3,4 C 6,4 km/h (2 Bft) 86,96 %
01.04.2023 03:51 4,9 C 4,4 C 5,0 C 5,6 C 94 % 11 cb 5 cb 1003,7 hPa 0,0 l/m 4,8 km/h (1 Bft) SO 135 0 min 0,000 mm 0,0 UV-I 0 W/m 4,0 C 4,0 C 6,4 km/h (2 Bft) 91,30 %
01.04.2023 03:50 4,9 C 4,4 C 5,0 C 5,6 C 94 % 11 cb 5 cb 1003,8 hPa 0,0 l/m 3,2 km/h (1 Bft) S-SO 157 0 min 0,000 mm 0,0 UV-I 0 W/m 4,0 C 4,9 C 4,8 km/h (1 Bft) 86,96 %
01.04.2023 03:49 4,9 C 4,4 C 5,0 C 5,6 C 94 % 11 cb 5 cb 1003,9 hPa 0,0 l/m 3,2 km/h (1 Bft) S 180 0 min 0,000 mm 0,0 UV-I 0 W/m 4,0 C 4,9 C 4,8 km/h (1 Bft) 78,26 %
01.04.2023 03:48 4,9 C 4,4 C 5,0 C 5,6 C 94 % 11 cb 5 cb 1003,9 hPa 0,0 l/m 1,6 km/h (1 Bft) W-SW 247 0 min 0,000 mm 0,0 UV-I 0 W/m 4,0 C 4,9 C 1,6 km/h (1 Bft) 91,30 %
01.04.2023 03:47 4,8 C 4,4 C 5,0 C 5,6 C 94 % 11 cb 5 cb 1003,8 hPa 0,0 l/m 0,0 km/h (0 Bft) W-NW 292 0 min 0,000 mm 0,0 UV-I 0 W/m 3,9 C 4,8 C 1,6 km/h (1 Bft) 86,96 %
01.04.2023 03:46 4,8 C 4,4 C 5,0 C 5,6 C 94 % 11 cb 5 cb 1003,9 hPa 0,0 l/m 3,2 km/h (1 Bft) W-NW 292 0 min 0,000 mm 0,0 UV-I 0 W/m 3,9 C 4,8 C 4,8 km/h (1 Bft) 86,96 %
01.04.2023 03:45 4,8 C 4,4 C 5,0 C 5,6 C 94 % 11 cb 5 cb 1003,9 hPa 0,0 l/m 4,8 km/h (1 Bft) W-NW 292 0 min 0,000 mm 0,0 UV-I 0 W/m 3,9 C 3,9 C 8,0 km/h (2 Bft) 86,96 %
01.04.2023 03:44 4,8 C 4,4 C 5,6 C 6,1 C 94 % 11 cb 5 cb 1003,9 hPa 0,0 l/m 8,0 km/h (2 Bft) W-NW 292 0 min 0,000 mm 0,0 UV-I 0 W/m 3,9 C 2,9 C 9,7 km/h (2 Bft) 91,30 %
01.04.2023 03:43 4,8 C 4,4 C 5,6 C 5,6 C 94 % 11 cb 5 cb 1003,9 hPa 0,0 l/m 1,6 km/h (1 Bft) W-NW 292 0 min 0,000 mm 0,0 UV-I 0 W/m 3,9 C 4,8 C 4,8 km/h (1 Bft) 78,26 %
01.04.2023 03:42 4,8 C 4,4 C 5,6 C 5,6 C 94 % 11 cb 5 cb 1003,9 hPa 0,0 l/m 1,6 km/h (1 Bft) O-SO 112 0 min 0,000 mm 0,0 UV-I 0 W/m 3,9 C 4,8 C 3,2 km/h (1 Bft) 91,30 %
01.04.2023 03:41 4,8 C 4,4 C 5,6 C 6,1 C 94 % 11 cb 5 cb 1003,9 hPa 0,0 l/m 3,2 km/h (1 Bft) W-SW 247 0 min 0,000 mm 0,0 UV-I 0 W/m 3,9 C 4,8 C 4,8 km/h (1 Bft) 86,96 %
01.04.2023 03:40 4,8 C 4,4 C 5,6 C 6,1 C 94 % 11 cb 5 cb 1003,9 hPa 0,0 l/m 3,2 km/h (1 Bft) W 270 0 min 0,000 mm 0,0 UV-I 0 W/m 3,9 C 4,8 C 4,8 km/h (1 Bft) 91,30 %
01.04.2023 03:39 4,8 C 4,4 C 5,6 C 5,6 C 94 % 11 cb 5 cb 1003,9 hPa 0,0 l/m 6,4 km/h (2 Bft) NO 45 0 min 0,000 mm 0,0 UV-I 0 W/m 3,9 C 3,4 C 8,0 km/h (2 Bft) 86,96 %
01.04.2023 03:38 4,8 C 4,4 C 5,6 C 5,6 C 94 % 11 cb 5 cb 1003,8 hPa 0,0 l/m 3,2 km/h (1 Bft) W-NW 292 0 min 0,000 mm 0,0 UV-I 0 W/m 3,9 C 4,8 C 4,8 km/h (1 Bft) 86,96 %
01.04.2023 03:37 4,8 C 4,4 C 5,6 C 5,6 C 94 % 11 cb 5 cb 1003,9 hPa 0,0 l/m 3,2 km/h (1 Bft) W-SW 247 0 min 0,000 mm 0,0 UV-I 0 W/m 3,9 C 4,8 C 6,4 km/h (2 Bft) 82,61 %
01.04.2023 03:36 4,8 C 4,4 C 5,6 C 5,6 C 93 % 11 cb 5 cb 1003,8 hPa 0,0 l/m 4,8 km/h (1 Bft) W 270 0 min 0,000 mm 0,0 UV-I 0 W/m 3,8 C 3,9 C 6,4 km/h (2 Bft) 86,96 %
01.04.2023 03:35 4,9 C 4,4 C 5,6 C 5,6 C 93 % 11 cb 5 cb 1003,8 hPa 0,0 l/m 1,6 km/h (1 Bft) W 270 0 min 0,000 mm 0,0 UV-I 0 W/m 3,9 C 4,9 C 3,2 km/h (1 Bft) 86,96 %
01.04.2023 03:34 4,9 C 4,4 C 5,6 C 5,6 C 93 % 11 cb 5 cb 1003,8 hPa 0,0 l/m 4,8 km/h (1 Bft) O-NO 67 0 min 0,000 mm 0,0 UV-I 0 W/m 3,9 C 4,0 C 6,4 km/h (2 Bft) 86,96 %
01.04.2023 03:33 4,9 C 4,4 C 5,6 C 5,6 C 93 % 11 cb 5 cb 1003,9 hPa 0,0 l/m 3,2 km/h (1 Bft) O-NO 67 0 min 0,000 mm 0,0 UV-I 0 W/m 3,9 C 4,9 C 4,8 km/h (1 Bft) 86,96 %
01.04.2023 03:32 5,0 C 4,4 C 5,6 C 5,6 C 93 % 11 cb 5 cb 1003,9 hPa 0,0 l/m 3,2 km/h (1 Bft) O-NO 67 0 min 0,000 mm 0,0 UV-I 0 W/m 4,0 C 5,0 C 4,8 km/h (1 Bft) 82,61 %
01.04.2023 03:31 5,0 C 4,4 C 5,6 C 6,1 C 93 % 11 cb 5 cb 1003,9 hPa 0,0 l/m 3,2 km/h (1 Bft) NO 45 0 min 0,000 mm 0,0 UV-I 0 W/m 4,0 C 5,0 C 3,2 km/h (1 Bft) 91,30 %
01.04.2023 03:30 5,1 C 4,4 C 5,6 C 6,1 C 94 % 11 cb 5 cb 1003,7 hPa 0,0 l/m 3,2 km/h (1 Bft) O 90 0 min 0,000 mm 0,0 UV-I 0 W/m 4,2 C 5,1 C 4,8 km/h (1 Bft) 86,96 %
01.04.2023 03:29 5,0 C 4,4 C 5,6 C 6,1 C 94 % 11 cb 5 cb 1003,8 hPa 0,0 l/m 4,8 km/h (1 Bft) O-SO 112 0 min 0,000 mm 0,0 UV-I 0 W/m 4,1 C 4,2 C 6,4 km/h (2 Bft) 91,30 %
01.04.2023 03:28 4,9 C 4,4 C 5,6 C 6,1 C 94 % 11 cb 5 cb 1003,8 hPa 0,0 l/m 4,8 km/h (1 Bft) O-SO 112 0 min 0,000 mm 0,0 UV-I 0 W/m 4,0 C 4,0 C 6,4 km/h (2 Bft) 86,96 %
01.04.2023 03:27 4,9 C 4,4 C 5,6 C 5,6 C 94 % 11 cb 5 cb 1003,8 hPa 0,0 l/m 3,2 km/h (1 Bft) O-SO 112 0 min 0,000 mm 0,0 UV-I 0 W/m 4,0 C 4,9 C 4,8 km/h (1 Bft) 86,96 %
01.04.2023 03:26 4,9 C 4,4 C 5,6 C 6,1 C 94 % 11 cb 5 cb 1003,9 hPa 0,0 l/m 3,2 km/h (1 Bft) O-NO 67 0 min 0,000 mm 0,0 UV-I 0 W/m 4,0 C 4,9 C 3,2 km/h (1 Bft) 86,96 %
01.04.2023 03:25 4,9 C 4,4 C 5,6 C 6,1 C 94 % 11 cb 5 cb 1003,9 hPa 0,0 l/m 1,6 km/h (1 Bft) O-NO 67 0 min 0,000 mm 0,0 UV-I 0 W/m 4,0 C 4,9 C 3,2 km/h (1 Bft) 82,61 %
01.04.2023 03:24 4,9 C 4,4 C 5,6 C 5,6 C 94 % 11 cb 5 cb 1003,9 hPa 0,0 l/m 0,0 km/h (0 Bft) O-NO 67 0 min 0,000 mm 0,0 UV-I 0 W/m 4,0 C 4,9 C 3,2 km/h (1 Bft) 82,61 %
01.04.2023 03:23 4,9 C 4,4 C 5,6 C 6,1 C 93 % 11 cb 5 cb 1003,8 hPa 0,0 l/m 1,6 km/h (1 Bft) N-NW 337 0 min 0,000 mm 0,0 UV-I 0 W/m 3,9 C 4,9 C 3,2 km/h (1 Bft) 91,30 %
01.04.2023 03:22 5,0 C 4,4 C 5,6 C 6,1 C 93 % 11 cb 5 cb 1003,8 hPa 0,0 l/m 3,2 km/h (1 Bft) S-SW 202 0 min 0,000 mm 0,0 UV-I 0 W/m 4,0 C 5,0 C 3,2 km/h (1 Bft) 86,96 %
01.04.2023 03:21 5,0 C 4,4 C 5,6 C 5,6 C 93 % 11 cb 5 cb 1003,9 hPa 0,0 l/m 3,2 km/h (1 Bft) S-SW 202 0 min 0,000 mm 0,0 UV-I 0 W/m 4,0 C 5,0 C 4,8 km/h (1 Bft) 86,96 %
01.04.2023 03:20 5,1 C 4,4 C 5,6 C 5,6 C 93 % 11 cb 5 cb 1003,9 hPa 0,0 l/m 6,4 km/h (2 Bft) S-SO 157 0 min 0,000 mm 0,0 UV-I 0 W/m 4,1 C 3,7 C 8,0 km/h (2 Bft) 78,26 %
01.04.2023 03:19 5,1 C 4,4 C 5,6 C 6,1 C 93 % 11 cb 5 cb 1004,0 hPa 0,0 l/m 6,4 km/h (2 Bft) S-SO 157 0 min 0,000 mm 0,0 UV-I 0 W/m 4,1 C 3,7 C 8,0 km/h (2 Bft) 86,96 %
01.04.2023 03:18 5,1 C 4,4 C 5,6 C 6,1 C 92 % 11 cb 5 cb 1003,9 hPa 0,0 l/m 6,4 km/h (2 Bft) S-SO 157 0 min 0,000 mm 0,0 UV-I 0 W/m 3,9 C 3,7 C 8,0 km/h (2 Bft) 91,30 %
01.04.2023 03:17 5,2 C 4,4 C 5,6 C 5,6 C 92 % 11 cb 5 cb 1004,0 hPa 0,1 l/m 6,4 km/h (2 Bft) SO 135 0 min 0,000 mm 0,0 UV-I 0 W/m 4,0 C 3,8 C 8,0 km/h (2 Bft) 95,65 %
01.04.2023 03:16 5,2 C 4,4 C 5,6 C 5,6 C 92 % 11 cb 5 cb 1004,1 hPa 0,0 l/m 4,8 km/h (1 Bft) SO 135 0 min 0,000 mm 0,0 UV-I 0 W/m 4,0 C 4,4 C 8,0 km/h (2 Bft) 86,96 %
01.04.2023 03:15 5,2 C 4,4 C 5,6 C 5,6 C 92 % 11 cb 5 cb 1004,1 hPa 0,0 l/m 3,2 km/h (1 Bft) SO 135 0 min 0,000 mm 0,0 UV-I 0 W/m 4,0 C 5,2 C 4,8 km/h (1 Bft) 91,30 %
01.04.2023 03:14 5,3 C 4,4 C 5,6 C 6,1 C 91 % 11 cb 5 cb 1004,1 hPa 0,0 l/m 1,6 km/h (1 Bft) SO 135 0 min 0,000 mm 0,0 UV-I 0 W/m 4,0 C 5,3 C 3,2 km/h (1 Bft) 86,96 %
01.04.2023 03:13 5,3 C 4,4 C 5,6 C 6,1 C 91 % 11 cb 5 cb 1004,1 hPa 0,0 l/m 3,2 km/h (1 Bft) S-SO 157 0 min 0,000 mm 0,0 UV-I 0 W/m 4,0 C 5,3 C 4,8 km/h (1 Bft) 86,96 %
01.04.2023 03:12 5,4 C 4,4 C 5,6 C 6,1 C 91 % 11 cb 5 cb 1004,2 hPa 0,0 l/m 3,2 km/h (1 Bft) SO 135 0 min 0,000 mm 0,0 UV-I 0 W/m 4,1 C 5,4 C 4,8 km/h (1 Bft) 91,30 %
01.04.2023 03:11 5,4 C 4,4 C 5,6 C 6,1 C 90 % 11 cb 5 cb 1004,1 hPa 0,0 l/m 3,2 km/h (1 Bft) W-SW 247 0 min 0,000 mm 0,0 UV-I 0 W/m 3,9 C 5,4 C 4,8 km/h (1 Bft) 91,30 %
01.04.2023 03:10 5,5 C 4,4 C 5,6 C 5,6 C 90 % 11 cb 5 cb 1004,1 hPa 0,0 l/m 1,6 km/h (1 Bft) W-SW 247 0 min 0,000 mm 0,0 UV-I 0 W/m 4,0 C 5,5 C 3,2 km/h (1 Bft) 86,96 %
01.04.2023 03:09 5,4 C 4,4 C 5,6 C 6,1 C 90 % 11 cb 5 cb 1004,1 hPa 0,0 l/m 3,2 km/h (1 Bft) O 90 0 min 0,000 mm 0,0 UV-I 0 W/m 3,9 C 5,4 C 4,8 km/h (1 Bft) 91,30 %
01.04.2023 03:08 5,3 C 4,4 C 5,6 C 5,6 C 91 % 11 cb 5 cb 1004,1 hPa 0,0 l/m 6,4 km/h (2 Bft) O-SO 112 0 min 0,000 mm 0,0 UV-I 0 W/m 4,0 C 3,9 C 8,0 km/h (2 Bft) 86,96 %
01.04.2023 03:07 5,4 C 4,4 C 5,6 C 5,6 C 90 % 11 cb 5 cb 1004,1 hPa 0,0 l/m 4,8 km/h (1 Bft) O-NO 67 0 min 0,000 mm 0,0 UV-I 0 W/m 3,9 C 4,6 C 9,7 km/h (2 Bft) 86,96 %
01.04.2023 03:06 5,6 C 4,4 C 5,6 C 6,1 C 90 % 11 cb 5 cb 1004,1 hPa 0,0 l/m 6,4 km/h (2 Bft) S 180 0 min 0,000 mm 0,0 UV-I 0 W/m 4,1 C 4,3 C 9,7 km/h (2 Bft) 91,30 %
01.04.2023 03:05 5,7 C 4,4 C 5,6 C 6,1 C 89 % 11 cb 5 cb 1004,1 hPa 0,0 l/m 6,4 km/h (2 Bft) S 180 0 min 0,000 mm 0,0 UV-I 0 W/m 4,0 C 4,4 C 11,3 km/h (2 Bft) 82,61 %
01.04.2023 03:04 5,6 C 4,4 C 5,6 C 6,1 C 90 % 11 cb 5 cb 1004,2 hPa 0,0 l/m 4,8 km/h (1 Bft) O-SO 112 0 min 0,000 mm 0,0 UV-I 0 W/m 4,1 C 4,8 C 8,0 km/h (2 Bft) 86,96 %
01.04.2023 03:03 5,5 C 4,4 C 5,6 C 6,1 C 91 % 11 cb 5 cb 1004,2 hPa 0,1 l/m 8,0 km/h (2 Bft) O-NO 67 0 min 0,000 mm 0,0 UV-I 0 W/m 4,2 C 3,7 C 11,3 km/h (2 Bft) 91,30 %
01.04.2023 03:02 5,4 C 4,4 C 5,6 C 6,1 C 90 % 11 cb 5 cb 1004,1 hPa 0,0 l/m 6,4 km/h (2 Bft) SO 135 0 min 0,000 mm 0,0 UV-I 0 W/m 3,9 C 4,1 C 8,0 km/h (2 Bft) 82,61 %
01.04.2023 03:01 5,4 C 4,4 C 5,6 C 6,1 C 91 % 11 cb 5 cb 1004,1 hPa 0,0 l/m 11,3 km/h (2 Bft) SO 135 0 min 0,000 mm 0,0 UV-I 0 W/m 4,1 C 2,9 C 12,9 km/h (3 Bft) 95,65 %
01.04.2023 03:00 5,4 C 4,4 C 5,6 C 6,1 C 91 % 11 cb 5 cb 1004,2 hPa 0,0 l/m 8,0 km/h (2 Bft) SO 135 0 min 0,000 mm 0,0 UV-I 0 W/m 4,1 C 3,6 C 11,3 km/h (2 Bft) 86,96 %
01.04.2023 02:59 5,4 C 4,4 C 5,6 C 6,1 C 91 % 11 cb 5 cb 1004,3 hPa 0,0 l/m 4,8 km/h (1 Bft) SO 135 0 min 0,000 mm 0,0 UV-I 0 W/m 4,1 C 4,6 C 8,0 km/h (2 Bft) 91,30 %
01.04.2023 02:58 5,5 C 4,4 C 5,6 C 6,1 C 91 % 11 cb 5 cb 1004,4 hPa 0,0 l/m 3,2 km/h (1 Bft) SO 135 0 min 0,000 mm 0,0 UV-I 0 W/m 4,2 C 5,5 C 4,8 km/h (1 Bft) 82,61 %
01.04.2023 02:57 5,6 C 4,4 C 5,6 C 6,1 C 90 % 11 cb 5 cb 1004,4 hPa 0,0 l/m 4,8 km/h (1 Bft) O-SO 112 0 min 0,000 mm 0,0 UV-I 0 W/m 4,1 C 4,8 C 6,4 km/h (2 Bft) 95,65 %
01.04.2023 02:56 5,7 C 4,4 C 5,6 C 6,1 C 89 % 11 cb 5 cb 1004,3 hPa 0,0 l/m 4,8 km/h (1 Bft) O 90 0 min 0,000 mm 0,0 UV-I 0 W/m 4,0 C 5,0 C 6,4 km/h (2 Bft) 86,96 %
01.04.2023 02:55 5,8 C 4,4 C 5,6 C 6,1 C 87 % 11 cb 5 cb 1004,3 hPa 0,0 l/m 6,4 km/h (2 Bft) O 90 0 min 0,000 mm 0,0 UV-I 0 W/m 3,8 C 4,5 C 9,7 km/h (2 Bft) 95,65 %
01.04.2023 02:54 5,9 C 4,4 C 5,6 C 6,1 C 87 % 11 cb 5 cb 1004,3 hPa 0,1 l/m 4,8 km/h (1 Bft) O 90 0 min 0,000 mm 0,0 UV-I 0 W/m 3,9 C 5,2 C 8,0 km/h (2 Bft) 78,26 %
01.04.2023 02:53 5,9 C 4,4 C 5,6 C 6,1 C 87 % 11 cb 5 cb 1004,3 hPa 0,0 l/m 3,2 km/h (1 Bft) S-SW 202 0 min 0,000 mm 0,0 UV-I 0 W/m 3,9 C 5,9 C 4,8 km/h (1 Bft) 91,30 %
01.04.2023 02:52 5,8 C 4,4 C 5,6 C 6,1 C 88 % 11 cb 5 cb 1004,3 hPa 0,0 l/m 3,2 km/h (1 Bft) S-SW 202 0 min 0,000 mm 0,0 UV-I 0 W/m 4,0 C 5,8 C 6,4 km/h (2 Bft) 86,96 %
01.04.2023 02:51 5,8 C 4,4 C 5,6 C 6,1 C 88 % 11 cb 5 cb 1004,3 hPa 0,0 l/m 3,2 km/h (1 Bft) W-SW 247 0 min 0,000 mm 0,0 UV-I 0 W/m 4,0 C 5,8 C 4,8 km/h (1 Bft) 95,65 %
01.04.2023 02:50 5,8 C 4,4 C 5,6 C 6,1 C 88 % 11 cb 5 cb 1004,3 hPa 0,0 l/m 3,2 km/h (1 Bft) S-SO 157 0 min 0,000 mm 0,0 UV-I 0 W/m 4,0 C 5,8 C 8,0 km/h (2 Bft) 86,96 %
01.04.2023 02:49 5,8 C 4,4 C 5,6 C 6,1 C 88 % 11 cb 5 cb 1004,3 hPa 0,1 l/m 4,8 km/h (1 Bft) S-SW 202 0 min 0,000 mm 0,0 UV-I 0 W/m 4,0 C 5,1 C 8,0 km/h (2 Bft) 95,65 %
01.04.2023 02:48 5,9 C 4,4 C 5,6 C 6,1 C 88 % 11 cb 5 cb 1004,2 hPa 0,1 l/m 4,8 km/h (1 Bft) S-SW 202 0 min 0,000 mm 0,0 UV-I 0 W/m 4,1 C 5,2 C 8,0 km/h (2 Bft) 82,61 %
01.04.2023 02:47 5,9 C 4,4 C 5,6 C 6,1 C 88 % 11 cb 5 cb 1004,3 hPa 0,1 l/m 4,8 km/h (1 Bft) O-SO 112 0 min 0,000 mm 0,0 UV-I 0 W/m 4,1 C 5,2 C 6,4 km/h (2 Bft) 91,30 %
01.04.2023 02:46 5,9 C 4,4 C 5,6 C 6,1 C 88 % 11 cb 5 cb 1004,3 hPa 0,0 l/m 3,2 km/h (1 Bft) SW 225 0 min 0,000 mm 0,0 UV-I 0 W/m 4,1 C 5,9 C 6,4 km/h (2 Bft) 95,65 %
01.04.2023 02:45 5,9 C 4,4 C 5,6 C 6,1 C 88 % 11 cb 5 cb 1004,3 hPa 0,1 l/m 4,8 km/h (1 Bft) W 270 0 min 0,000 mm 0,0 UV-I 0 W/m 4,1 C 5,2 C 9,7 km/h (2 Bft) 86,96 %
01.04.2023 02:44 5,7 C 4,4 C 5,6 C 6,1 C 89 % 11 cb 5 cb 1004,3 hPa 0,0 l/m 6,4 km/h (2 Bft) SW 225 0 min 0,000 mm 0,0 UV-I 0 W/m 4,0 C 4,4 C 9,7 km/h (2 Bft) 91,30 %
01.04.2023 02:43 5,6 C 4,4 C 5,6 C 6,1 C 91 % 11 cb 5 cb 1004,2 hPa 0,1 l/m 4,8 km/h (1 Bft) W 270 0 min 0,000 mm 0,0 UV-I 0 W/m 4,2 C 4,8 C 9,7 km/h (2 Bft) 86,96 %
01.04.2023 02:42 5,4 C 4,4 C 5,6 C 6,1 C 92 % 11 cb 5 cb 1004,1 hPa 0,0 l/m 11,3 km/h (2 Bft) S 180 0 min 0,000 mm 0,0 UV-I 0 W/m 4,2 C 2,9 C 16,1 km/h (3 Bft) 86,96 %
01.04.2023 02:41 5,3 C 4,4 C 5,6 C 6,1 C 92 % 11 cb 5 cb 1004,1 hPa 0,0 l/m 9,7 km/h (2 Bft) S-SW 202 0 min 0,000 mm 0,0 UV-I 0 W/m 4,1 C 3,1 C 11,3 km/h (2 Bft) 86,96 %
01.04.2023 02:40 5,3 C 4,4 C 5,6 C 6,1 C 91 % 11 cb 5 cb 1004,1 hPa 0,0 l/m 9,7 km/h (2 Bft) W 270 0 min 0,000 mm 0,0 UV-I 0 W/m 4,0 C 3,1 C 14,5 km/h (3 Bft) 86,96 %
01.04.2023 02:39 5,4 C 4,4 C 5,6 C 6,1 C 91 % 11 cb 5 cb 1004,0 hPa 0,0 l/m 6,4 km/h (2 Bft) W 270 0 min 0,000 mm 0,0 UV-I 0 W/m 4,1 C 4,1 C 11,3 km/h (2 Bft) 91,30 %
01.04.2023 02:38 5,6 C 4,4 C 5,6 C 6,1 C 90 % 11 cb 5 cb 1003,9 hPa 0,0 l/m 3,2 km/h (1 Bft) W 270 0 min 0,000 mm 0,0 UV-I 0 W/m 4,1 C 5,6 C 6,4 km/h (2 Bft) 91,30 %
01.04.2023 02:37 5,6 C 4,4 C 5,6 C 6,1 C 91 % 11 cb 5 cb 1004,0 hPa 0,0 l/m 3,2 km/h (1 Bft) O 90 0 min 0,000 mm 0,0 UV-I 0 W/m 4,2 C 5,6 C 4,8 km/h (1 Bft) 91,30 %
01.04.2023 02:36 5,4 C 4,4 C 5,6 C 6,1 C 91 % 11 cb 5 cb 1004,0 hPa 0,0 l/m 3,2 km/h (1 Bft) O-NO 67 0 min 0,000 mm 0,0 UV-I 0 W/m 4,1 C 5,4 C 4,8 km/h (1 Bft) 95,65 %
01.04.2023 02:35 5,4 C 4,4 C 5,6 C 6,1 C 91 % 11 cb 5 cb 1003,9 hPa 0,0 l/m 1,6 km/h (1 Bft) SW 225 0 min 0,000 mm 0,0 UV-I 0 W/m 4,1 C 5,4 C 3,2 km/h (1 Bft) 86,96 %
01.04.2023 02:34 5,3 C 4,4 C 5,6 C 6,1 C 91 % 11 cb 5 cb 1004,0 hPa 0,0 l/m 1,6 km/h (1 Bft) W 270 0 min 0,000 mm 0,0 UV-I 0 W/m 4,0 C 5,3 C 4,8 km/h (1 Bft) 91,30 %
01.04.2023 02:33 5,4 C 4,4 C 5,6 C 6,1 C 90 % 11 cb 5 cb 1003,9 hPa 0,0 l/m 3,2 km/h (1 Bft) N-NW 337 0 min 0,000 mm 0,0 UV-I 0 W/m 3,9 C 5,4 C 6,4 km/h (2 Bft) 86,96 %
01.04.2023 02:32 5,4 C 4,4 C 5,6 C 6,1 C 90 % 11 cb 5 cb 1003,9 hPa 0,0 l/m 4,8 km/h (1 Bft) W-NW 292 0 min 0,000 mm 0,0 UV-I 0 W/m 3,9 C 4,6 C 6,4 km/h (2 Bft) 82,61 %
01.04.2023 02:31 5,6 C 4,4 C 5,6 C 6,1 C 90 % 11 cb 5 cb 1003,9 hPa 0,0 l/m 1,6 km/h (1 Bft) O-SO 112 0 min 0,000 mm 0,0 UV-I 0 W/m 4,1 C 5,6 C 4,8 km/h (1 Bft) 91,30 %
01.04.2023 02:30 5,4 C 4,4 C 5,6 C 6,1 C 91 % 11 cb 5 cb 1003,8 hPa 0,0 l/m 3,2 km/h (1 Bft) O-SO 112 0 min 0,000 mm 0,0 UV-I 0 W/m 4,1 C 5,4 C 9,7 km/h (2 Bft) 91,30 %
01.04.2023 02:29 5,3 C 4,4 C 5,6 C 6,1 C 91 % 11 cb 5 cb 1003,9 hPa 0,0 l/m 8,0 km/h (2 Bft) O-SO 112 0 min 0,000 mm 0,0 UV-I 0 W/m 4,0 C 3,5 C 11,3 km/h (2 Bft) 95,65 %
01.04.2023 02:28 5,3 C 4,4 C 5,6 C 6,1 C 91 % 11 cb 5 cb 1003,9 hPa 0,0 l/m 1,6 km/h (1 Bft) O 90 0 min 0,000 mm 0,0 UV-I 0 W/m 4,0 C 5,3 C 3,2 km/h (1 Bft) 95,65 %
01.04.2023 02:27 5,3 C 4,4 C 5,6 C 6,1 C 91 % 11 cb 5 cb 1003,9 hPa 0,0 l/m 3,2 km/h (1 Bft) NO 45 0 min 0,000 mm 0,0 UV-I 0 W/m 4,0 C 5,3 C 3,2 km/h (1 Bft) 95,65 %
01.04.2023 02:26 5,3 C 4,4 C 5,6 C 6,1 C 91 % 11 cb 5 cb 1003,9 hPa 0,0 l/m 1,6 km/h (1 Bft) O-NO 67 0 min 0,000 mm 0,0 UV-I 0 W/m 4,0 C 5,3 C 3,2 km/h (1 Bft) 86,96 %
01.04.2023 02:25 5,3 C 4,4 C 5,6 C 6,1 C 90 % 11 cb 5 cb 1004,0 hPa 0,0 l/m 3,2 km/h (1 Bft) W-NW 292 0 min 0,000 mm 0,0 UV-I 0 W/m 3,8 C 5,3 C 4,8 km/h (1 Bft) 91,30 %
01.04.2023 02:24 5,4 C 4,4 C 5,6 C 6,1 C 90 % 11 cb 5 cb 1004,0 hPa 0,0 l/m 3,2 km/h (1 Bft) W 270 0 min 0,000 mm 0,0 UV-I 0 W/m 3,9 C 5,4 C 4,8 km/h (1 Bft) 91,30 %
01.04.2023 02:23 5,6 C 4,4 C 5,6 C 6,1 C 89 % 11 cb 5 cb 1004,0 hPa 0,0 l/m 1,6 km/h (1 Bft) SO 135 0 min 0,000 mm 0,0 UV-I 0 W/m 3,9 C 5,6 C 4,8 km/h (1 Bft) 86,96 %
01.04.2023 02:22 5,6 C 4,4 C 5,6 C 6,1 C 89 % 11 cb 5 cb 1004,0 hPa 0,0 l/m 3,2 km/h (1 Bft) SO 135 0 min 0,000 mm 0,0 UV-I 0 W/m 3,9 C 5,6 C 4,8 km/h (1 Bft) 91,30 %
01.04.2023 02:21 5,7 C 4,4 C 5,6 C 6,1 C 89 % 11 cb 5 cb 1003,9 hPa 0,0 l/m 3,2 km/h (1 Bft) SO 135 0 min 0,000 mm 0,0 UV-I 0 W/m 4,0 C 5,7 C 3,2 km/h (1 Bft) 91,30 %
01.04.2023 02:20 5,6 C 4,4 C 5,6 C 6,1 C 90 % 11 cb 5 cb 1003,9 hPa 0,0 l/m 1,6 km/h (1 Bft) O-SO 112 0 min 0,000 mm 0,0 UV-I 0 W/m 4,1 C 5,6 C 3,2 km/h (1 Bft) 91,30 %
01.04.2023 02:19 5,6 C 4,4 C 5,6 C 6,1 C 90 % 12 cb 5 cb 1003,9 hPa 0,0 l/m 3,2 km/h (1 Bft) O-SO 112 0 min 0,000 mm 0,0 UV-I 0 W/m 4,1 C 5,6 C 4,8 km/h (1 Bft) 91,30 %
01.04.2023 02:18 5,4 C 4,4 C 5,6 C 6,1 C 91 % 11 cb 5 cb 1003,9 hPa 0,0 l/m 3,2 km/h (1 Bft) SO 135 0 min 0,000 mm 0,0 UV-I 0 W/m 4,1 C 5,4 C 6,4 km/h (2 Bft) 95,65 %
01.04.2023 02:17 5,3 C 4,4 C 5,6 C 6,1 C 91 % 12 cb 5 cb 1003,8 hPa 0,0 l/m 4,8 km/h (1 Bft) SO 135 0 min 0,000 mm 0,0 UV-I 0 W/m 4,0 C 4,5 C 6,4 km/h (2 Bft) 95,65 %
01.04.2023 02:16 5,3 C 4,4 C 5,6 C 6,1 C 91 % 12 cb 5 cb 1003,8 hPa 0,0 l/m 4,8 km/h (1 Bft) S-SO 157 0 min 0,000 mm 0,0 UV-I 0 W/m 4,0 C 4,5 C 6,4 km/h (2 Bft) 91,30 %
01.04.2023 02:15 5,3 C 4,4 C 5,6 C 6,1 C 90 % 12 cb 5 cb 1003,8 hPa 0,0 l/m 3,2 km/h (1 Bft) S 180 0 min 0,000 mm 0,0 UV-I 0 W/m 3,8 C 5,3 C 4,8 km/h (1 Bft) 86,96 %
01.04.2023 02:14 5,3 C 4,4 C 5,6 C 6,1 C 90 % 12 cb 5 cb 1003,8 hPa 0,0 l/m 3,2 km/h (1 Bft) W 270 0 min 0,000 mm 0,0 UV-I 0 W/m 3,8 C 5,3 C 4,8 km/h (1 Bft) 95,65 %
01.04.2023 02:13 5,4 C 4,4 C 5,6 C 6,1 C 90 % 12 cb 5 cb 1003,7 hPa 0,0 l/m 3,2 km/h (1 Bft) SO 135 0 min 0,000 mm 0,0 UV-I 0 W/m 3,9 C 5,4 C 6,4 km/h (2 Bft) 95,65 %
01.04.2023 02:12 5,4 C 4,4 C 5,6 C 6,1 C 90 % 12 cb 5 cb 1003,9 hPa 0,0 l/m 4,8 km/h (1 Bft) SO 135 0 min 0,000 mm 0,0 UV-I 0 W/m 3,9 C 4,6 C 6,4 km/h (2 Bft) 91,30 %
01.04.2023 02:11 5,4 C 4,4 C 5,6 C 6,1 C 90 % 12 cb 5 cb 1003,9 hPa 0,0 l/m 4,8 km/h (1 Bft) S-SO 157 0 min 0,000 mm 0,0 UV-I 0 W/m 3,9 C 4,6 C 6,4 km/h (2 Bft) 91,30 %
01.04.2023 02:10 5,4 C 4,4 C 5,6 C 6,1 C 90 % 12 cb 5 cb 1004,0 hPa 0,0 l/m 4,8 km/h (1 Bft) SO 135 0 min 0,000 mm 0,0 UV-I 0 W/m 3,9 C 4,6 C 6,4 km/h (2 Bft) 86,96 %
01.04.2023 02:09 5,4 C 4,4 C 5,6 C 6,1 C 90 % 12 cb 5 cb 1003,9 hPa 0,0 l/m 3,2 km/h (1 Bft) SO 135 0 min 0,000 mm 0,0 UV-I 0 W/m 3,9 C 5,4 C 4,8 km/h (1 Bft) 86,96 %
01.04.2023 02:08 5,5 C 4,4 C 5,6 C 6,1 C 90 % 12 cb 5 cb 1003,9 hPa 0,0 l/m 1,6 km/h (1 Bft) S-SO 157 0 min 0,000 mm 0,0 UV-I 0 W/m 4,0 C 5,5 C 3,2 km/h (1 Bft) 86,96 %
01.04.2023 02:07 5,6 C 4,4 C 5,6 C 6,1 C 89 % 12 cb 5 cb 1003,9 hPa 0,0 l/m 4,8 km/h (1 Bft) S-SO 157 0 min 0,000 mm 0,0 UV-I 0 W/m 3,9 C 4,8 C 8,0 km/h (2 Bft) 95,65 %
01.04.2023 02:06 5,6 C 4,4 C 5,6 C 6,1 C 89 % 12 cb 5 cb 1004,0 hPa 0,0 l/m 4,8 km/h (1 Bft) S 180 0 min 0,000 mm 0,0 UV-I 0 W/m 3,9 C 4,8 C 8,0 km/h (2 Bft) 95,65 %
01.04.2023 02:05 5,7 C 4,4 C 5,6 C 6,1 C 89 % 12 cb 5 cb 1003,9 hPa 0,0 l/m 8,0 km/h (2 Bft) S 180 0 min 0,000 mm 0,0 UV-I 0 W/m 4,0 C 4,0 C 9,7 km/h (2 Bft) 86,96 %
01.04.2023 02:04 5,8 C 4,4 C 5,6 C 6,1 C 87 % 12 cb 5 cb 1003,9 hPa 0,0 l/m 8,0 km/h (2 Bft) S 180 0 min 0,000 mm 0,0 UV-I 0 W/m 3,8 C 4,1 C 9,7 km/h (2 Bft) 91,30 %
01.04.2023 02:03 5,9 C 4,4 C 5,6 C 6,1 C 87 % 12 cb 5 cb 1004,0 hPa 0,0 l/m 6,4 km/h (2 Bft) S 180 0 min 0,000 mm 0,0 UV-I 0 W/m 3,9 C 4,6 C 8,0 km/h (2 Bft) 91,30 %
01.04.2023 02:02 6,1 C 4,4 C 5,6 C 6,1 C 86 % 12 cb 5 cb 1004,0 hPa 0,0 l/m 4,8 km/h (1 Bft) S-SW 202 0 min 0,000 mm 0,0 UV-I 0 W/m 3,9 C 5,4 C 6,4 km/h (2 Bft) 91,30 %
01.04.2023 02:01 6,3 C 4,4 C 5,6 C 6,1 C 84 % 12 cb 5 cb 1004,0 hPa 0,0 l/m 1,6 km/h (1 Bft) S-SW 202 0 min 0,000 mm 0,0 UV-I 0 W/m 3,8 C 6,3 C 3,2 km/h (1 Bft) 95,65 %
01.04.2023 02:00 6,5 C 4,4 C 5,6 C 6,1 C 83 % 12 cb 5 cb 1004,1 hPa 0,0 l/m 3,2 km/h (1 Bft) SW 225 0 min 0,025 mm 0,0 UV-I 0 W/m 3,8 C 6,5 C 3,2 km/h (1 Bft) 95,65 %
01.04.2023 01:59 6,6 C 4,4 C 5,6 C 6,1 C 81 % 12 cb 5 cb 1004,0 hPa 0,0 l/m 1,6 km/h (1 Bft) SW 225 0 min 0,000 mm 0,0 UV-I 0 W/m 3,6 C 6,6 C 3,2 km/h (1 Bft) 91,30 %
01.04.2023 01:58 6,7 C 4,4 C 5,6 C 6,1 C 81 % 12 cb 5 cb 1004,1 hPa 0,0 l/m 1,6 km/h (1 Bft) W 270 0 min 0,000 mm 0,0 UV-I 0 W/m 3,7 C 6,7 C 4,8 km/h (1 Bft) 95,65 %
01.04.2023 01:57 6,6 C 4,4 C 5,6 C 6,1 C 81 % 12 cb 5 cb 1004,1 hPa 0,0 l/m 1,6 km/h (1 Bft) W 270 0 min 0,000 mm 0,0 UV-I 0 W/m 3,6 C 6,6 C 4,8 km/h (1 Bft) 95,65 %
01.04.2023 01:56 6,5 C 4,4 C 5,6 C 6,1 C 81 % 12 cb 5 cb 1004,2 hPa 0,0 l/m 3,2 km/h (1 Bft) NW 315 0 min 0,000 mm 0,0 UV-I 0 W/m 3,5 C 6,5 C 6,4 km/h (2 Bft) 95,65 %
01.04.2023 01:55 6,4 C 4,4 C 5,6 C 6,1 C 83 % 12 cb 5 cb 1004,1 hPa 0,0 l/m 4,8 km/h (1 Bft) N-NW 337 0 min 0,000 mm 0,0 UV-I 0 W/m 3,7 C 5,7 C 8,0 km/h (2 Bft) 86,96 %
01.04.2023 01:54 6,4 C 4,4 C 5,6 C 6,1 C 83 % 12 cb 5 cb 1004,1 hPa 0,0 l/m 6,4 km/h (2 Bft) O-NO 67 0 min 0,000 mm 0,0 UV-I 0 W/m 3,7 C 5,2 C 8,0 km/h (2 Bft) 95,65 %
01.04.2023 01:53 6,4 C 4,4 C 5,6 C 6,1 C 83 % 12 cb 5 cb 1004,2 hPa 0,0 l/m 9,7 km/h (2 Bft) O-NO 67 0 min 0,000 mm 0,0 UV-I 0 W/m 3,7 C 4,4 C 11,3 km/h (2 Bft) 86,96 %
01.04.2023 01:52 6,6 C 4,4 C 5,6 C 6,1 C 82 % 12 cb 5 cb 1004,2 hPa 0,0 l/m 8,0 km/h (2 Bft) O-NO 67 0 min 0,000 mm 0,0 UV-I 0 W/m 3,8 C 5,0 C 11,3 km/h (2 Bft) 91,30 %
01.04.2023 01:51 6,6 C 4,4 C 5,6 C 6,1 C 81 % 12 cb 5 cb 1004,2 hPa 0,0 l/m 4,8 km/h (1 Bft) O-SO 112 0 min 0,000 mm 0,0 UV-I 0 W/m 3,6 C 6,0 C 6,4 km/h (2 Bft) 95,65 %
01.04.2023 01:50 6,7 C 4,4 C 5,6 C 6,1 C 82 % 12 cb 5 cb 1004,4 hPa 0,1 l/m 4,8 km/h (1 Bft) N-NO 22 0 min 0,000 mm 0,0 UV-I 0 W/m 3,8 C 6,1 C 9,7 km/h (2 Bft) 95,65 %
01.04.2023 01:49 6,7 C 4,4 C 5,6 C 6,1 C 82 % 12 cb 5 cb 1004,4 hPa 0,0 l/m 6,4 km/h (2 Bft) NO 45 0 min 0,000 mm 0,0 UV-I 0 W/m 3,8 C 5,6 C 12,9 km/h (3 Bft) 95,65 %
01.04.2023 01:48 6,8 C 5,0 C 5,6 C 6,1 C 80 % 12 cb 5 cb 1004,4 hPa 0,0 l/m 9,7 km/h (2 Bft) N-NO 22 0 min 0,000 mm 0,0 UV-I 0 W/m 3,6 C 4,9 C 14,5 km/h (3 Bft) 86,96 %
01.04.2023 01:47 6,8 C 5,0 C 5,6 C 6,1 C 80 % 12 cb 5 cb 1004,3 hPa 0,0 l/m 9,7 km/h (2 Bft) N 360 0 min 0,000 mm 0,0 UV-I 0 W/m 3,6 C 4,9 C 16,1 km/h (3 Bft) 91,30 %
01.04.2023 01:46 6,8 C 5,0 C 5,6 C 6,1 C 81 % 12 cb 5 cb 1004,3 hPa 0,0 l/m 8,0 km/h (2 Bft) N-NW 337 0 min 0,000 mm 0,0 UV-I 0 W/m 3,8 C 5,2 C 16,1 km/h (3 Bft) 95,65 %
01.04.2023 01:45 6,8 C 5,0 C 5,6 C 6,1 C 81 % 12 cb 5 cb 1004,2 hPa 0,0 l/m 14,5 km/h (3 Bft) N-NO 22 0 min 0,000 mm 0,0 UV-I 0 W/m 3,8 C 4,0 C 19,3 km/h (3 Bft) 91,30 %
01.04.2023 01:44 6,9 C 5,0 C 5,6 C 6,1 C 80 % 12 cb 5 cb 1004,2 hPa 0,0 l/m 9,7 km/h (2 Bft) NO 45 0 min 0,000 mm 0,0 UV-I 0 W/m 3,7 C 5,0 C 14,5 km/h (3 Bft) 95,65 %
01.04.2023 01:43 6,9 C 5,0 C 5,6 C 6,1 C 79 % 12 cb 5 cb 1004,2 hPa 0,0 l/m 8,0 km/h (2 Bft) N-NO 22 0 min 0,000 mm 0,0 UV-I 0 W/m 3,5 C 5,4 C 11,3 km/h (2 Bft) 95,65 %
01.04.2023 01:42 7,0 C 5,0 C 5,6 C 6,1 C 79 % 12 cb 5 cb 1004,2 hPa 0,0 l/m 11,3 km/h (2 Bft) N-NW 337 0 min 0,000 mm 0,0 UV-I 0 W/m 3,6 C 4,8 C 19,3 km/h (3 Bft) 91,30 %
01.04.2023 01:41 7,1 C 5,0 C 5,6 C 6,1 C 79 % 12 cb 5 cb 1004,2 hPa 0,0 l/m 11,3 km/h (2 Bft) N 360 0 min 0,000 mm 0,0 UV-I 0 W/m 3,7 C 4,9 C 20,9 km/h (4 Bft) 95,65 %
01.04.2023 01:40 7,2 C 5,0 C 5,6 C 6,1 C 79 % 12 cb 5 cb 1004,1 hPa 0,1 l/m 16,1 km/h (3 Bft) NO 45 0 min 0,000 mm 0,0 UV-I 0 W/m 3,8 C 4,3 C 22,5 km/h (4 Bft) 95,65 %
01.04.2023 01:39 7,2 C 5,0 C 5,6 C 6,1 C 78 % 12 cb 5 cb 1004,1 hPa 0,0 l/m 16,1 km/h (3 Bft) N 360 0 min 0,000 mm 0,0 UV-I 0 W/m 3,6 C 4,3 C 24,1 km/h (4 Bft) 91,30 %
01.04.2023 01:38 7,2 C 5,0 C 5,6 C 6,1 C 77 % 12 cb 5 cb 1004,1 hPa 0,0 l/m 17,7 km/h (3 Bft) N-NO 22 0 min 0,000 mm 0,0 UV-I 0 W/m 3,4 C 4,1 C 25,7 km/h (4 Bft) 95,65 %
01.04.2023 01:37 7,2 C 5,0 C 5,6 C 6,1 C 78 % 12 cb 5 cb 1004,1 hPa 0,0 l/m 14,5 km/h (3 Bft) NW 315 0 min 0,000 mm 0,0 UV-I 0 W/m 3,6 C 4,5 C 19,3 km/h (3 Bft) 86,96 %
01.04.2023 01:36 7,3 C 5,0 C 5,6 C 6,1 C 78 % 12 cb 5 cb 1004,1 hPa 0,0 l/m 17,7 km/h (3 Bft) N 360 0 min 0,000 mm 0,0 UV-I 0 W/m 3,7 C 4,2 C 22,5 km/h (4 Bft) 95,65 %
01.04.2023 01:35 7,3 C 5,0 C 5,6 C 6,1 C 78 % 12 cb 5 cb 1003,9 hPa 0,0 l/m 16,1 km/h (3 Bft) N-NO 22 0 min 0,000 mm 0,0 UV-I 0 W/m 3,7 C 4,4 C 20,9 km/h (4 Bft) 86,96 %
01.04.2023 01:34 7,4 C 5,0 C 5,6 C 6,1 C 77 % 12 cb 5 cb 1003,9 hPa 0,0 l/m 19,3 km/h (3 Bft) NO 45 0 min 0,000 mm 0,0 UV-I 0 W/m 3,6 C 4,2 C 27,4 km/h (4 Bft) 82,61 %
01.04.2023 01:33 7,4 C 5,0 C 5,6 C 6,1 C 76 % 12 cb 5 cb 1004,0 hPa 0,0 l/m 11,3 km/h (2 Bft) N 360 0 min 0,000 mm 0,0 UV-I 0 W/m 3,5 C 5,3 C 12,9 km/h (3 Bft) 95,65 %
01.04.2023 01:32 7,6 C 5,0 C 5,6 C 6,1 C 76 % 12 cb 5 cb 1003,9 hPa 0,0 l/m 11,3 km/h (2 Bft) N-NO 22 0 min 0,000 mm 0,0 UV-I 0 W/m 3,6 C 5,5 C 12,9 km/h (3 Bft) 91,30 %
01.04.2023 01:31 7,6 C 5,0 C 5,6 C 6,1 C 76 % 12 cb 5 cb 1003,9 hPa 0,0 l/m 11,3 km/h (2 Bft) NO 45 0 min 0,000 mm 0,0 UV-I 0 W/m 3,6 C 5,5 C 16,1 km/h (3 Bft) 91,30 %
01.04.2023 01:30 7,8 C 5,0 C 5,6 C 6,1 C 74 % 12 cb 5 cb 1003,8 hPa 0,0 l/m 9,7 km/h (2 Bft) O-NO 67 0 min 0,000 mm 0,0 UV-I 0 W/m 3,5 C 6,1 C 12,9 km/h (3 Bft) 86,96 %
01.04.2023 01:29 7,9 C 5,0 C 5,6 C 6,1 C 73 % 12 cb 5 cb 1003,9 hPa 0,0 l/m 6,4 km/h (2 Bft) NO 45 0 min 0,000 mm 0,0 UV-I 0 W/m 3,4 C 6,9 C 12,9 km/h (3 Bft) 91,30 %
01.04.2023 01:28 7,9 C 5,0 C 5,6 C 6,1 C 73 % 12 cb 5 cb 1003,9 hPa 0,1 l/m 9,7 km/h (2 Bft) W-NW 292 0 min 0,000 mm 0,0 UV-I 0 W/m 3,4 C 6,2 C 32,2 km/h (5 Bft) 91,30 %
01.04.2023 01:27 7,8 C 5,0 C 5,6 C 6,1 C 74 % 12 cb 5 cb 1003,8 hPa 0,0 l/m 16,1 km/h (3 Bft) N-NO 22 0 min 0,000 mm 0,0 UV-I 0 W/m 3,5 C 5,1 C 24,1 km/h (4 Bft) 95,65 %
01.04.2023 01:26 7,8 C 5,0 C 5,6 C 6,1 C 73 % 12 cb 5 cb 1003,7 hPa 0,0 l/m 25,7 km/h (4 Bft) NO 45 0 min 0,000 mm 0,0 UV-I 0 W/m 3,3 C 4,1 C 32,2 km/h (5 Bft) 91,30 %
01.04.2023 01:25 7,7 C 5,0 C 5,6 C 6,1 C 73 % 12 cb 5 cb 1003,7 hPa 0,0 l/m 17,7 km/h (3 Bft) O 90 0 min 0,000 mm 0,0 UV-I 0 W/m 3,2 C 4,7 C 22,5 km/h (4 Bft) 91,30 %
01.04.2023 01:24 7,6 C 5,0 C 5,6 C 6,1 C 74 % 12 cb 5 cb 1003,7 hPa 0,0 l/m 9,7 km/h (2 Bft) NO 45 0 min 0,000 mm 0,0 UV-I 0 W/m 3,3 C 5,8 C 16,1 km/h (3 Bft) 95,65 %
01.04.2023 01:23 7,5 C 5,0 C 5,6 C 6,1 C 74 % 12 cb 5 cb 1003,6 hPa 0,0 l/m 3,2 km/h (1 Bft) O-NO 67 0 min 0,000 mm 0,0 UV-I 0 W/m 3,2 C 7,5 C 6,4 km/h (2 Bft) 91,30 %
01.04.2023 01:22 7,4 C 4,4 C 5,6 C 6,1 C 76 % 12 cb 5 cb 1003,7 hPa 0,0 l/m 1,6 km/h (1 Bft) S-SW 202 0 min 0,000 mm 0,0 UV-I 0 W/m 3,5 C 7,4 C 4,8 km/h (1 Bft) 95,65 %
01.04.2023 01:21 7,3 C 4,4 C 5,6 C 6,1 C 78 % 12 cb 5 cb 1003,6 hPa 0,0 l/m 4,8 km/h (1 Bft) W 270 0 min 0,000 mm 0,0 UV-I 0 W/m 3,7 C 6,8 C 6,4 km/h (2 Bft) 95,65 %
01.04.2023 01:20 7,5 C 4,4 C 5,6 C 6,1 C 75 % 12 cb 5 cb 1003,6 hPa 0,0 l/m 4,8 km/h (1 Bft) W-SW 247 0 min 0,000 mm 0,0 UV-I 0 W/m 3,4 C 7,0 C 8,0 km/h (2 Bft) 82,61 %
01.04.2023 01:19 7,6 C 4,4 C 5,6 C 6,1 C 75 % 12 cb 5 cb 1003,7 hPa 0,0 l/m 8,0 km/h (2 Bft) N 360 0 min 0,000 mm 0,0 UV-I 0 W/m 3,5 C 6,2 C 11,3 km/h (2 Bft) 91,30 %
01.04.2023 01:18 7,8 C 4,4 C 5,6 C 6,1 C 74 % 12 cb 5 cb 1003,7 hPa 0,0 l/m 9,7 km/h (2 Bft) NO 45 0 min 0,000 mm 0,0 UV-I 0 W/m 3,5 C 6,1 C 14,5 km/h (3 Bft) 95,65 %
01.04.2023 01:17 7,8 C 4,4 C 5,6 C 6,1 C 72 % 12 cb 5 cb 1003,6 hPa 0,0 l/m 8,0 km/h (2 Bft) N-NO 22 0 min 0,000 mm 0,0 UV-I 0 W/m 3,1 C 6,4 C 11,3 km/h (2 Bft) 95,65 %
01.04.2023 01:16 7,8 C 4,4 C 5,6 C 6,1 C 73 % 12 cb 5 cb 1003,7 hPa 0,0 l/m 4,8 km/h (1 Bft) N-NO 22 0 min 0,000 mm 0,0 UV-I 0 W/m 3,3 C 7,3 C 6,4 km/h (2 Bft) 91,30 %
01.04.2023 01:15 7,8 C 4,4 C 5,6 C 6,1 C 73 % 12 cb 5 cb 1003,6 hPa 0,0 l/m 11,3 km/h (2 Bft) N-NO 22 0 min 0,000 mm 0,0 UV-I 0 W/m 3,3 C 5,8 C 17,7 km/h (3 Bft) 91,30 %
01.04.2023 01:14 7,8 C 4,4 C 5,6 C 6,1 C 72 % 12 cb 5 cb 1003,5 hPa 0,0 l/m 8,0 km/h (2 Bft) NO 45 0 min 0,000 mm 0,0 UV-I 0 W/m 3,1 C 6,4 C 17,7 km/h (3 Bft) 95,65 %
01.04.2023 01:13 7,8 C 4,4 C 5,6 C 6,1 C 73 % 12 cb 5 cb 1003,6 hPa 0,0 l/m 3,2 km/h (1 Bft) NO 45 0 min 0,000 mm 0,0 UV-I 0 W/m 3,3 C 7,8 C 6,4 km/h (2 Bft) 86,96 %
01.04.2023 01:12 7,8 C 4,4 C 5,6 C 6,1 C 74 % 12 cb 5 cb 1003,6 hPa 0,0 l/m 4,8 km/h (1 Bft) O 90 0 min 0,000 mm 0,0 UV-I 0 W/m 3,5 C 7,3 C 8,0 km/h (2 Bft) 91,30 %
01.04.2023 01:11 7,8 C 4,4 C 5,6 C 6,1 C 74 % 12 cb 5 cb 1003,6 hPa 0,0 l/m 3,2 km/h (1 Bft) S 180 0 min 0,000 mm 0,0 UV-I 0 W/m 3,5 C 7,8 C 9,7 km/h (2 Bft) 95,65 %
01.04.2023 01:10 7,8 C 4,4 C 5,6 C 6,1 C 74 % 12 cb 5 cb 1003,6 hPa 0,0 l/m 6,4 km/h (2 Bft) W-NW 292 0 min 0,000 mm 0,0 UV-I 0 W/m 3,5 C 6,8 C 9,7 km/h (2 Bft) 95,65 %
01.04.2023 01:09 7,8 C 4,4 C 5,6 C 6,1 C 73 % 12 cb 5 cb 1003,6 hPa 0,0 l/m 6,4 km/h (2 Bft) N-NO 22 0 min 0,000 mm 0,0 UV-I 0 W/m 3,3 C 6,8 C 9,7 km/h (2 Bft) 91,30 %
01.04.2023 01:08 7,8 C 4,4 C 5,6 C 6,1 C 73 % 12 cb 5 cb 1003,7 hPa 0,0 l/m 8,0 km/h (2 Bft) N 360 0 min 0,000 mm 0,0 UV-I 0 W/m 3,3 C 6,4 C 11,3 km/h (2 Bft) 91,30 %
01.04.2023 01:07 7,6 C 4,4 C 5,6 C 6,1 C 73 % 12 cb 5 cb 1003,7 hPa 0,0 l/m 11,3 km/h (2 Bft) N-NO 22 0 min 0,000 mm 0,0 UV-I 0 W/m 3,1 C 5,5 C 16,1 km/h (3 Bft) 91,30 %
01.04.2023 01:06 7,2 C 4,4 C 5,6 C 6,1 C 76 % 12 cb 5 cb 1003,6 hPa 0,0 l/m 9,7 km/h (2 Bft) N 360 0 min 0,000 mm 0,0 UV-I 0 W/m 3,3 C 5,3 C 14,5 km/h (3 Bft) 91,30 %
01.04.2023 01:05 7,1 C 4,4 C 5,6 C 6,1 C 79 % 12 cb 5 cb 1003,6 hPa 0,0 l/m 1,6 km/h (1 Bft) N 360 0 min 0,000 mm 0,0 UV-I 0 W/m 3,7 C 7,1 C 4,8 km/h (1 Bft) 95,65 %
01.04.2023 01:04 7,0 C 4,4 C 5,6 C 6,1 C 80 % 12 cb 5 cb 1003,6 hPa 0,0 l/m 1,6 km/h (1 Bft) S-SW 202 0 min 0,000 mm 0,0 UV-I 0 W/m 3,8 C 7,0 C 4,8 km/h (1 Bft) 91,30 %
01.04.2023 01:03 7,1 C 4,4 C 5,6 C 6,1 C 79 % 12 cb 5 cb 1003,5 hPa 0,0 l/m 4,8 km/h (1 Bft) W 270 0 min 0,000 mm 0,0 UV-I 0 W/m 3,7 C 6,5 C 6,4 km/h (2 Bft) 95,65 %
01.04.2023 01:02 7,3 C 4,4 C 5,6 C 6,1 C 78 % 12 cb 5 cb 1003,4 hPa 0,0 l/m 6,4 km/h (2 Bft) W 270 0 min 0,000 mm 0,0 UV-I 0 W/m 3,7 C 6,3 C 11,3 km/h (2 Bft) 95,65 %
01.04.2023 01:01 7,6 C 4,4 C 5,6 C 6,1 C 74 % 12 cb 5 cb 1003,5 hPa 0,0 l/m 8,0 km/h (2 Bft) W-NW 292 0 min 0,000 mm 0,0 UV-I 0 W/m 3,3 C 6,2 C 11,3 km/h (2 Bft) 86,96 %
01.04.2023 01:00 7,6 C 4,4 C 5,6 C 6,1 C 74 % 12 cb 5 cb 1003,5 hPa 0,0 l/m 8,0 km/h (2 Bft) N-NO 22 0 min 0,025 mm 0,0 UV-I 0 W/m 3,3 C 6,2 C 11,3 km/h (2 Bft) 95,65 %
01.04.2023 00:59 7,4 C 4,4 C 5,6 C 6,1 C 76 % 12 cb 5 cb 1003,5 hPa 0,0 l/m 9,7 km/h (2 Bft) N-NO 22 0 min 0,000 mm 0,0 UV-I 0 W/m 3,5 C 5,6 C 16,1 km/h (3 Bft) 91,30 %
01.04.2023 00:58 7,4 C 4,4 C 5,6 C 6,1 C 76 % 12 cb 5 cb 1003,5 hPa 0,0 l/m 3,2 km/h (1 Bft) N-NW 337 0 min 0,000 mm 0,0 UV-I 0 W/m 3,5 C 7,4 C 8,0 km/h (2 Bft) 86,96 %
01.04.2023 00:57 7,5 C 4,4 C 5,6 C 6,1 C 76 % 12 cb 5 cb 1003,5 hPa 0,0 l/m 6,4 km/h (2 Bft) NW 315 0 min 0,000 mm 0,0 UV-I 0 W/m 3,5 C 6,5 C 9,7 km/h (2 Bft) 86,96 %
01.04.2023 00:56 7,5 C 4,4 C 5,6 C 6,1 C 75 % 12 cb 5 cb 1003,5 hPa 0,0 l/m 9,7 km/h (2 Bft) NW 315 0 min 0,000 mm 0,0 UV-I 0 W/m 3,4 C 5,7 C 11,3 km/h (2 Bft) 86,96 %
01.04.2023 00:55 7,6 C 4,4 C 5,6 C 6,1 C 75 % 12 cb 5 cb 1003,5 hPa 0,0 l/m 6,4 km/h (2 Bft) N 360 0 min 0,000 mm 0,0 UV-I 0 W/m 3,5 C 6,6 C 11,3 km/h (2 Bft) 91,30 %
01.04.2023 00:54 7,7 C 4,4 C 5,6 C 6,1 C 74 % 12 cb 5 cb 1003,5 hPa 0,0 l/m 11,3 km/h (2 Bft) NO 45 0 min 0,000 mm 0,0 UV-I 0 W/m 3,4 C 5,6 C 16,1 km/h (3 Bft) 91,30 %
01.04.2023 00:53 7,7 C 4,4 C 5,6 C 6,1 C 74 % 12 cb 5 cb 1003,6 hPa 0,0 l/m 8,0 km/h (2 Bft) N-NO 22 0 min 0,000 mm 0,0 UV-I 0 W/m 3,4 C 6,3 C 11,3 km/h (2 Bft) 86,96 %
01.04.2023 00:52 7,7 C 4,4 C 5,6 C 6,1 C 75 % 12 cb 5 cb 1003,6 hPa 0,0 l/m 6,4 km/h (2 Bft) N-NO 22 0 min 0,000 mm 0,0 UV-I 0 W/m 3,6 C 6,7 C 9,7 km/h (2 Bft) 95,65 %
01.04.2023 00:51 7,6 C 4,4 C 5,6 C 6,1 C 74 % 12 cb 5 cb 1003,7 hPa 0,0 l/m 8,0 km/h (2 Bft) O 90 0 min 0,000 mm 0,0 UV-I 0 W/m 3,3 C 6,2 C 11,3 km/h (2 Bft) 86,96 %
01.04.2023 00:50 7,5 C 4,4 C 5,6 C 6,1 C 75 % 12 cb 5 cb 1003,7 hPa 0,0 l/m 4,8 km/h (1 Bft) NO 45 0 min 0,000 mm 0,0 UV-I 0 W/m 3,4 C 7,0 C 8,0 km/h (2 Bft) 86,96 %
01.04.2023 00:49 7,4 C 4,4 C 5,6 C 6,1 C 77 % 12 cb 5 cb 1003,5 hPa 0,0 l/m 4,8 km/h (1 Bft) O-NO 67 0 min 0,000 mm 0,0 UV-I 0 W/m 3,6 C 6,9 C 8,0 km/h (2 Bft) 91,30 %
01.04.2023 00:48 7,4 C 4,4 C 5,6 C 6,1 C 77 % 12 cb 5 cb 1003,6 hPa 0,0 l/m 4,8 km/h (1 Bft) O 90 0 min 0,000 mm 0,0 UV-I 0 W/m 3,6 C 6,9 C 8,0 km/h (2 Bft) 86,96 %
01.04.2023 00:47 7,6 C 4,4 C 5,6 C 6,1 C 76 % 12 cb 5 cb 1003,5 hPa 0,0 l/m 6,4 km/h (2 Bft) O-NO 67 0 min 0,000 mm 0,0 UV-I 0 W/m 3,6 C 6,6 C 8,0 km/h (2 Bft) 91,30 %
01.04.2023 00:46 7,7 C 4,4 C 5,6 C 6,1 C 76 % 12 cb 5 cb 1003,5 hPa 0,0 l/m 6,4 km/h (2 Bft) O-NO 67 0 min 0,000 mm 0,0 UV-I 0 W/m 3,7 C 6,7 C 8,0 km/h (2 Bft) 86,96 %
01.04.2023 00:45 7,7 C 4,4 C 5,6 C 6,1 C 76 % 12 cb 5 cb 1003,6 hPa 0,0 l/m 9,7 km/h (2 Bft) O-NO 67 0 min 0,000 mm 0,0 UV-I 0 W/m 3,7 C 5,9 C 12,9 km/h (3 Bft) 91,30 %
01.04.2023 00:44 7,6 C 4,4 C 5,6 C 6,1 C 76 % 12 cb 5 cb 1003,6 hPa 0,0 l/m 4,8 km/h (1 Bft) O-NO 67 0 min 0,000 mm 0,0 UV-I 0 W/m 3,6 C 7,1 C 11,3 km/h (2 Bft) 82,61 %
01.04.2023 00:43 7,3 C 4,4 C 5,6 C 6,1 C 79 % 12 cb 5 cb 1003,7 hPa 0,0 l/m 3,2 km/h (1 Bft) NW 315 0 min 0,000 mm 0,0 UV-I 0 W/m 3,9 C 7,3 C 8,0 km/h (2 Bft) 95,65 %
01.04.2023 00:42 7,3 C 4,4 C 5,6 C 6,1 C 79 % 12 cb 5 cb 1003,7 hPa 0,0 l/m 3,2 km/h (1 Bft) O-NO 67 0 min 0,000 mm 0,0 UV-I 0 W/m 3,9 C 7,3 C 17,7 km/h (3 Bft) 82,61 %
01.04.2023 00:41 7,1 C 4,4 C 5,6 C 6,1 C 80 % 12 cb 5 cb 1003,7 hPa 0,0 l/m 6,4 km/h (2 Bft) SW 225 0 min 0,000 mm 0,0 UV-I 0 W/m 3,9 C 6,0 C 11,3 km/h (2 Bft) 91,30 %
01.04.2023 00:40 6,7 C 4,4 C 5,6 C 6,1 C 81 % 12 cb 5 cb 1003,6 hPa 0,0 l/m 11,3 km/h (2 Bft) O-NO 67 0 min 0,000 mm 0,0 UV-I 0 W/m 3,7 C 4,4 C 16,1 km/h (3 Bft) 82,61 %
01.04.2023 00:39 6,6 C 4,4 C 5,6 C 6,1 C 85 % 12 cb 5 cb 1003,7 hPa 0,0 l/m 9,7 km/h (2 Bft) O-NO 67 0 min 0,000 mm 0,0 UV-I 0 W/m 4,3 C 4,6 C 17,7 km/h (3 Bft) 86,96 %
01.04.2023 00:38 6,6 C 4,4 C 5,6 C 6,1 C 83 % 12 cb 5 cb 1003,7 hPa 0,0 l/m 4,8 km/h (1 Bft) N-NW 337 0 min 0,000 mm 0,0 UV-I 0 W/m 3,9 C 6,0 C 8,0 km/h (2 Bft) 91,30 %
01.04.2023 00:37 6,4 C 4,4 C 5,6 C 6,1 C 87 % 12 cb 5 cb 1003,7 hPa 0,0 l/m 4,8 km/h (1 Bft) SO 135 0 min 0,000 mm 0,0 UV-I 0 W/m 4,4 C 5,7 C 9,7 km/h (2 Bft) 95,65 %
01.04.2023 00:36 6,3 C 4,4 C 5,6 C 6,1 C 87 % 12 cb 5 cb 1003,7 hPa 0,0 l/m 6,4 km/h (2 Bft) S 180 0 min 0,000 mm 0,0 UV-I 0 W/m 4,3 C 5,1 C 8,0 km/h (2 Bft) 82,61 %
01.04.2023 00:35 6,2 C 5,0 C 5,6 C 6,1 C 88 % 12 cb 5 cb 1003,7 hPa 0,0 l/m 4,8 km/h (1 Bft) SW 225 0 min 0,000 mm 0,0 UV-I 0 W/m 4,4 C 5,5 C 8,0 km/h (2 Bft) 95,65 %
01.04.2023 00:34 6,2 C 5,0 C 5,6 C 6,1 C 88 % 12 cb 5 cb 1003,6 hPa 0,0 l/m 6,4 km/h (2 Bft) S-SW 202 0 min 0,000 mm 0,0 UV-I 0 W/m 4,4 C 5,0 C 8,0 km/h (2 Bft) 86,96 %
01.04.2023 00:33 6,2 C 5,0 C 5,6 C 6,1 C 89 % 12 cb 5 cb 1003,7 hPa 0,0 l/m 4,8 km/h (1 Bft) S 180 0 min 0,000 mm 0,0 UV-I 0 W/m 4,5 C 5,5 C 8,0 km/h (2 Bft) 86,96 %
01.04.2023 00:32 6,2 C 5,0 C 5,6 C 6,1 C 89 % 12 cb 5 cb 1003,7 hPa 0,0 l/m 3,2 km/h (1 Bft) O-SO 112 0 min 0,000 mm 0,0 UV-I 0 W/m 4,5 C 6,2 C 3,2 km/h (1 Bft) 86,96 %
01.04.2023 00:31 6,1 C 5,0 C 5,6 C 6,1 C 89 % 12 cb 5 cb 1003,6 hPa 0,0 l/m 1,6 km/h (1 Bft) SW 225 0 min 0,000 mm 0,0 UV-I 0 W/m 4,4 C 6,1 C 3,2 km/h (1 Bft) 82,61 %
01.04.2023 00:30 6,1 C 5,0 C 5,6 C 6,1 C 89 % 12 cb 5 cb 1003,6 hPa 0,0 l/m 4,8 km/h (1 Bft) SO 135 0 min 0,000 mm 0,0 UV-I 0 W/m 4,4 C 5,4 C 6,4 km/h (2 Bft) 91,30 %
01.04.2023 00:29 6,1 C 5,0 C 5,6 C 6,1 C 89 % 12 cb 5 cb 1003,6 hPa 0,0 l/m 6,4 km/h (2 Bft) S-SO 157 0 min 0,000 mm 0,0 UV-I 0 W/m 4,4 C 4,9 C 9,7 km/h (2 Bft) 91,30 %
01.04.2023 00:28 6,2 C 5,0 C 5,6 C 6,1 C 88 % 12 cb 5 cb 1003,8 hPa 0,0 l/m 4,8 km/h (1 Bft) S-SO 157 0 min 0,000 mm 0,0 UV-I 0 W/m 4,4 C 5,5 C 9,7 km/h (2 Bft) 82,61 %
01.04.2023 00:27 6,2 C 4,4 C 5,6 C 6,1 C 88 % 12 cb 5 cb 1003,7 hPa 0,0 l/m 1,6 km/h (1 Bft) S-SO 157 0 min 0,000 mm 0,0 UV-I 0 W/m 4,4 C 6,2 C 3,2 km/h (1 Bft) 91,30 %
01.04.2023 00:26 6,2 C 5,0 C 5,6 C 6,1 C 88 % 12 cb 5 cb 1003,8 hPa 0,0 l/m 1,6 km/h (1 Bft) S-SO 157 0 min 0,000 mm 0,0 UV-I 0 W/m 4,4 C 6,2 C 1,6 km/h (1 Bft) 91,30 %
01.04.2023 00:25 6,3 C 5,0 C 5,6 C 6,1 C 88 % 12 cb 5 cb 1003,8 hPa 0,0 l/m 1,6 km/h (1 Bft) S-SW 202 0 min 0,000 mm 0,0 UV-I 0 W/m 4,5 C 6,3 C 3,2 km/h (1 Bft) 82,61 %
01.04.2023 00:24 6,3 C 5,0 C 5,6 C 6,1 C 88 % 12 cb 5 cb 1003,8 hPa 0,0 l/m 1,6 km/h (1 Bft) SW 225 0 min 0,000 mm 0,0 UV-I 0 W/m 4,5 C 6,3 C 1,6 km/h (1 Bft) 91,30 %
01.04.2023 00:23 6,4 C 5,0 C 5,6 C 6,1 C 87 % 12 cb 5 cb 1003,7 hPa 0,0 l/m 1,6 km/h (1 Bft) SW 225 0 min 0,000 mm 0,0 UV-I 0 W/m 4,4 C 6,4 C 1,6 km/h (1 Bft) 86,96 %
01.04.2023 00:22 6,4 C 5,0 C 5,6 C 6,1 C 87 % 12 cb 5 cb 1003,7 hPa 0,0 l/m 3,2 km/h (1 Bft) SW 225 0 min 0,000 mm 0,0 UV-I 0 W/m 4,4 C 6,4 C 4,8 km/h (1 Bft) 91,30 %
01.04.2023 00:21 6,4 C 5,0 C 5,6 C 6,1 C 87 % 12 cb 5 cb 1003,8 hPa 0,0 l/m 1,6 km/h (1 Bft) S-SW 202 0 min 0,000 mm 0,0 UV-I 0 W/m 4,4 C 6,4 C 3,2 km/h (1 Bft) 91,30 %
01.04.2023 00:20 6,4 C 5,0 C 5,6 C 6,1 C 87 % 12 cb 5 cb 1003,8 hPa 0,0 l/m 3,2 km/h (1 Bft) SO 135 0 min 0,000 mm 0,0 UV-I 0 W/m 4,4 C 6,4 C 9,7 km/h (2 Bft) 86,96 %
01.04.2023 00:19 6,3 C 4,4 C 5,6 C 6,1 C 88 % 12 cb 5 cb 1003,6 hPa 0,0 l/m 6,4 km/h (2 Bft) SO 135 0 min 0,000 mm 0,0 UV-I 0 W/m 4,5 C 5,1 C 9,7 km/h (2 Bft) 86,96 %
01.04.2023 00:18 6,2 C 4,4 C 5,6 C 6,1 C 88 % 12 cb 5 cb 1003,7 hPa 0,0 l/m 4,8 km/h (1 Bft) SO 135 0 min 0,000 mm 0,0 UV-I 0 W/m 4,4 C 5,5 C 8,0 km/h (2 Bft) 91,30 %
01.04.2023 00:17 6,2 C 4,4 C 5,6 C 6,1 C 88 % 13 cb 5 cb 1003,9 hPa 0,0 l/m 3,2 km/h (1 Bft) O-SO 112 0 min 0,000 mm 0,0 UV-I 0 W/m 4,4 C 6,2 C 6,4 km/h (2 Bft) 91,30 %
01.04.2023 00:16 6,2 C 4,4 C 5,6 C 6,1 C 88 % 13 cb 5 cb 1003,8 hPa 0,0 l/m 3,2 km/h (1 Bft) NO 45 0 min 0,000 mm 0,0 UV-I 0 W/m 4,4 C 6,2 C 6,4 km/h (2 Bft) 91,30 %
01.04.2023 00:15 6,3 C 4,4 C 5,6 C 6,1 C 87 % 13 cb 5 cb 1003,9 hPa 0,0 l/m 3,2 km/h (1 Bft) NO 45 0 min 0,000 mm 0,0 UV-I 0 W/m 4,3 C 6,3 C 4,8 km/h (1 Bft) 91,30 %
01.04.2023 00:14 6,4 C 4,4 C 5,6 C 6,1 C 87 % 13 cb 5 cb 1003,8 hPa 0,0 l/m 3,2 km/h (1 Bft) SO 135 0 min 0,000 mm 0,0 UV-I 0 W/m 4,4 C 6,4 C 4,8 km/h (1 Bft) 91,30 %
01.04.2023 00:13 6,3 C 4,4 C 5,6 C 6,1 C 87 % 13 cb 5 cb 1003,7 hPa 0,0 l/m 4,8 km/h (1 Bft) SO 135 0 min 0,000 mm 0,0 UV-I 0 W/m 4,3 C 5,6 C 4,8 km/h (1 Bft) 82,61 %
01.04.2023 00:12 6,3 C 4,4 C 5,6 C 6,1 C 88 % 13 cb 5 cb 1003,7 hPa 0,0 l/m 4,8 km/h (1 Bft) O-SO 112 0 min 0,000 mm 0,0 UV-I 0 W/m 4,5 C 5,6 C 6,4 km/h (2 Bft) 95,65 %
01.04.2023 00:11 6,2 C 4,4 C 5,6 C 6,1 C 89 % 13 cb 5 cb 1003,8 hPa 0,0 l/m 4,8 km/h (1 Bft) S-SO 157 0 min 0,000 mm 0,0 UV-I 0 W/m 4,5 C 5,5 C 8,0 km/h (2 Bft) 86,96 %
01.04.2023 00:10 6,1 C 4,4 C 5,6 C 6,1 C 89 % 13 cb 5 cb 1003,7 hPa 0,0 l/m 3,2 km/h (1 Bft) S 180 0 min 0,000 mm 0,0 UV-I 0 W/m 4,4 C 6,1 C 6,4 km/h (2 Bft) 95,65 %
01.04.2023 00:09 5,9 C 4,4 C 5,6 C 6,1 C 90 % 13 cb 5 cb 1003,8 hPa 0,0 l/m 1,6 km/h (1 Bft) S 180 0 min 0,000 mm 0,0 UV-I 0 W/m 4,4 C 5,9 C 3,2 km/h (1 Bft) 86,96 %
01.04.2023 00:08 5,9 C 4,4 C 5,6 C 6,1 C 89 % 13 cb 5 cb 1003,8 hPa 0,0 l/m 3,2 km/h (1 Bft) W 270 0 min 0,000 mm 0,0 UV-I 0 W/m 4,2 C 5,9 C 4,8 km/h (1 Bft) 95,65 %
01.04.2023 00:07 6,0 C 4,4 C 5,6 C 6,1 C 89 % 13 cb 5 cb 1003,8 hPa 0,0 l/m 3,2 km/h (1 Bft) W-NW 292 0 min 0,000 mm 0,0 UV-I 0 W/m 4,3 C 6,0 C 4,8 km/h (1 Bft) 91,30 %
01.04.2023 00:06 5,9 C 4,4 C 5,6 C 6,1 C 90 % 13 cb 5 cb 1003,7 hPa 0,0 l/m 1,6 km/h (1 Bft) O 90 0 min 0,000 mm 0,0 UV-I 0 W/m 4,4 C 5,9 C 3,2 km/h (1 Bft) 86,96 %
01.04.2023 00:05 5,9 C 4,4 C 5,6 C 6,1 C 90 % 13 cb 5 cb 1003,8 hPa 0,0 l/m 6,4 km/h (2 Bft) O-SO 112 0 min 0,000 mm 0,0 UV-I 0 W/m 4,4 C 4,6 C 8,0 km/h (2 Bft) 91,30 %
01.04.2023 00:04 5,9 C 4,4 C 5,6 C 6,1 C 90 % 13 cb 5 cb 1003,8 hPa 0,0 l/m 3,2 km/h (1 Bft) SO 135 0 min 0,000 mm 0,0 UV-I 0 W/m 4,4 C 5,9 C 6,4 km/h (2 Bft) 95,65 %
01.04.2023 00:03 5,9 C 4,4 C 5,6 C 6,1 C 90 % 13 cb 5 cb 1003,9 hPa 0,0 l/m 1,6 km/h (1 Bft) S 180 0 min 0,000 mm 0,0 UV-I 0 W/m 4,4 C 5,9 C 3,2 km/h (1 Bft) 73,91 %
01.04.2023 00:02 5,9 C 4,4 C 5,6 C 6,1 C 89 % 13 cb 5 cb 1003,9 hPa 0,0 l/m 1,6 km/h (1 Bft) W-SW 247 0 min 0,000 mm 0,0 UV-I 0 W/m 4,2 C 5,9 C 3,2 km/h (1 Bft) 91,30 %
01.04.2023 00:01 5,9 C 4,4 C 5,6 C 6,1 C 89 % 13 cb 5 cb 1003,8 hPa 0,0 l/m 3,2 km/h (1 Bft) W-NW 292 0 min 0,000 mm 0,0 UV-I 0 W/m 4,2 C 5,9 C 4,8 km/h (1 Bft) 86,96 %
_ Min-Zeit 03:36 04:17 03:45 03:07 11:44 11:09 00:01 01:02 - 03:24 - - - - - - 01:14 04:32 00:23 04:37
Minimum _ 4,8 C 3,9 C 5,0 C 5,6 C 70 % 8 cb 5 cb 1003,4 hPa - 0,0 km/h (0 Bft) - - - - - - 3,1 C 2,1 C 1,6 km/h (1 Bft) 8,70 %
_ Max-Zeit 11:42 11:43 11:32 00:01 03:24 00:01 00:01 11:18 01:28 01:26 - - 09:34 10:00 11:10 11:33 11:42 11:39 07:53 00:04
Maximum _ 8,6 C 10,6 C 8,3 C 6,1 C 94 % 13 cb 5 cb 1005,1 hPa 0,1 l/m 25,7 km/h
NO (4 Bft)
- - 1 min 0,076 mm 2,4 UV-I 399 W/m 4,6 C 8,2 C 33,8 km/h
N-NO (5 Bft)
95,65 %
Durchschnitt _ 6,5 C 5,4 C 5,7 C 5,8 C 83 % 11 cb 5 cb 1004,1 hPa #2,2 l/m 8,1 km/h (2 Bft) N-NO - #1:16 h #0,328 mm 1,1 UV-I 118 W/m 3,7 C 5,1 C 12,6 km/h (3 Bft) 89,46 %